[[{"header":{"parameterUnit":"m.s-1","parameterCategory":1,"la1":30.6,"la2":28.766,"lo1":-90.7593,"lo2":-88.6598,"dx":0.0162,"dy":0.0183,"nx":116,"ny":114,"refTime":"2022-12-27T18:00:00:Z","depth":0,"parameterNumber":2,"parameterNumberName":"U-component_of_WINDS"},"data":[0.0,0.0,0.0,0.0,0.0,0.0,0.0,0.0,0.0,0.0,0.0,0.0,0.0,0.0,0.0,0.0,0.0,0.0,0.0,0.0,0.0,0.0,0.0,0.0,0.0,0.0,0.0,0.0,0.0,0.0,0.0,0.0,0.0,0.0,0.0,0.0,0.0,0.0,0.0,0.0,0.0,0.0,0.0,0.0,0.0,0.0,0.0,0.0,0.0,0.0,0.0,0.0,0.0,0.0,0.0,0.0,0.0,0.0,0.0,0.0,0.0,0.0,0.0,0.0,0.0,0.0,0.0,0.0,0.0,0.0,0.0,0.0,0.0,0.0,0.0,0.0,0.0,0.0,0.0,0.0,0.0,0.0,0.0,0.0,0.0,0.0,0.0,0.0,0.0,0.0,0.0,0.0,0.0,0.0,0.0,0.0,0.0,0.0,0.0,0.0,0.0,0.0,0.0,0.0,0.0,0.0,0.0,0.0,0.0,0.0,0.0,0.0,0.0,0.0,0.0,0.0,0.0,0.0,0.0,0.0,0.0,0.0,0.0,0.0,0.0,0.0,0.0,0.0,0.0,0.0,0.0,0.0,0.0,0.0,0.0,0.0,0.0,0.0,0.0,0.0,0.0,0.0,0.0,0.0,0.0,0.0,0.0,0.0,0.0,0.0,0.0,0.0,0.0,0.0,0.0,0.0,0.0,0.0,0.0,0.0,0.0,0.0,0.0,0.0,0.0,0.0,0.0,0.0,0.0,0.0,0.0,0.0,0.0,0.0,0.0,0.0,0.0,0.0,0.0,0.0,0.0,0.0,0.0,0.0,0.0,0.0,0.0,0.0,0.0,0.0,0.0,0.0,0.0,0.0,0.0,0.0,0.0,0.0,0.0,0.0,0.0,0.0,0.0,0.0,0.0,0.0,0.0,0.0,0.0,0.0,0.0,0.0,0.0,0.0,0.0,0.0,0.0,0.0,0.0,0.0,0.0,0.0,0.0,0.0,0.0,0.0,0.0,0.0,0.0,0.0,0.0,0.0,0.0,0.0,0.0,0.0,0.0,0.0,0.0,0.0,0.0,0.0,0.0,0.0,0.0,0.0,0.0,0.0,0.0,0.0,0.0,0.0,0.0,0.0,0.0,0.0,0.0,0.0,0.0,0.0,0.0,0.0,0.0,0.0,0.0,0.0,0.0,0.0,0.0,0.0,0.0,0.0,0.0,0.0,0.0,0.0,0.0,0.0,0.0,0.0,0.0,0.0,0.0,0.0,0.0,0.0,0.0,0.0,0.0,0.0,0.0,0.0,0.0,0.0,0.0,0.0,0.0,0.0,0.0,0.0,0.0,0.0,0.0,0.0,0.0,0.0,0.0,0.0,0.0,0.0,0.0,0.0,0.0,0.0,0.0,0.0,0.0,0.0,0.0,0.0,0.0,0.0,0.0,0.0,0.0,0.0,0.0,0.0,0.0,0.0,0.0,0.0,0.0,0.0,0.0,0.0,0.0,0.0,0.0,0.0,0.0,0.0,0.0,0.0,0.0,0.0,0.0,0.0,0.0,0.0,0.0,0.0,0.0,0.0,0.0,0.0,0.0,0.0,0.0,0.0,0.0,0.0,0.0,0.0,0.0,0.0,0.0,0.0,0.0,0.0,0.0,0.0,0.0,0.0,0.0,0.0,0.0,0.0,0.0,0.0,0.0,0.0,0.0,0.0,0.0,0.0,0.0,0.0,0.0,0.0,0.0,0.0,0.0,0.0,0.0,0.0,0.0,0.0,0.0,0.0,0.0,0.0,0.0,0.0,0.0,0.0,0.0,0.0,0.0,0.0,0.0,0.0,0.0,0.0,0.0,0.0,0.0,0.0,0.0,0.0,0.0,0.0,0.0,0.0,0.0,0.0,0.0,0.0,0.0,0.0,0.0,0.0,0.0,0.0,0.0,0.0,0.0,0.0,0.0,0.0,0.0,0.0,0.0,0.0,0.0,0.0,0.0,0.0,0.0,0.0,0.0,0.0,0.0,0.0,0.0,0.0,0.0,0.0,0.0,0.0,0.0,0.0,0.0,0.0,0.0,0.0,0.0,0.0,0.0,0.0,0.0,0.0,0.0,0.0,0.0,0.0,0.0,0.0,0.0,0.0,0.0,0.0,0.0,0.0,0.0,0.0,0.0,0.0,0.0,0.0,0.0,0.0,0.0,0.0,0.0,0.0,0.0,0.0,0.0,0.0,0.0,0.0,0.0,0.0,0.0,0.0,0.0,0.0,0.0,0.0,0.0,0.0,0.0,0.0,0.0,0.0,0.0,0.0,0.0,0.0,0.0,0.0,0.0,0.0,0.0,0.0,0.0,0.0,0.0,0.0,0.0,0.0,0.0,0.0,0.0,0.0,0.0,0.0,0.0,0.0,0.0,0.0,0.0,0.0,0.0,0.0,0.0,0.0,0.0,0.0,0.0,0.0,0.0,0.0,0.0,0.0,0.0,0.0,0.0,0.0,0.0,0.0,0.0,0.0,0.0,0.0,0.0,0.0,0.0,0.0,0.0,0.0,0.0,0.0,0.0,0.0,0.0,0.0,0.0,0.0,0.0,0.0,0.0,0.0,0.0,0.0,0.0,0.0,0.0,0.0,0.0,0.0,0.0,0.0,0.0,0.0,0.0,0.0,0.0,0.0,0.0,0.0,0.0,0.0,0.0,0.0,0.0,0.0,0.0,0.0,0.0,0.0,0.0,0.0,0.0,0.0,0.0,0.0,0.0,0.0,0.0,0.0,0.0,0.0,0.0,0.0,0.0,0.0,0.0,0.0,0.0,0.0,0.0,0.0,0.0,0.0,0.0,0.0,0.0,0.0,0.0,0.0,0.0,0.0,0.0,0.0,0.0,0.0,0.0,0.0,0.0,0.0,0.0,0.0,0.0,0.0,0.0,0.0,0.0,0.0,0.0,0.0,0.0,0.0,0.0,0.0,0.0,0.0,0.0,0.0,0.0,0.0,0.0,0.0,0.0,0.0,0.0,0.0,0.0,0.0,0.0,0.0,0.0,0.0,0.0,0.0,0.0,0.0,0.0,0.0,0.0,0.0,0.0,0.0,0.0,0.0,0.0,0.0,0.0,0.0,0.0,0.0,0.0,0.0,0.0,0.0,0.0,0.0,0.0,0.0,0.0,0.0,0.0,0.0,0.0,0.0,0.0,0.0,0.0,0.0,0.0,0.0,0.0,0.0,0.0,0.0,0.0,0.0,0.0,0.0,0.0,0.0,0.0,0.0,0.0,0.0,0.0,0.0,0.0,0.0,0.0,0.0,0.0,0.0,0.0,0.0,0.0,0.0,0.0,0.0,0.0,0.0,0.0,0.0,0.0,0.0,0.0,0.0,0.0,0.0,0.0,0.0,0.0,0.0,0.0,0.0,0.0,0.0,0.0,0.0,0.0,0.0,0.0,0.0,0.0,0.0,0.0,0.0,0.0,0.0,0.0,0.0,0.0,0.0,0.0,0.0,0.0,0.0,0.0,0.0,0.0,0.0,0.0,0.0,0.0,0.0,0.0,0.0,0.0,0.0,0.0,0.0,0.0,0.0,0.0,0.0,0.0,0.0,0.0,0.0,0.0,0.0,0.0,0.0,0.0,0.0,0.0,0.0,0.0,0.0,0.0,0.0,0.0,0.0,0.0,0.0,0.0,0.0,0.0,0.0,0.0,0.0,0.0,0.0,0.0,0.0,0.0,0.0,0.0,0.0,0.0,0.0,0.0,0.0,0.0,0.0,0.0,0.0,0.0,0.0,0.0,0.0,0.0,0.0,0.0,0.0,0.0,0.0,0.0,0.0,0.0,0.0,0.0,0.0,0.0,0.0,0.0,0.0,0.0,0.0,0.0,0.0,0.0,0.0,0.0,0.0,0.0,0.0,0.0,0.0,0.0,0.0,0.0,0.0,0.0,0.0,0.0,0.0,0.0,0.0,0.0,0.0,0.0,0.0,0.0,0.0,0.0,0.0,0.0,0.0,0.0,0.0,0.0,0.0,0.0,0.0,0.0,0.0,0.0,0.0,0.0,0.0,0.0,0.0,0.0,0.0,0.0,0.0,0.0,0.0,0.0,0.0,0.0,0.0,0.0,0.0,0.0,0.0,0.0,0.0,0.0,0.0,0.0,0.0,0.0,0.0,0.0,0.0,0.0,0.0,0.0,0.0,0.0,0.0,0.0,0.0,0.0,0.0,0.0,0.0,0.0,0.0,0.0,0.0,0.0,0.0,0.0,0.0,0.0,0.0,0.0,0.0,0.0,0.0,0.0,0.0,0.0,0.0,0.0,0.0,0.0,0.0,0.0,0.0,0.0,0.0,0.0,0.0,0.0,0.0,0.0,0.0,0.0,0.0,0.0,0.0,0.0,0.0,0.0,0.0,0.0,0.0,0.0,0.0,0.0,0.0,0.0,0.0,0.0,0.0,0.0,0.0,0.0,0.0,0.0,0.0,0.0,0.0,0.0,0.0,0.0,0.0,0.0,0.0,0.0,0.0,0.0,0.0,0.0,0.0,0.0,0.0,0.0,0.0,0.0,0.0,0.0,0.0,0.0,0.0,0.0,0.0,0.0,0.0,0.0,0.0,0.0,0.0,0.0,0.0,0.0,0.0,0.0,0.0,0.0,0.0,0.0,0.0,0.0,0.0,0.0,0.0,0.0,0.0,0.0,0.0,0.0,0.0,0.0,0.0,0.0,0.0,0.0,0.0,0.0,0.0,0.0,0.0,0.0,0.0,0.0,0.0,0.0,0.0,0.0,0.0,0.0,0.0,0.0,0.0,0.0,0.0,0.0,0.0,0.0,0.0,0.0,0.0,0.0,0.0,0.0,0.0,0.0,0.0,0.0,0.0,0.0,0.0,0.0,0.0,0.0,0.0,0.0,0.0,0.0,0.0,0.0,0.0,0.0,0.0,0.0,0.0,0.0,0.0,0.0,0.0,0.0,0.0,0.0,0.0,0.0,0.0,0.0,0.0,0.0,0.0,0.0,0.0,0.0,0.0,0.0,0.0,0.0,0.0,0.0,0.0,0.0,0.0,0.0,0.0,0.0,0.0,0.0,0.0,0.0,0.0,0.0,0.0,0.0,0.0,0.0,0.0,0.0,0.0,0.0,0.0,0.0,0.0,0.0,0.0,0.0,0.0,0.0,0.0,0.0,0.0,0.0,0.0,0.0,0.0,0.0,0.0,0.0,0.0,0.0,0.0,0.0,0.0,0.0,0.0,0.0,0.0,0.0,0.0,0.0,0.0,0.0,0.0,0.0,0.0,0.0,0.0,0.0,0.0,0.0,0.0,0.0,0.0,0.0,0.0,0.0,0.0,0.0,0.0,0.0,0.0,0.0,0.0,0.0,0.0,0.0,0.0,0.0,0.0,0.0,0.0,0.0,0.0,0.0,0.0,0.0,0.0,0.0,0.0,0.0,0.0,0.0,0.0,0.0,0.0,0.0,0.0,0.0,0.0,0.0,0.0,0.0,0.0,0.0,0.0,0.0,0.0,0.0,0.0,0.0,0.0,0.0,0.0,0.0,0.0,0.0,0.0,0.0,0.0,0.0,0.0,0.0,0.0,0.0,0.0,0.0,0.0,0.0,0.0,0.0,0.0,0.0,0.0,0.0,0.0,0.0,0.0,0.0,0.0,0.0,0.0,0.0,0.0,0.0,0.0,0.0,0.0,0.0,0.0,0.0,0.0,0.0,0.0,0.0,0.0,0.0,0.0,0.0,0.0,0.0,0.0,0.0,0.0,0.0,0.0,0.0,0.0,0.0,0.0,0.0,0.0,0.0,0.0,0.0,0.0,0.0,0.0,0.0,0.0,0.0,0.0,0.0,0.0,0.0,0.0,0.0,0.0,0.0,0.0,0.0,0.0,0.0,0.0,0.0,0.0,0.0,0.0,0.0,0.0,0.0,0.0,0.0,0.0,0.0,0.0,0.0,0.0,0.0,0.0,0.0,0.0,0.0,0.0,0.0,0.0,0.0,0.0,0.0,0.0,0.0,0.0,0.0,0.0,0.0,0.0,0.0,0.0,0.0,0.0,0.0,0.0,0.0,0.0,0.0,0.0,0.0,0.0,0.0,0.0,0.0,0.0,0.0,0.0,0.0,0.0,-3.4387,-3.0222,0.0,0.0,0.0,0.0,0.0,0.0,0.0,0.0,0.0,0.0,0.0,0.0,0.0,0.0,0.0,0.0,0.0,0.0,0.0,0.0,0.0,0.0,0.0,0.0,0.0,0.0,0.0,0.0,0.0,0.0,0.0,0.0,0.0,0.0,0.0,0.0,-1.2704,-1.3888,-1.4614,-1.6338,-1.9026,-1.8143,-1.6942,-1.5503,0.0,0.0,0.0,0.0,0.0,0.0,0.0,0.0,0.0,0.0,0.0,0.0,0.0,0.0,0.0,0.0,0.0,0.0,0.0,0.0,0.0,0.0,0.0,0.0,0.0,0.0,0.0,0.0,0.0,0.0,0.0,0.0,0.0,0.0,0.0,0.0,0.0,0.0,0.0,0.0,0.0,0.0,0.0,0.0,0.0,0.0,0.0,0.0,0.0,0.0,0.0,0.0,0.0,0.0,0.0,0.0,0.0,0.0,0.0,0.0,0.0,0.0,0.0,0.0,0.0,0.0,0.0,0.0,0.0,0.0,-3.9141,-3.6414,0.0,0.0,0.0,0.0,0.0,0.0,0.0,0.0,0.0,0.0,0.0,0.0,0.0,0.0,0.0,0.0,0.0,0.0,0.0,0.0,0.0,0.0,0.0,-1.4874,-1.4866,-1.501,-1.4888,-1.4817,0.0,0.0,0.0,0.0,0.0,0.0,-1.3022,-1.2899,-1.3862,-1.5899,-1.7422,-1.993,-2.3265,-2.3343,-2.207,-1.9629,-1.7597,0.0,0.0,0.0,0.0,0.0,0.0,0.0,0.0,0.0,0.0,0.0,0.0,0.0,0.0,0.0,0.0,0.0,0.0,0.0,0.0,0.0,0.0,0.0,0.0,0.0,0.0,0.0,0.0,0.0,0.0,0.0,0.0,0.0,0.0,0.0,0.0,0.0,0.0,0.0,0.0,0.0,0.0,0.0,0.0,0.0,0.0,0.0,0.0,0.0,0.0,0.0,0.0,0.0,0.0,0.0,0.0,0.0,0.0,0.0,0.0,0.0,0.0,0.0,-3.963,-4.0406,-4.1307,-4.1381,-4.2896,-4.5493,-4.4764,-4.4227,-4.3588,-3.9905,0.0,0.0,0.0,0.0,0.0,0.0,0.0,0.0,0.0,0.0,0.0,0.0,0.0,0.0,0.0,0.0,0.0,0.0,0.0,0.0,0.0,-1.4384,-1.449,-1.581,-1.5283,-1.5089,-1.5623,0.0,0.0,0.0,0.0,-1.4049,-1.3765,-1.4145,-1.5327,-1.7412,-2.2445,-2.6228,-2.8682,-2.85,-2.832,-2.7914,-2.3424,-2.0883,-1.993,0.0,0.0,0.0,0.0,0.0,0.0,0.0,0.0,0.0,0.0,0.0,0.0,0.0,0.0,0.0,0.0,0.0,0.0,0.0,0.0,0.0,0.0,0.0,0.0,0.0,0.0,0.0,0.0,0.0,0.0,0.0,0.0,0.0,0.0,0.0,0.0,0.0,0.0,0.0,0.0,0.0,-2.9948,-3.0831,0.0,0.0,0.0,0.0,0.0,0.0,0.0,0.0,0.0,0.0,0.0,0.0,0.0,-3.5856,-3.8277,-4.0995,-4.2711,-4.3479,-4.651,-4.8151,-4.854,-4.882,-4.9366,-4.995,-4.833,0.0,-4.629,-4.3578,0.0,0.0,0.0,0.0,0.0,0.0,0.0,0.0,0.0,0.0,0.0,0.0,0.0,0.0,0.0,0.0,0.0,0.0,0.0,0.0,0.0,-1.6592,-1.788,-1.8578,-1.9324,-1.918,-1.7738,-1.7307,0.0,0.0,-1.4167,-1.3934,-1.3776,-1.506,-1.8163,-2.3094,-2.7636,-3.0846,-3.2729,-3.263,-3.2497,-3.2253,-3.0281,-2.6769,-2.2276,-2.0796,0.0,0.0,0.0,0.0,0.0,0.0,0.0,0.0,0.0,0.0,0.0,0.0,0.0,0.0,0.0,0.0,0.0,0.0,0.0,0.0,0.0,0.0,0.0,0.0,0.0,0.0,0.0,0.0,0.0,0.0,0.0,0.0,0.0,0.0,0.0,0.0,0.0,0.0,0.0,-2.945,-3.1549,-3.1312,-3.1121,-3.0101,0.0,0.0,0.0,0.0,0.0,0.0,0.0,0.0,0.0,-3.9026,-3.9564,-4.1244,-4.427,-4.6047,-4.7322,-4.8093,-4.9814,-5.1066,-5.1903,-5.22,-5.2736,-5.3223,-5.2025,-5.1248,-5.0571,-4.7351,-4.5,-4.3034,0.0,0.0,0.0,0.0,-3.4432,-3.5842,0.0,0.0,0.0,0.0,0.0,0.0,0.0,0.0,0.0,0.0,0.0,0.0,-1.6641,-1.9582,-2.1612,-2.1771,-2.2756,-2.2528,-2.0453,-1.9287,-1.7695,-1.5406,-1.4423,-1.3975,-1.3984,-1.7162,-2.1945,-2.8395,-3.1857,-3.431,-3.5735,-3.5711,-3.549,-3.5064,-3.4999,-3.1558,-2.5689,-2.3992,-2.1805,-1.9361,0.0,0.0,0.0,0.0,0.0,0.0,0.0,0.0,0.0,0.0,0.0,0.0,0.0,0.0,0.0,0.0,0.0,0.0,0.0,0.0,0.0,0.0,0.0,0.0,0.0,0.0,0.0,0.0,0.0,0.0,0.0,0.0,0.0,0.0,0.0,0.0,0.0,-3.0957,-3.3318,-3.2997,-3.3277,-3.265,0.0,0.0,0.0,0.0,0.0,0.0,-3.6937,-3.7253,-3.9298,-4.3518,-4.4303,-4.6047,-4.891,-4.9649,-5.0455,-5.1227,-5.1619,-5.2306,-5.3291,-5.3484,-5.3997,-5.4629,-5.4046,-5.3713,-5.3351,-5.0342,-4.8367,-4.6988,-4.5079,-4.3057,-4.1205,-4.1103,-4.1332,-4.2175,0.0,0.0,0.0,0.0,0.0,0.0,0.0,0.0,0.0,0.0,0.0,-1.892,-2.054,-2.2817,-2.4394,-2.4921,-2.3673,-2.3057,-2.3521,-1.9984,-1.7804,-1.7721,-1.5375,-1.4288,-1.4741,-2.1319,-2.6942,-3.1383,-3.4386,-3.6422,-3.757,-3.7437,-3.7194,-3.6833,-3.5665,-3.3972,-3.1738,-2.863,-2.698,-2.5986,-2.0239,0.0,0.0,0.0,0.0,0.0,0.0,0.0,0.0,0.0,0.0,0.0,0.0,0.0,0.0,0.0,0.0,0.0,0.0,0.0,0.0,0.0,0.0,0.0,0.0,0.0,0.0,0.0,0.0,0.0,0.0,0.0,0.0,0.0,0.0,0.0,0.0,0.0,0.0,-3.7995,-3.8452,0.0,0.0,0.0,0.0,-3.6434,-3.7643,-3.9587,-4.2367,-4.3339,-4.5094,-4.7794,-4.831,-4.8841,-4.9521,-5.0291,-5.1028,-5.1765,-5.2299,-5.2721,-5.3006,-5.2835,-5.2939,-5.3296,-5.3054,-5.2933,-5.2863,-5.199,-5.1876,-5.201,-4.8674,-4.7539,-4.7607,-4.6525,-4.81,-5.1004,0.0,0.0,0.0,-1.5338,-1.5406,-1.5124,-1.4232,-1.4467,-1.4458,-1.3646,-1.7354,-2.0114,-2.0239,-2.4874,-2.801,-2.8094,-2.8773,-2.8326,-2.6313,-2.3176,-2.1043,-2.0269,-1.7557,-1.8017,-2.2169,-2.6465,-3.0572,-3.4452,-3.6439,-3.7741,-3.8428,-3.8341,-3.7954,-3.7242,-3.6814,-3.6048,-3.4854,-3.1924,-2.9403,-2.7208,-2.5049,-2.1949,0.0,0.0,0.0,0.0,0.0,0.0,0.0,0.0,0.0,0.0,0.0,0.0,0.0,0.0,0.0,0.0,0.0,0.0,0.0,0.0,0.0,0.0,0.0,0.0,0.0,0.0,0.0,0.0,0.0,0.0,0.0,0.0,0.0,0.0,0.0,0.0,0.0,-3.7917,-3.8529,0.0,-3.7788,-3.8685,-3.948,-3.9904,-4.2293,-4.4457,-4.607,-4.7149,-4.8379,-4.9791,-5.0523,-5.1226,-5.1934,-5.2169,-5.2438,-5.2707,-5.3308,-5.3729,-5.3986,-5.4326,-5.4519,-5.4484,-5.4425,-5.4336,-5.4212,-5.3533,-5.3672,-5.4201,-5.2884,-5.3222,-5.4406,-5.3632,-5.4477,-5.6205,0.0,-1.4949,0.0,-1.4952,-1.494,-1.4578,-1.3414,-1.3832,-1.4299,-1.4235,-1.8596,-2.2047,-2.2869,-2.8175,-3.1571,-3.1287,-3.2465,-3.2007,-2.9127,-2.5676,-2.3059,-2.1511,-1.9562,-2.1587,-2.8104,-3.0534,-3.3371,-3.6738,-3.7963,-3.8632,-3.8733,-3.8733,-3.823,-3.7328,-3.7328,-3.6997,-3.6384,-3.4537,-3.2311,-2.9844,-2.8738,-2.5529,-2.1214,0.0,0.0,0.0,0.0,0.0,0.0,0.0,0.0,0.0,0.0,0.0,0.0,0.0,0.0,0.0,0.0,0.0,0.0,0.0,0.0,0.0,0.0,0.0,0.0,0.0,0.0,0.0,0.0,0.0,0.0,0.0,0.0,0.0,0.0,-3.524,-3.798,-3.8647,-3.9707,-4.0339,-4.0339,-4.1504,-4.28,-4.4054,-4.62,-4.7883,-4.8959,-4.9792,-5.0493,-5.1062,-5.1732,-5.2303,-5.274,-5.274,-5.2875,-5.311,-5.3683,-5.4108,-5.4431,-5.5053,-5.4815,-5.3957,-5.482,-5.4799,-5.4135,-5.463,-5.5539,-5.6526,-5.5889,-5.6746,-5.832,-5.8343,-5.8769,-5.9407,-1.3936,-1.4089,-1.4051,-1.4092,-1.4113,-1.3512,-1.1811,-1.2173,-1.3822,-1.6987,-2.0746,-2.4681,-2.8714,-3.2648,-3.4819,-3.4351,-3.4303,-3.3573,-3.1806,-2.7214,-2.3626,-2.1544,-2.1458,-2.4772,-3.188,-3.335,-3.5394,-3.8202,-3.8924,-3.9067,-3.8595,-3.8595,-3.8084,-3.7208,-3.7208,-3.6937,-3.6507,-3.6507,-3.5737,-3.4258,-3.1166,-2.8357,-2.5839,0.0,0.0,0.0,0.0,0.0,0.0,0.0,0.0,0.0,0.0,0.0,0.0,0.0,0.0,0.0,0.0,0.0,0.0,0.0,0.0,0.0,0.0,0.0,0.0,0.0,0.0,0.0,0.0,0.0,0.0,0.0,0.0,0.0,-3.5937,-3.7216,-3.8894,-4.0721,-4.2429,-4.4057,-4.5395,-4.614,-4.7214,-4.8886,-4.9219,-4.9825,-5.0991,-5.1295,-5.1561,-5.1698,-5.19,-5.1967,-5.1765,-5.1832,-5.2234,-5.2903,-5.3247,-5.3682,-5.4237,-5.4741,-5.3709,-5.1662,-5.4132,-5.4152,-5.2641,-5.5209,-5.7482,-5.9259,-5.7594,-5.7766,-5.9112,-6.0347,-6.0727,-6.0671,-1.3939,-1.3587,-1.3354,-1.3974,-1.4118,-1.3714,-1.2617,-1.3571,-1.5185,-1.7258,-2.1349,-2.5162,-2.816,-3.2391,-3.4891,-3.4613,-3.467,-3.3818,-3.1639,-2.7871,-2.5408,-2.4663,-2.7638,-3.1058,-3.4848,-3.6315,-3.7691,-3.9017,-3.9216,-3.9067,-3.8595,-3.8073,-3.7773,-3.7679,-3.7141,-3.6943,-3.7029,-3.7029,-3.6318,-3.5152,-3.4255,-3.2021,-2.9135,0.0,0.0,0.0,0.0,0.0,0.0,0.0,0.0,0.0,0.0,0.0,0.0,0.0,0.0,0.0,0.0,0.0,0.0,0.0,0.0,0.0,0.0,0.0,0.0,0.0,0.0,0.0,0.0,0.0,0.0,0.0,-3.5576,-3.8034,-3.7276,-4.029,-4.282,-4.3489,-4.493,-4.6041,-4.6418,-4.7098,-4.8084,-4.9472,-5.0249,-5.0924,-5.1564,-5.0792,-5.0055,-4.9453,-5.0118,-5.0486,-5.042,-5.2168,-5.3078,-5.311,-5.3484,-5.3815,-5.4203,-5.4617,-5.4644,-5.4449,-5.5664,-5.5914,-5.5539,-5.7103,-5.8461,-5.952,-5.8703,-5.9279,-6.0653,-6.0741,-6.0848,-6.0624,-1.4452,-1.4255,-1.3942,-1.4095,-1.4085,-1.3797,-1.293,-1.3824,-1.5695,-1.8747,-2.2219,-2.5792,-2.9302,-3.2859,-3.5015,-3.516,-3.5486,-3.4272,-3.0853,-2.7288,-2.6538,-2.927,-3.1475,-3.4141,-3.7344,-3.8221,-3.8858,-3.9315,-3.9315,-3.9148,-3.8871,-3.8444,-3.8231,-3.8169,-3.7754,-3.737,-3.7004,-3.7083,-3.6405,-3.5327,-3.5337,-3.3825,-3.1446,-3.1094,-2.9469,-2.7243,-2.6225,-2.6031,-2.612,-2.5303,0.0,0.0,0.0,0.0,0.0,0.0,0.0,0.0,0.0,0.0,0.0,0.0,0.0,0.0,0.0,0.0,0.0,0.0,0.0,0.0,0.0,0.0,0.0,0.0,-3.8489,-4.1333,-4.0824,-4.2976,-4.4812,-4.5461,-4.6819,-4.7699,-4.7699,-4.8619,-4.9535,-5.0347,-5.1056,-5.1597,-5.2001,-5.1463,-5.0523,-4.9114,-5.0487,-5.0789,-4.9782,-5.2168,-5.3314,-5.3213,-5.3551,-5.3913,-5.4367,-5.4994,-5.4922,-5.4395,-5.629,-5.6645,-5.6029,-5.7952,-5.9378,-6.0232,0.0,0.0,0.0,0.0,-6.1058,-6.0896,-1.5077,-1.5156,-1.4879,-1.4217,-1.409,-1.384,-1.3055,-1.3586,-1.5868,-2.0962,-2.3232,-2.63,-3.1431,-3.3685,-3.5103,-3.5648,-3.6206,-3.4634,-3.0246,-2.6721,-2.7674,-3.417,-3.3784,-3.5252,-3.9216,-3.9315,-3.9315,-3.9315,-3.9315,-3.9315,-3.9315,-3.9216,-3.9001,-3.865,-3.8585,-3.7978,-3.7018,-3.7074,-3.6456,-3.5417,-3.5486,-3.4558,-3.3127,-3.3162,-3.207,-3.048,-2.9911,-2.9237,-2.8549,-2.8285,0.0,0.0,0.0,0.0,0.0,0.0,0.0,0.0,0.0,0.0,0.0,0.0,0.0,0.0,0.0,0.0,0.0,0.0,0.0,0.0,0.0,0.0,0.0,0.0,-4.1359,-4.5213,-4.5391,-4.5391,-4.5818,-4.6887,-4.8244,-4.9123,-4.9224,-5.0381,-5.1157,-5.132,-5.1732,-5.2102,-5.2402,-5.2505,0.0,0.0,0.0,-5.1766,-4.9621,-5.2034,-5.3213,-5.3213,-5.3517,-5.398,-5.456,-5.5501,-5.4791,-5.3112,-5.6374,-5.683,-5.5497,-5.8381,-6.0244,-6.111,-6.0396,-6.0626,-6.1321,-6.0934,-6.1006,-6.1286,-1.4177,-1.3789,-1.3476,-1.402,-1.4095,-1.405,-1.3879,-1.4523,-1.7075,-2.2802,-2.3537,-2.5964,-3.2312,-3.3623,-3.433,-3.508,-3.4872,-3.3979,-3.2276,-3.0198,-3.1092,-3.5773,-3.5936,-3.698,-3.9249,-3.9315,-3.9315,-3.9315,-3.9315,-3.9315,-3.9282,-3.8692,-3.8672,-3.9148,-3.8527,-3.8253,-3.8261,-3.8278,-3.7926,-3.7387,-3.7369,-3.6193,-3.4537,-3.5271,-3.5398,-3.5222,-3.5316,-3.5791,-3.613,-3.4399,-3.3271,-3.252,-3.2365,-3.0311,0.0,0.0,0.0,0.0,0.0,0.0,0.0,0.0,0.0,0.0,0.0,0.0,0.0,0.0,0.0,0.0,0.0,0.0,0.0,-4.0428,-4.3585,-4.6391,-4.7634,-4.7861,-4.8023,-4.8298,-4.9138,-4.9912,-5.0551,-5.1394,-5.1932,-5.2064,-5.2774,-5.3213,-5.3281,-5.1527,-5.0284,-4.9912,-5.0316,-5.0252,-4.9587,-5.2135,-5.3416,-5.3382,-5.3416,0.0,-5.4648,-5.4758,-5.4869,-5.5038,-5.6987,-5.7736,-5.7836,-5.9894,-6.1127,-6.1644,-6.1492,-6.1528,-6.1384,-5.849,-5.9199,-6.1142,-1.4562,-1.4411,-1.4257,-1.4687,-1.4765,-1.4763,-1.476,-1.5102,-1.7185,-2.2273,-2.2948,-2.5037,-3.0454,-3.0696,-3.0728,-3.1493,-3.1285,-3.1727,-3.3184,-3.261,-3.4026,-3.8183,-3.8077,-3.8387,-3.9282,-3.9315,-3.9315,-3.9315,-3.9315,-3.9315,-3.9282,-3.8917,-3.8924,-3.9282,-3.8891,-3.8619,-3.8378,-3.8432,-3.7978,-3.7196,-3.7242,-3.6589,-3.5764,-3.6702,-3.7004,-3.6993,-3.7164,-3.7465,-3.7682,-3.6598,-3.5869,-3.5379,-3.5015,-3.3657,-3.1702,0.0,0.0,0.0,0.0,0.0,0.0,0.0,0.0,0.0,0.0,0.0,0.0,0.0,0.0,-3.5065,-3.647,0.0,-4.0836,-4.3046,-4.5186,-4.7184,-4.888,-4.9545,-4.9877,-4.9846,-5.0388,-5.1026,-5.1594,-5.2269,-5.2708,-5.2909,-5.318,-5.3348,-5.3348,-5.2102,-5.086,-4.9688,-5.0793,-5.0793,-4.9491,-5.2135,-5.345,-5.3416,-5.3749,-5.4207,-5.462,-5.513,-5.5521,-5.5933,-5.7658,-5.851,-5.8764,-6.0416,-6.1328,-6.1708,-6.1708,-6.1708,-6.1492,-5.9761,-6.022,-6.1456,-1.522,-1.5417,-1.5383,-1.5388,-1.539,-1.5391,-1.5391,-1.5389,-1.6947,-2.123,-2.1995,-2.3697,-2.7888,-2.7331,-2.6768,-2.7149,-2.782,-2.9759,-3.3389,-3.4394,-3.6586,-4.0444,-3.9961,-3.954,-3.9415,-3.9422,-3.9395,-3.9315,-3.9315,-3.9315,-3.9315,-3.9315,-3.9315,-3.9315,-3.9315,-3.8984,-3.8434,-3.8472,-3.791,-3.7045,-3.7104,-3.7085,-3.711,-3.7894,-3.7945,-3.766,-3.779,-3.7709,-3.75,-3.7201,-3.7201,-3.7168,-3.6274,-3.6208,-3.5644,-3.1636,-3.1217,0.0,0.0,0.0,0.0,0.0,0.0,0.0,0.0,-3.2497,-3.3733,-3.4651,-3.5876,-3.7433,-3.9466,-4.0646,-4.2278,-4.5324,-4.6764,-4.8093,-4.9722,-5.0591,-5.116,-5.1362,-5.1665,-5.2001,-5.2436,-5.2977,-5.3349,-5.345,-5.3315,-5.3213,-5.3144,-5.2972,-5.2065,-5.0226,-5.2,-5.2134,-5.0259,-5.2404,-5.3517,-5.355,-5.4175,-5.4494,-5.4623,-5.5497,-5.5935,-5.6067,-5.8008,-5.8963,-5.9267,-6.0653,-6.1357,-6.1623,-6.1623,-6.1666,-6.1803,-6.1772,-6.1792,-6.1848,-1.5219,-1.5402,-1.5403,-1.5389,-1.5389,-1.5389,-1.5391,-1.5389,-1.6953,-2.1221,-2.0981,-2.1975,-2.6202,-2.5647,-2.47,-2.4008,-2.7005,-3.0095,-3.2735,-3.5632,-3.8591,-4.169,-4.1093,-4.0456,-3.9833,-3.9807,-3.9651,-3.9315,-3.9315,-3.9315,-3.9315,-3.9315,-3.9315,-3.9315,-3.9315,-3.9249,-3.9183,-3.9169,-3.9102,-3.897,-3.8983,-3.8983,-3.9003,-3.9082,-3.8718,-3.8216,-3.8871,-3.9063,-3.8851,-3.7533,-3.7566,-3.7805,-3.6439,-3.6903,-3.7466,-3.5015,-3.3922,-3.2895,-2.988,-2.8787,-2.8807,-3.0059,-3.2431,-3.5081,0.0,-3.9288,-4.0685,-4.2075,-4.3032,-4.4029,-4.5428,-4.6415,-4.7371,-4.8233,-4.8923,-4.9679,-5.0742,-5.0942,-5.1416,-5.2534,-5.2303,-5.2337,-5.3011,-5.3416,-5.3584,-5.345,-5.3416,-5.3247,-5.2938,-5.2903,-5.2941,-5.2977,-5.3214,-5.3315,-5.3211,-5.368,-5.3979,-5.4141,-5.4173,-5.4494,-5.493,-5.4942,-5.5008,-5.5262,-5.7409,-5.8923,-5.9899,-6.1064,-6.1595,-6.1623,-6.1623,-6.199,-6.25,-6.1875,-6.1708,-6.1784,-1.5273,-1.5338,-1.534,-1.533,-1.5321,-1.5358,-1.5381,-1.5414,-1.6397,-1.9216,-1.9159,-1.9926,-2.2621,-2.1529,-2.0228,-1.9346,-2.4142,-2.8417,-3.1147,-3.5799,-3.957,-4.2078,-4.1538,-4.0955,-4.048,-4.0186,-3.9893,-3.9625,-3.9282,-3.9175,-3.9315,-3.9315,-3.9315,-3.9315,-3.9315,-3.9315,-3.9315,-3.9315,-3.9315,-3.9315,-3.9315,-3.9315,-3.9315,-3.9315,-3.9116,-3.8758,-3.8228,-3.7731,0.0,-3.7168,-3.6738,-3.6406,-3.7069,-3.6837,-3.6108,-3.5181,-3.4386,-3.3789,-3.3889,-3.329,-3.3123,-3.497,-3.7015,-3.889,-4.0111,-4.1224,-4.2411,-4.3809,-4.4306,-4.5065,-4.6881,-4.7041,-4.7665,-4.999,-5.0058,-5.0292,-5.1888,-5.2088,-5.2292,-5.2835,-5.1732,-5.1119,-5.152,-5.2837,-5.314,-5.1753,-5.2672,-5.3315,-5.3382,-5.3076,-5.3076,-5.3416,-5.3416,-5.345,-5.3517,-5.3849,-5.4045,-5.411,-5.4271,-5.4494,-5.4714,-5.4655,-5.5081,-5.6024,-5.7599,-5.8905,-5.9987,-6.0919,-6.1586,-6.2015,-6.2015,-6.2599,-6.335,-6.273,-6.2843,-6.3362,-1.5326,-1.5311,-1.5313,-1.5293,-1.5262,-1.5297,-1.5397,-1.5392,-1.5907,-1.7457,-1.7656,-1.8079,-1.9269,-1.7951,-1.6683,-1.6048,-2.1658,-2.6505,-2.9437,-3.5287,-3.9677,-4.2011,-4.1878,-4.1433,-4.0814,-4.0548,-4.0256,-3.9833,-3.9387,-3.9282,-3.9441,-3.9282,-3.9228,-3.9315,-3.9315,-3.9315,-3.9315,-3.9315,-3.9183,-3.9017,-3.9017,-3.9017,-3.9017,-3.9017,-3.8619,-3.7989,-3.7102,-3.634,-3.5611,-3.5124,-3.4769,-3.4703,-3.5497,-3.5199,-3.4537,-3.4584,-3.3922,-3.3545,-3.5283,-3.558,-3.5941,-3.8366,-4.0372,-4.1785,-4.1983,-4.2664,-4.3583,-4.4711,-4.5107,-4.5764,-4.7605,-4.7671,-4.833,-5.1057,-5.0961,-5.1095,-5.2669,-5.2903,-5.2669,-5.2134,-5.092,-4.9752,-4.8711,-5.1225,-5.2486,-5.1466,-5.2635,-5.3484,-5.3617,-5.3247,-5.3179,-5.355,-5.3583,-5.3617,-5.3716,-5.4013,-5.4143,-5.4143,-5.4367,-5.4494,-5.4494,-5.4589,-5.527,-5.6499,-5.7724,-5.8798,-5.9637,-6.0665,-6.1474,-6.2099,-6.2485,-6.3206,-6.4029,-6.4266,-6.4483,-6.4685,-1.5324,-1.5295,-1.5282,-1.5305,-1.525,-1.5243,-1.5393,-1.534,-1.5652,-1.6627,-1.6754,-1.6757,-1.681,-1.5959,-1.5323,-1.5232,-2.0364,-2.481,-2.7775,-3.3973,-3.8789,-4.1485,-4.2277,-4.2,-4.0539,-4.106,-4.0803,-3.9606,-3.9598,-3.9696,-3.9858,-3.9282,-3.9121,-3.9315,-3.9315,-3.9315,-3.9315,-3.9315,-3.8917,-3.8202,-3.8202,-3.8202,-3.8202,-3.8202,-3.6903,-3.5114,-3.5777,-3.5545,-3.4362,-3.0768,-3.1352,-3.3166,-3.0504,-3.1506,-3.366,-3.3799,-3.2761,-3.1693,-3.2282,-3.3481,-3.5218,-3.8106,-4.0954,-4.3246,-4.3966,-4.4686,-4.5439,-4.616,-4.688,-4.7567,-4.8322,-4.9774,-5.1008,-5.1424,-5.1918,-5.2383,-5.2834,-5.2903,-5.2134,-5.0118,-5.02,-4.8745,-4.4517,-4.8277,-5.1806,-5.3739,-5.3946,-5.3816,-5.3416,-5.3382,-5.3583,-5.398,-5.398,-5.4143,-5.4463,-5.4463,-5.4463,-5.4463,-5.4529,-5.4494,-5.4494,-5.4838,-5.5324,-5.6014,-5.7629,-5.8478,-5.8852,-6.0451,-6.127,-6.1651,-6.2903,-6.3766,-6.4601,-6.6553,-6.6402,-6.5248,-1.528,-1.5304,-1.5491,-1.6079,-1.6126,-1.628,-1.6971,-1.6076,-1.5426,-1.5745,-1.632,0.0,0.0,0.0,0.0,0.0,-1.9592,-2.2785,-2.6291,-3.153,-3.5786,-3.8672,-4.1013,-4.194,-4.1232,-4.1547,-4.1476,-4.0981,-4.0653,-4.0309,-3.9944,-3.9868,-3.9506,-3.8985,-3.9202,-3.9228,-3.9121,-3.9228,-3.8831,-3.8064,-3.8064,-3.8064,-3.8064,-3.8273,-3.6654,-3.416,0.0,-3.1399,-2.9648,-2.8292,-2.8814,-3.01,-3.0585,-3.0366,-2.9851,-2.9432,-3.0936,-3.3004,-3.4193,-3.6163,-3.8465,-4.0906,-4.2961,-4.456,-4.5277,-4.6192,-4.7046,-4.7667,-4.7441,-4.7176,-4.7342,-4.7398,-4.8006,-4.9738,-4.9333,-4.9905,-5.3143,-5.0881,-4.9706,-5.1998,-4.976,-4.8629,-5.0243,-5.0564,-5.0412,-4.9752,-5.224,-5.3915,-5.4143,-5.3913,-5.398,-5.4303,-5.4335,-5.4367,-5.4494,-5.4494,-5.4494,-5.4494,-5.4714,-5.4838,-5.4838,-5.5348,-5.57,-5.6007,-5.7768,-5.8623,-5.8845,-6.0648,-6.1916,-6.2822,-6.344,-6.4437,-6.5668,-6.6895,-6.7379,-6.7459,0.0,-1.5751,-1.6017,-1.6899,-1.6999,0.0,0.0,0.0,0.0,0.0,0.0,0.0,0.0,0.0,0.0,0.0,0.0,-2.1297,-2.4746,-2.84,-3.199,-3.5495,-3.7253,-3.8158,-3.8234,-3.9118,-3.9549,-3.9428,-4.0267,-4.0643,-4.0625,-4.0494,-4.0177,-3.9672,-3.974,-3.9688,-3.9636,-3.9592,-3.9254,-3.8676,-3.7586,-3.7128,-3.7053,-3.6109,-3.3773,0.0,-2.9403,-2.7255,-2.5046,-2.4776,-2.5691,-2.7085,-2.7932,-2.8161,-2.8161,-2.8629,-3.0751,-3.3573,-3.6267,-3.8246,-4.0277,-4.3521,-4.5016,-4.596,-4.7004,-4.7531,-4.7927,-4.8351,-4.7866,-4.7045,-4.6088,-4.6134,-4.68,-4.8348,-4.8351,-4.9494,-5.3208,-5.1217,-5.0077,-5.203,-4.9729,-4.8843,-5.1102,-5.0757,-4.9922,-4.8723,-5.1353,-5.309,-5.3194,-5.3247,-5.3658,-5.4463,-5.4494,-5.4494,-5.4494,-5.4494,-5.4494,-5.4494,-5.4714,-5.4961,-5.5204,-5.559,-5.5504,-5.5256,-5.7669,-5.8581,-5.8633,-6.0827,-6.2566,-6.3847,-6.4274,-6.5001,-6.5951,-6.7112,-6.792,-6.8603,0.0,0.0,-1.6899,0.0,0.0,0.0,0.0,0.0,0.0,0.0,0.0,0.0,0.0,0.0,0.0,0.0,0.0,0.0,-2.301,-2.4738,-2.754,-3.1924,-3.1492,-3.1459,-3.2154,-3.4222,-3.5297,-3.5297,-3.8428,-4.0391,-4.1194,-4.0755,-4.0607,-4.072,-4.0411,-4.0281,-4.0294,-3.9904,-3.9681,-3.9377,-3.6512,-3.5307,-3.4969,-3.207,-2.8713,-2.5511,-2.5494,-2.3617,-2.1043,-2.0638,-2.241,-2.4593,-2.3422,-2.547,-2.8776,-3.1199,-3.2219,-3.3551,-3.8205,-3.9573,-4.0901,-4.5694,-4.6925,-4.7415,-4.889,-4.8621,-4.8064,-4.8079,-4.7909,-4.6968,-4.4355,-4.5663,-4.7109,-4.7049,-4.8723,-5.0727,-5.2741,-5.3378,-5.2773,-5.0373,-5.0132,-4.9447,-4.7563,-4.9172,-5.0453,-5.069,-5.1446,-5.1679,-5.1077,-5.173,-5.2857,-5.446,-5.4494,-5.4494,-5.4494,-5.4494,-5.4494,-5.4494,-5.4526,-5.4869,-5.5502,-5.5566,-5.4994,-5.4125,-5.7369,-5.8554,-5.8398,-6.1126,-6.3186,-6.4644,-6.5286,-6.5443,-6.5514,-6.7195,-6.8105,-6.8583,0.0,0.0,0.0,0.0,0.0,0.0,0.0,0.0,0.0,0.0,0.0,0.0,0.0,0.0,0.0,0.0,0.0,0.0,-1.9143,-2.17,-2.4241,-2.6595,-2.9071,-3.0747,-3.1514,-3.3154,-3.3994,-3.3994,-3.4814,-3.5058,-3.4693,-3.5328,-3.5138,-3.4393,-3.5108,-3.5275,-3.498,-3.4992,-3.4307,-3.3088,-3.2349,-3.1691,-3.112,-3.0543,-2.8384,-2.5673,-2.5718,-2.3794,-2.1291,-2.1563,-2.4297,-2.7925,-2.9934,-3.1582,-3.2603,-3.1825,-3.4314,-3.7551,-3.8423,-4.1355,-4.4625,-4.6439,-4.7702,-4.8447,-4.8356,-4.8654,-4.8239,-4.5636,-4.4675,-4.3053,-3.9089,-3.9587,-4.1291,-4.3373,-4.4955,-4.7071,-5.0415,-4.9983,-4.9505,-5.0028,-5.0533,-5.1279,-5.2379,-5.3428,-5.338,-5.1752,-5.2774,-5.3428,-5.335,-5.3679,-5.4052,-5.4494,-5.4494,-5.4494,-5.4494,-5.4494,-5.4494,-5.4529,-5.5022,-5.5324,-5.5537,-5.6567,-5.7135,-5.7319,-5.933,-6.0441,-6.0956,-6.2469,-6.3609,-6.4441,-6.4821,-6.5148,-6.552,-6.6612,-6.7452,-6.8188,0.0,0.0,0.0,0.0,0.0,0.0,0.0,0.0,0.0,0.0,0.0,0.0,0.0,0.0,0.0,0.0,0.0,0.0,0.0,-1.9007,-2.0571,-2.2476,-2.4124,-2.55,-2.6497,-2.836,-2.9668,-3.0292,-3.1342,-3.1982,-3.2275,-3.248,-3.2227,-3.162,-3.202,-3.2083,-3.1913,-3.2095,-3.1808,0.0,0.0,-2.9505,-2.8996,-2.7794,-2.5915,-2.3964,-2.433,-2.4164,-2.4111,-2.6467,-2.8223,-3.0049,-3.3493,-3.4678,-3.4981,-3.5714,-3.7871,-4.0282,-4.1482,-4.4255,-4.6979,-4.7901,-4.8818,-4.9073,-4.7537,-4.7075,-4.5995,-4.2528,-4.1295,-3.9621,-3.5589,-3.6824,-3.915,-4.13,-4.4155,-4.6983,-4.9401,-4.955,-4.9708,-5.0427,-5.0896,-5.2087,-5.4618,-5.5159,-5.4869,-5.3598,-5.3385,-5.3229,-5.3069,-5.3291,-5.3742,-5.4494,-5.4494,-5.4494,-5.4494,-5.4494,-5.4557,-5.4714,-5.5462,-5.5969,-5.6235,-5.7362,-5.7834,-5.78,-5.9806,-6.1005,-6.1604,-6.3093,-6.4304,-6.5212,-6.5099,-6.522,-6.5452,-6.5948,-6.6865,-6.7973,0.0,0.0,0.0,0.0,0.0,0.0,0.0,0.0,0.0,0.0,0.0,-1.9211,0.0,0.0,0.0,0.0,0.0,0.0,0.0,0.0,-1.7512,-1.9615,-1.9049,-1.9236,-2.0433,-2.2603,-2.4346,-2.5608,-2.7671,-2.9386,-3.0776,-3.0196,-2.9932,-2.9909,-2.954,-2.9423,-2.9503,-2.9617,-3.0093,-3.056,-2.8504,-2.7659,-2.7398,0.0,-2.288,-2.1905,-2.2721,-2.4766,-2.7742,-3.2391,-3.2815,-3.2062,-3.5941,-3.6878,-3.7276,-4.0769,-4.1799,-4.2456,-4.531,-4.7056,-4.8361,-4.955,-5.0025,-4.9526,-4.7185,-4.5256,-4.2984,-3.9506,-3.8051,-3.653,-3.3549,-3.6038,-3.9006,-4.0466,-4.4888,-4.8249,-4.8465,-5.0369,-5.1416,-5.0725,-5.1054,-5.2457,-5.5244,-5.5337,-5.5331,-5.5629,-5.3993,-5.2712,-5.2199,-5.2329,-5.3053,-5.446,-5.4494,-5.4494,-5.4494,-5.4494,-5.4721,-5.5196,-5.5977,-5.6696,-5.731,-5.8259,-5.8256,-5.7557,-6.0051,-6.1298,-6.1735,-6.3516,-6.5029,-6.6222,-6.5604,-6.5398,-6.5398,-6.5383,-6.643,-6.7881,0.0,0.0,0.0,0.0,0.0,0.0,0.0,0.0,0.0,0.0,-2.0935,-1.9213,0.0,0.0,0.0,0.0,0.0,0.0,0.0,0.0,0.0,-1.91,-1.9409,-1.9957,-2.0814,-2.1753,-2.2362,-2.2483,-2.2987,-2.3327,-2.3446,-2.4032,-2.4085,-2.3778,-2.4385,-2.4511,-2.42,-2.4238,-2.439,-2.4576,-2.4018,-2.3871,-2.3933,-2.3241,0.0,0.0,-2.4356,-2.6105,-2.8459,-3.2674,-3.4939,-3.6728,-4.0879,-4.2442,-4.2755,-4.2757,-4.3951,-4.5297,-4.5549,-4.7056,-4.891,-5.0351,-5.0592,-5.0292,-4.9506,-4.6413,-4.2593,-3.852,-3.5736,-3.3802,-3.3068,-3.5206,-3.8098,-4.1308,-4.4648,-4.627,-4.4644,-4.8845,-5.1164,-4.8592,-5.0934,-5.3648,-5.5913,-5.5026,-5.5026,-5.6773,-5.6286,-5.5628,-5.508,-5.4793,-5.4587,-5.4494,-5.4494,-5.4494,-5.4494,-5.4494,-5.4994,-5.5993,-5.6805,-5.7519,-5.8155,-6.0059,-6.087,-6.0799,-6.2507,-6.363,-6.4291,-6.4751,-6.5161,-6.5559,-6.5359,-6.5305,-6.5305,-6.528,-6.6325,-6.7839,0.0,0.0,0.0,0.0,0.0,0.0,0.0,-2.0908,-2.1778,-2.5725,-2.4841,-2.3184,-2.1445,-2.0806,-2.0162,0.0,0.0,0.0,0.0,0.0,0.0,0.0,0.0,0.0,-1.9657,-2.032,-2.0823,0.0,0.0,-2.0727,-2.1073,-2.1036,-2.0897,-2.0639,-2.097,-2.116,-2.1254,-2.1557,-2.2012,-2.2481,-2.2838,-2.3003,-2.3077,0.0,0.0,0.0,-2.5289,-2.6959,-2.8877,-3.153,-3.4495,-3.7762,-4.1591,-4.3479,-4.4069,-4.2812,-4.449,-4.6498,-4.5712,-4.7938,-5.0564,-5.0708,-5.1073,-5.0243,-4.5636,-4.2834,-3.9528,-3.3549,-3.1361,-3.041,-2.9917,-3.2129,-3.5401,-3.9569,-4.3434,-4.6071,-4.6459,-4.9699,-5.1605,-5.0576,-5.1971,-5.3593,-5.5018,-5.4499,-5.4522,-5.5508,-5.5424,-5.5571,-5.6193,-5.5865,-5.5437,-5.4865,-5.4926,-5.4987,-5.4987,-5.537,-5.6174,-5.7306,-5.8509,-5.9421,-6.0015,-6.1467,-6.2278,-6.26,-6.3423,-6.328,-6.2523,-6.4317,-6.417,-6.3019,-6.4628,-6.5264,-6.5226,-6.5232,-6.6026,-6.7136,0.0,0.0,0.0,0.0,0.0,0.0,0.0,-2.2392,-2.362,-2.8974,-2.9221,-2.7774,-2.4804,-2.276,-2.1056,0.0,0.0,0.0,0.0,0.0,0.0,0.0,0.0,0.0,0.0,0.0,0.0,0.0,0.0,0.0,0.0,0.0,0.0,0.0,-1.9502,-1.9704,-2.0058,-2.0547,-2.124,0.0,0.0,-2.3256,0.0,0.0,0.0,0.0,0.0,-2.7464,-2.8946,-3.0465,-3.3248,-3.668,-4.0066,-4.2356,-4.3613,-4.292,-4.4621,-4.6667,-4.6393,-4.8903,-5.1453,-5.099,-5.1315,-4.9878,-4.2403,-3.9737,-3.6887,-2.992,-2.815,-2.7878,-2.8064,-3.0056,-3.3285,-3.8219,-4.1669,-4.4913,-4.8306,-5.0044,-5.145,-5.2849,-5.3135,-5.3637,-5.4645,-5.4389,-5.4291,-5.4717,-5.4753,-5.5327,-5.6528,-5.6374,-5.6021,-5.5618,-5.5707,-5.5836,-5.6012,-5.6699,-5.7633,-5.8782,-6.0207,-6.1182,-6.1765,-6.2597,-6.3168,-6.3513,-6.3841,-6.2487,-6.0372,-6.3664,-6.3262,-6.0807,-6.393,-6.5144,-6.5182,-6.5149,-6.571,-6.6461,0.0,0.0,0.0,0.0,0.0,0.0,0.0,-2.5547,-2.815,-3.4293,-3.3039,-3.0893,-2.9179,-2.6754,-2.3927,0.0,0.0,0.0,0.0,0.0,0.0,0.0,0.0,0.0,0.0,0.0,0.0,0.0,0.0,0.0,0.0,0.0,0.0,0.0,0.0,0.0,-2.1084,-2.1185,0.0,0.0,0.0,0.0,0.0,0.0,0.0,0.0,0.0,-2.7513,-2.8478,-3.0576,-3.2126,-3.3714,-3.6783,-3.9705,-4.2405,-4.4343,-4.5067,-4.5735,-4.8266,-4.9256,-4.991,-5.1326,-5.1109,-4.9465,-4.5262,-4.1371,-3.7244,-3.2342,-2.9023,-2.7946,-3.1046,-3.1864,-3.3946,-3.9651,-3.9378,-4.0351,-4.5976,-4.7582,-4.9386,-5.2609,-5.3586,-5.4779,-5.6725,-5.5215,-5.4886,-5.6762,-5.6921,-5.6814,-5.6626,-5.6608,-5.6742,-5.6927,-5.6927,-5.7281,-5.8019,-5.8345,-5.9099,-6.0314,-6.1076,-6.1851,-6.261,-6.3408,-6.3683,-6.3535,-6.4209,-6.2841,-6.0354,-6.3772,-6.3331,-6.0807,-6.3844,-6.5006,-6.4989,-6.4941,-6.5507,-6.6315,0.0,0.0,0.0,0.0,0.0,0.0,-2.5393,-2.6343,-2.9016,-3.5659,-3.5668,-3.4393,-3.2805,-3.0312,-2.6559,-2.0989,0.0,0.0,0.0,0.0,0.0,0.0,0.0,0.0,0.0,0.0,0.0,-2.0461,0.0,0.0,0.0,0.0,0.0,0.0,0.0,0.0,0.0,0.0,0.0,0.0,0.0,0.0,0.0,0.0,0.0,0.0,0.0,0.0,-2.8514,-2.924,-3.0492,-3.1909,-3.3142,-3.5319,-3.788,-4.0046,-4.3115,-4.5768,-4.5648,-4.8223,-5.099,-5.1212,-5.0706,-4.86,-4.2544,-3.9286,-3.5867,-3.0055,-2.7827,-2.7486,-2.9437,-2.9713,-3.1355,-3.6716,-3.7239,-3.9441,-4.6575,-4.8687,-5.082,-5.4384,-5.5491,-5.58,-5.5374,-5.4584,-5.4424,-5.5276,-5.5338,-5.6037,-5.7582,-5.7784,-5.7736,-5.7489,-5.8009,-5.8458,-5.878,-5.9545,-6.0392,-6.1397,-6.2324,-6.2988,-6.3422,-6.3727,-6.3851,-6.3771,-6.4309,-6.1704,-5.7528,-6.2878,-6.2104,-5.8045,-6.3009,-6.4941,-6.4941,-6.4906,-6.5169,-6.5538,0.0,0.0,0.0,0.0,0.0,-2.223,-2.6308,-2.7417,-2.9924,-3.5877,-3.6476,-3.5792,-3.4402,-3.1521,-2.7617,-2.2492,-2.1027,0.0,0.0,0.0,0.0,0.0,0.0,0.0,0.0,0.0,-2.1495,-2.1748,-2.2248,-2.248,0.0,0.0,0.0,0.0,0.0,0.0,0.0,0.0,0.0,0.0,0.0,0.0,0.0,0.0,0.0,0.0,0.0,0.0,0.0,0.0,0.0,-3.0314,-3.0581,-3.1981,-3.4073,-3.6863,-4.1143,-4.4894,-4.4276,-4.7596,-5.1134,-5.0608,-4.9802,-4.7272,-4.0085,-3.7394,-3.4596,-2.8288,-2.7006,-2.721,-2.7774,-2.8014,-2.9678,-3.4364,-3.5993,-3.9111,-4.6087,-4.8175,-5.045,-5.4314,-5.5266,-5.5455,-5.5045,-5.5045,-5.5045,-5.5045,-5.5045,-5.5893,-5.7923,-5.8569,-5.8828,-5.8646,-5.9267,-5.9718,-5.997,-6.0854,-6.1663,-6.2298,-6.3169,-6.326,-6.2662,-6.3451,-6.3398,-6.279,-6.3931,-6.1416,-5.7007,-6.2654,-6.1807,-5.7489,-6.2804,-6.4888,-6.4888,-6.4888,-6.4958,-6.504,0.0,0.0,0.0,0.0,0.0,0.0,-2.7315,-2.928,-3.1656,-3.534,-3.5048,-3.4231,-3.3471,-2.9609,-2.6641,-2.5742,-2.2427,0.0,0.0,0.0,0.0,0.0,0.0,0.0,0.0,0.0,-2.268,-2.3476,-2.3416,-2.3424,-2.3513,-2.4153,-2.4066,0.0,0.0,0.0,0.0,0.0,0.0,0.0,0.0,0.0,-2.8538,0.0,0.0,0.0,0.0,0.0,0.0,0.0,0.0,0.0,0.0,-3.0364,-3.1888,-3.6307,-3.9708,-4.2674,-4.5505,-4.7863,-4.9528,-4.9528,-4.8321,-4.5461,-3.9071,-3.6512,-3.3909,-2.8168,-2.7149,-2.721,-2.6959,-2.7769,-2.9744,-3.3578,-3.582,-3.8748,-4.3482,-4.4776,-4.6873,-5.1345,-5.186,-5.3264,-5.6812,-5.7188,-5.7188,-5.7188,-5.7188,-5.7188,-5.7224,-5.8709,-5.9977,-6.0747,-6.0783,-6.1145,-6.1942,-6.25,-6.2855,-6.2965,-6.3382,-6.2198,-5.9752,-6.2383,-6.2256,-6.0112,-6.2943,-6.2626,-6.0314,-6.3557,-6.303,-6.0471,-6.365,-6.4888,-6.4888,-6.4888,-6.4972,-6.5085,0.0,0.0,0.0,0.0,0.0,0.0,0.0,-2.6283,-2.8314,-3.1852,-3.1554,-3.1393,-3.2417,-2.8669,-2.6249,-2.6562,-2.278,0.0,0.0,0.0,0.0,0.0,0.0,0.0,0.0,0.0,-2.437,-2.528,-2.6301,-2.6797,-2.68,-2.7017,-2.6329,-2.4972,-2.5215,0.0,0.0,0.0,0.0,0.0,0.0,-2.8531,-2.8785,0.0,0.0,0.0,0.0,0.0,0.0,0.0,0.0,0.0,0.0,0.0,0.0,-3.2516,-3.6304,-4.0,-4.0651,-4.2831,-4.4786,-4.426,-4.3232,-4.1161,-3.6435,-3.4727,-3.2879,-2.846,-2.7384,-2.7382,-2.7951,-2.7813,-2.9435,-3.5014,-3.6104,-3.8797,-4.5967,-4.808,-5.014,-5.3532,-5.4844,-5.5941,-5.7116,-5.5934,-5.5667,-5.7091,-5.5872,-5.5955,-5.7887,-5.8492,-5.9144,-5.9977,-6.1064,-6.1833,-6.2275,-6.2603,-6.2904,-6.3123,-6.3465,-6.2108,-5.9485,-6.2316,-6.2146,-5.9881,-6.2882,-6.2608,-6.0277,-6.3557,-6.3103,-6.0698,-6.3775,-6.5027,-6.5133,-6.521,-6.5258,-6.5258,0.0,0.0,0.0,0.0,0.0,0.0,0.0,-2.4428,-2.5934,-2.8462,-2.8002,-2.8308,-3.0424,-2.683,-2.4996,-2.6836,-2.3298,0.0,0.0,0.0,0.0,0.0,0.0,0.0,0.0,-2.4166,-2.5618,-2.7387,-2.8633,-2.9391,-2.965,-3.0255,-2.9133,-2.6674,-2.6953,-2.647,0.0,0.0,0.0,0.0,-2.8691,-2.8917,-2.8846,0.0,0.0,0.0,0.0,0.0,0.0,0.0,0.0,0.0,0.0,0.0,0.0,0.0,-3.3109,-3.623,-3.7717,-4.0288,-4.2353,-4.1511,-4.0383,-3.8523,-3.491,-3.3407,-3.1851,-2.8488,-2.8644,-2.9164,-2.8406,-2.9133,-3.0882,-3.4084,-3.655,-3.9802,-4.4684,-4.7352,-4.972,-5.2101,-5.4472,-5.621,-5.7116,-5.6031,-5.58,-5.7091,-5.5995,-5.6052,-5.7851,-5.8239,-5.8637,-5.9144,-6.0412,-6.1234,-6.1496,-6.1775,-6.2193,-6.2751,-6.302,-6.1804,-5.9407,-6.2271,-6.2168,-5.9865,-6.2902,-6.331,0.0,-6.408,-6.3886,-6.2452,-6.4327,-6.5128,-6.5232,-6.5352,-6.5413,-6.5429,0.0,0.0,0.0,0.0,0.0,0.0,0.0,-2.348,-2.4374,-2.5287,-2.4669,-2.5054,-2.7569,-2.4247,-2.3118,-2.6367,0.0,0.0,0.0,0.0,0.0,0.0,0.0,0.0,0.0,-2.4544,-2.6476,-2.9511,-3.042,-3.1305,-3.2195,-3.3743,-3.2318,-2.849,-2.9231,-2.8616,-2.7018,0.0,0.0,0.0,-2.8867,-2.9055,0.0,0.0,0.0,0.0,0.0,0.0,0.0,0.0,0.0,0.0,0.0,0.0,0.0,0.0,0.0,0.0,0.0,-3.9239,-4.1146,-4.0278,-3.8903,-3.7007,-3.4076,-3.2423,0.0,-2.8647,-3.0751,-3.2036,-2.882,-3.1647,-3.3843,-3.1858,-3.7327,-4.1552,-4.0925,-4.4021,-4.6892,-4.8335,-5.1752,-5.4762,-5.6826,-5.7152,-5.7188,-5.7188,-5.7188,-5.7188,-5.7188,-5.7913,-5.8311,-5.8311,-5.9035,-5.96,-6.0001,-6.0274,-6.0832,-6.1731,-6.2153,-6.1137,-5.9039,-6.2145,-6.2203,-5.9963,-6.2888,-6.4483,-6.5006,-6.4951,-6.5002,-6.5215,-6.5215,-6.5215,-6.5248,-6.5383,-6.5494,-6.5608,0.0,0.0,0.0,0.0,0.0,0.0,0.0,0.0,0.0,0.0,-2.2838,-2.259,-2.3305,-2.1901,-2.1477,0.0,0.0,0.0,0.0,0.0,0.0,0.0,0.0,0.0,0.0,-2.5671,-2.7692,-2.971,-3.2281,-3.3971,-3.4841,-3.641,-3.4908,-3.0968,-3.1143,-2.9954,-2.7836,-2.8021,0.0,0.0,-2.9169,-2.9178,0.0,0.0,0.0,0.0,-2.8637,-2.9011,0.0,0.0,0.0,0.0,0.0,0.0,0.0,0.0,-2.9445,-3.0314,-3.1382,0.0,-3.3887,-3.3125,-3.2822,-3.2299,0.0,-3.0513,-3.096,-3.1894,-3.2517,-3.3037,-3.3437,-3.5378,-3.6737,-3.6221,-3.9788,-4.297,-4.4041,-4.807,-5.0882,-5.0629,-5.4026,-5.6138,-5.5486,-5.65,-5.7188,-5.7188,-5.7188,-5.7188,-5.7188,-5.7369,-5.7478,-5.7478,-5.7659,-5.8475,-5.999,-6.0262,-5.9987,-5.9206,-6.0744,-5.9397,-5.5705,-6.0651,-6.15,-5.9209,-6.2221,-6.412,-6.509,-6.4255,-6.4453,-6.5258,-6.5232,-6.5242,-6.5398,-6.5635,-6.5703,-6.5703,0.0,0.0,0.0,0.0,0.0,0.0,0.0,0.0,0.0,0.0,0.0,0.0,0.0,0.0,0.0,0.0,0.0,0.0,0.0,0.0,0.0,0.0,0.0,0.0,-2.3645,-2.5686,-2.806,-3.0712,-3.3176,-3.5355,-3.7292,-3.8532,-3.6892,-3.2853,-3.1366,-2.9954,-2.869,-2.869,-2.8971,-2.939,-2.9307,0.0,0.0,0.0,0.0,0.0,-2.8712,-2.8953,0.0,-3.0025,-3.0604,-3.0894,0.0,0.0,0.0,0.0,-2.8889,-2.9264,-2.9264,-3.0806,-3.2526,-3.2834,-3.2501,-3.205,-3.1784,-3.0901,-3.0621,-3.2481,-3.3021,-3.342,-3.4263,-3.6043,-3.7375,-3.7375,-4.0185,-4.3425,-4.654,-5.0162,-5.2045,-5.0886,-5.3277,-5.487,-5.4399,-5.6066,-5.7188,-5.7188,-5.7188,-5.7188,-5.7188,-5.7188,-5.7188,-5.7188,-5.7188,-5.7824,-5.9067,-5.921,-5.8841,-5.7952,-5.9748,-5.9112,-5.6515,-6.0431,-6.1479,-6.0265,-6.1205,-6.2735,-6.4498,-6.3078,-6.36,-6.5264,-6.5232,-6.5226,-6.5352,-6.5649,-6.5743,-6.5743,0.0,0.0,0.0,0.0,0.0,0.0,0.0,0.0,0.0,0.0,0.0,0.0,0.0,0.0,0.0,0.0,0.0,0.0,0.0,0.0,0.0,0.0,0.0,0.0,-2.3983,-2.5473,-2.8035,-3.1637,-3.367,-3.6123,-3.8948,-4.0323,-3.8674,-3.4439,-3.1329,-2.9731,-2.9396,-2.9396,-2.9396,-2.9396,-2.9396,0.0,0.0,0.0,0.0,0.0,0.0,0.0,0.0,-3.1003,-3.1437,-3.1234,-3.1546,0.0,0.0,0.0,0.0,0.0,-2.8889,-3.1206,-3.3864,-3.4987,-3.4154,-3.3248,-3.4045,-3.1836,-3.0278,-3.2632,-3.3632,-3.432,-3.4914,-3.7087,-3.8589,-3.7828,-4.0383,-4.3985,-4.8438,-5.1176,-5.2082,-5.0452,-5.2009,-5.3385,-5.3856,-5.5884,-5.7188,-5.7188,-5.7188,-5.7261,-5.7369,-5.7369,-5.7442,-5.755,-5.7442,-5.7692,-5.8364,-5.8107,-5.7744,-5.7262,-5.8937,-5.9292,-5.8628,-6.0556,-6.1656,-6.1845,-6.0463,-6.1363,-6.36,-6.1912,-6.2667,-6.4851,-6.4965,-6.5057,-6.5121,-6.5556,-6.5717,-6.5744,0.0,0.0,0.0,0.0,0.0,0.0,0.0,0.0,0.0,0.0,0.0,0.0,0.0,0.0,0.0,0.0,0.0,0.0,0.0,0.0,0.0,0.0,0.0,0.0,0.0,0.0,-2.8344,-3.0857,-3.4549,-3.6967,-3.8234,-4.1787,-4.0903,-3.6197,-3.3596,-3.1329,-2.9396,-2.9396,-2.9396,-2.9396,-2.9396,0.0,0.0,0.0,0.0,0.0,0.0,0.0,0.0,-2.929,-3.0423,-3.1691,-2.9758,0.0,0.0,0.0,0.0,0.0,-3.0242,-3.2488,-3.4154,-3.3031,-3.2053,-3.1582,-3.2379,-3.0564,-3.032,-3.6109,-3.7327,-3.8432,-4.1832,-4.4983,-4.5723,-4.1632,-4.3679,-4.6757,-4.951,-5.1973,-5.2915,-5.1285,-5.4291,-5.5993,-5.4834,-5.621,-5.7188,-5.7188,-5.7188,-5.7478,-5.8166,-5.8202,-5.8528,-5.9216,-5.8565,-5.8783,-6.0015,-5.8694,-5.7398,-5.6182,-5.8,-5.8516,-5.7893,-5.9947,-6.1317,-6.21,-6.143,-6.185,-6.291,-6.1811,-6.2055,-6.3253,-6.3939,-6.4283,-6.4547,-6.5381,-6.5756,-6.5832,0.0,0.0,0.0,0.0,0.0,0.0,0.0,0.0,0.0,0.0,0.0,0.0,0.0,0.0,0.0,0.0,0.0,0.0,0.0,0.0,0.0,0.0,0.0,0.0,0.0,0.0,-3.1073,-3.3308,-3.647,-3.8873,-4.0574,-4.0211,-3.8599,-3.59,-3.2555,-3.0437,-2.9396,-2.9396,-2.9396,-2.9396,0.0,0.0,0.0,0.0,0.0,0.0,0.0,0.0,0.0,0.0,-3.0998,-3.1944,-3.0387,0.0,0.0,0.0,0.0,0.0,-2.9479,-3.1446,-3.3582,-3.4739,-3.4942,-3.5546,-3.8065,-3.5426,-3.4,-3.9586,-3.8338,-3.7544,-4.1994,-4.366,-4.4637,-4.547,-4.9003,-5.1719,-5.2009,-5.3711,-5.4363,-5.277,-5.4943,-5.5957,-5.4399,-5.6029,-5.7369,-5.7804,-5.784,-5.8202,-5.8999,-5.9072,-5.9216,-5.9615,-5.9372,-5.9625,-6.0382,-5.9826,-5.8792,-5.7418,-5.8709,-5.8942,-5.828,-5.9515,-6.0805,-6.2007,-6.0621,-6.1111,-6.2734,-6.1735,-6.2154,-6.3473,-6.4311,-6.4444,-6.4279,-6.4973,-6.5584,-6.6077,0.0,0.0,0.0,0.0,0.0,0.0,0.0,0.0,0.0,0.0,0.0,0.0,0.0,0.0,0.0,0.0,0.0,0.0,0.0,0.0,0.0,0.0,0.0,0.0,0.0,0.0,-3.3744,-3.6124,-3.8329,-4.0568,-4.2723,-3.9008,-3.663,-3.5343,-3.1812,-2.9917,-2.9396,-2.9396,-2.9396,-2.9396,0.0,0.0,0.0,0.0,0.0,0.0,0.0,0.0,0.0,0.0,0.0,0.0,0.0,0.0,0.0,-2.9186,-2.867,-2.8913,-2.9016,-3.0717,-3.3198,-3.6243,-3.69,-3.8062,-4.2849,-3.9259,-3.6548,-4.2266,-3.975,-3.7959,-4.2791,-4.3008,-4.4058,-4.8945,-5.2806,-5.5015,-5.4581,-5.5522,-5.5848,-5.4653,-5.5558,-5.5812,-5.4617,-5.6319,-5.7732,-5.8347,-5.8565,-5.9035,-5.9832,-5.9921,-6.0056,-6.0264,-6.034,-6.0579,-6.1042,-6.1071,-6.0463,-5.9292,-5.9924,-6.0003,-5.9739,-5.9984,-6.0952,-6.2342,-6.0585,-6.098,-6.275,-6.201,-6.2474,-6.3762,-6.4632,-6.4917,-6.4934,-6.5526,-6.6269,-6.6896,0.0,0.0,0.0,0.0,0.0,0.0,0.0,0.0,0.0,0.0,0.0,0.0,0.0,0.0,0.0,0.0,0.0,0.0,0.0,0.0,0.0,0.0,0.0,0.0,0.0,-3.4112,-3.4919,-3.8028,-3.9564,-4.1163,-4.2723,-4.0123,-3.7708,-3.5417,-3.3559,-3.1515,-2.9396,-2.9396,-2.9396,-2.9396,-2.9396,0.0,0.0,0.0,0.0,0.0,0.0,0.0,0.0,0.0,0.0,0.0,0.0,0.0,-3.0749,-2.9006,-2.9068,-2.9867,-3.0454,-3.1953,-3.3704,-3.541,-3.4196,-3.4534,-4.1806,-3.7685,-3.4785,-4.337,-4.3549,-4.371,-4.8605,-4.8858,-4.9184,-5.1792,-5.2516,-5.3711,-5.6536,-5.7043,-5.708,-5.6971,-5.7043,-5.708,-5.6971,-5.7768,-5.8347,-5.8383,-5.9108,-5.9868,-6.0665,-6.0939,-6.1423,-6.2162,-6.1714,-6.1985,-6.2999,-6.2271,-6.1633,-6.1038,-6.1076,-6.1682,-6.265,-6.209,-6.2528,-6.372,-6.294,-6.2724,-6.2877,-6.2786,-6.2862,-6.3068,-6.3982,-6.5474,-6.7201,-6.8241,-6.8656,-6.8624,0.0,0.0,0.0,0.0,0.0,0.0,0.0,0.0,0.0,0.0,0.0,0.0,0.0,0.0,0.0,0.0,0.0,0.0,0.0,0.0,0.0,0.0,0.0,-3.242,-3.6285,-3.7165,-3.8584,-4.0553,-4.1625,-4.2109,-4.198,-3.8488,-3.6086,-3.4599,-3.1924,-3.0511,-3.0103,-2.9613,-2.9698,-3.0145,-2.9624,-2.9431,0.0,0.0,0.0,0.0,0.0,0.0,0.0,0.0,-2.9551,-2.9712,-2.9192,-2.959,-3.0012,-2.8796,-2.8714,-2.892,-2.8519,-3.0858,-3.393,-3.6347,-3.5687,-3.6292,-4.3335,-4.2345,-4.1748,-4.8111,-4.6503,-4.4473,-4.6057,-4.9401,-5.2009,-5.2444,-5.4146,-5.5848,-5.7043,-5.7188,-5.7188,-5.7188,-5.7188,-5.7406,-5.7913,-5.8239,-5.8818,-5.9832,-6.0194,-6.0701,-6.1471,-6.1802,-6.2105,-6.237,-6.2536,-6.2804,-6.3194,-6.3039,-6.288,-6.271,-6.219,-6.2513,-6.3501,-6.2485,-6.2892,-6.4423,-6.3917,-6.3694,-6.3732,-6.4267,-6.4202,-6.3948,-6.508,-6.6309,-6.7455,-6.8106,-6.8644,-6.8967,0.0,0.0,0.0,0.0,0.0,0.0,0.0,0.0,0.0,0.0,0.0,0.0,0.0,0.0,0.0,0.0,0.0,0.0,0.0,0.0,0.0,0.0,0.0,-3.2116,-3.5252,-3.8567,-4.0758,-4.1781,-4.2549,-4.2077,-4.0346,-3.7052,-3.5194,-3.4488,-3.1478,-3.0734,-3.1663,-3.0368,-3.0128,-3.0623,-2.9777,-2.9491,0.0,0.0,0.0,0.0,0.0,0.0,0.0,0.0,-2.9514,-2.9538,-2.9234,-2.9501,-2.9704,-2.8753,-2.9245,-2.9846,-2.8837,-3.0679,-3.3712,-3.7095,-3.6608,-3.7293,-4.4858,-4.5009,-4.5129,-5.0712,-5.0011,-4.8041,-4.6948,-5.0493,-5.3399,-5.2927,-5.4689,-5.6355,-5.708,-5.7188,-5.7188,-5.7188,-5.7188,-5.7514,-5.8311,-5.8637,-5.9361,-6.0701,-6.1108,-6.156,-6.2078,-6.2449,-6.2629,-6.2629,-6.3075,-6.3349,-6.3349,-6.3511,-6.3602,-6.3602,-6.3111,-6.3307,-6.4009,-6.3163,-6.359,-6.4951,-6.4764,-6.4695,-6.4733,-6.5339,-6.532,-6.5068,-6.629,-6.706,-6.765,-6.8539,-6.9213,-6.9561,0.0,0.0,0.0,0.0,0.0,0.0,0.0,0.0,-2.4388,-2.4396,-2.5179,0.0,0.0,0.0,0.0,0.0,0.0,0.0,-2.3108,-2.4687,-2.6002,0.0,0.0,-3.1288,-3.2736,-3.7885,-4.0781,-4.1286,-4.1969,-4.0766,-3.7819,-3.6272,-3.5491,-3.538,-3.2927,-3.2704,-3.4042,-3.1671,-3.0698,-3.0623,-2.9827,-2.954,-2.9579,0.0,0.0,0.0,0.0,0.0,0.0,0.0,-2.9798,-2.9237,-3.0023,-3.0198,-2.9929,-2.9016,-3.0912,-3.3168,-3.2152,-3.1951,-3.3066,-3.7369,-3.6375,-3.6701,-4.5976,-4.4422,-4.3113,-5.0321,-5.418,-5.5507,-5.2961,-5.2895,-5.3338,-5.3664,-5.3711,-5.4544,-5.6862,-5.7188,-5.7188,-5.7188,-5.7188,-5.7514,-5.8347,-5.9144,-5.9941,-6.0774,-6.1776,-6.2407,-6.2407,-6.2904,-6.3194,-6.3194,-6.3465,-6.3602,-6.3602,-6.3602,-6.3602,-6.3602,-6.383,-6.4067,-6.4405,-6.4483,-6.4795,-6.5321,-6.5586,-6.5705,-6.5718,-6.5909,-6.6088,-6.6292,-6.7299,-6.7776,-6.8128,-6.9999,-7.0686,-7.0575,0.0,0.0,0.0,0.0,0.0,0.0,0.0,0.0,-2.4617,-2.5217,-2.4991,0.0,0.0,0.0,0.0,0.0,0.0,0.0,-2.4004,-2.5005,-2.6009,-2.6863,0.0,0.0,0.0,0.0,-3.7679,-4.1174,-4.08,-3.9104,-3.6197,-3.5714,-3.486,-3.3745,-3.3781,-3.3332,-3.2501,-3.1386,-3.0854,-3.0764,-3.0445,-3.0084,-2.9711,0.0,0.0,0.0,0.0,0.0,0.0,0.0,0.0,0.0,-2.9188,-2.9839,-3.0294,-3.0648,-3.1159,-3.1337,-2.9962,-3.1887,-3.4543,-3.5468,-3.8142,-4.1375,-4.4583,-4.5914,-4.7767,-5.2232,-5.3396,-5.3044,-5.1162,-5.364,-5.5496,-5.3941,-5.5088,-5.6391,-5.708,-5.7188,-5.7188,-5.7188,-5.7695,-5.8347,-5.918,-5.9977,-6.0774,-6.158,-6.2103,-6.2407,-6.2407,-6.2904,-6.3194,-6.3194,-6.3465,-6.3758,-6.4004,-6.4004,-6.4131,-6.4388,-6.4518,-6.4628,-6.463,-6.4871,-6.5253,-6.5743,-6.5897,-6.5942,-6.592,-6.6088,-6.6196,-6.6389,-6.7489,-6.794,-6.8188,-7.003,-7.0707,-7.0594,0.0,0.0,0.0,0.0,0.0,0.0,-2.469,-2.4619,-2.4583,-2.51,-2.4721,-2.4413,0.0,0.0,0.0,-2.3602,-2.4085,-2.4384,-2.4394,-2.5163,-2.5972,-2.6863,-2.8254,-2.9732,-3.1276,-3.3533,-3.5676,-3.7738,-3.7771,-3.6486,-3.4042,-3.5045,-3.5306,-3.5008,-3.5975,-3.5601,-3.4201,-3.2879,-3.19,-3.1229,-3.125,-3.0815,-3.0226,0.0,0.0,0.0,0.0,0.0,0.0,0.0,0.0,0.0,-2.8248,-2.9318,-3.0612,-3.1017,-3.2305,-3.3556,-3.3172,-3.4833,-3.7225,-3.9685,-4.0979,-4.2577,-4.6064,-4.8311,-5.0766,-5.4522,-5.4986,-5.4473,-5.3631,-5.5577,-5.6952,-5.5834,-5.6832,-5.7784,-5.7784,-5.7784,-5.7857,-5.8187,-5.8507,-5.9124,-6.0242,-6.0721,-6.1296,-6.2095,-6.2537,-6.2805,-6.2953,-6.3368,-6.3683,-6.3782,-6.3967,-6.4172,-6.4388,-6.4388,-6.4519,-6.4782,-6.4981,-6.51,-6.5129,-6.5293,-6.5538,-6.5909,-6.6089,-6.6215,-6.6242,-6.6325,-6.64,-6.6535,-6.7225,-6.7695,-6.8216,-6.9639,-7.0387,-7.0582,0.0,0.0,0.0,0.0,0.0,0.0,-2.5083,-2.486,-2.4397,-2.4397,-2.433,-2.4297,0.0,0.0,0.0,-2.4319,-2.4464,-2.4501,-2.451,-2.5204,-2.6013,-2.6863,-2.7826,-3.0118,-3.3998,-3.4754,-3.4124,-3.2141,-3.3667,-3.3473,-3.1738,-3.4302,-3.6309,-3.7819,-3.8566,-3.8417,-3.7424,-3.4945,-3.3019,-3.1714,-3.1896,-3.1451,-3.0767,-3.1574,0.0,0.0,0.0,0.0,0.0,0.0,0.0,0.0,-2.7324,-2.8736,-3.064,-3.0395,-3.3758,-3.7843,-3.9076,-3.9163,-4.0372,-4.6657,-4.3985,-4.1849,-4.9566,-5.1362,-5.2605,-5.6929,-5.7806,-5.7984,-5.8491,-5.8031,-5.784,-5.8503,-5.8607,-5.8607,-5.8607,-5.8607,-5.8904,-5.9706,-5.9479,-5.9879,-6.1434,-6.1495,-6.1748,-6.2504,-6.3014,-6.3445,-6.3846,-6.4111,-6.4369,-6.4699,-6.4716,-6.4734,-6.4769,-6.4769,-6.4833,-6.5007,-6.5288,-6.5577,-6.5874,-6.5735,-6.5774,-6.5996,-6.6221,-6.6446,-6.6581,-6.6588,-6.6633,-6.6712,-6.679,-6.7356,-6.82,-6.9174,-6.9994,-7.0582,0.0,0.0,0.0,0.0,0.0,0.0,-2.3574,-2.4085,-2.4397,-2.4397,-2.3787,-2.3632,-2.4333,-2.361,0.0,-2.4317,-2.5015,-2.5405,-2.5407,-2.56,-2.602,-2.6863,-2.8371,-2.9916,-3.1453,-3.0854,-2.9965,-2.8835,-3.16,-3.2231,-3.0926,-3.4054,-3.6012,-3.6991,-3.7389,-3.6665,-3.4883,-3.2041,-3.0537,-3.0099,-3.0791,-3.0577,-2.9802,-3.0104,-2.9514,0.0,0.0,0.0,0.0,0.0,0.0,0.0,-2.6951,-2.7923,-2.9017,-2.972,-3.2778,-3.5888,-3.578,-3.797,-4.0467,-4.1348,-4.2794,-4.5716,-5.219,-5.3564,-5.4463,-5.8053,-5.7113,-5.6283,-5.8215,-5.8482,-5.8418,-5.8566,-5.8607,-5.8607,-5.8607,-5.8607,-5.8904,-5.9706,-6.0268,-6.1047,-6.2172,-6.2836,-6.3289,-6.3574,-6.3883,-6.4121,-6.4199,-6.4444,-6.4646,-6.4765,-6.4734,-6.4871,-6.5245,-6.5261,-6.5451,-6.5854,-6.5996,-6.6196,-6.632,-6.6221,-6.6298,-6.653,-6.6517,-6.6562,-6.6581,-6.6614,-6.6651,-6.679,-6.7447,-6.7863,-6.8276,-6.977,-7.0483,-7.0582,0.0,0.0,0.0,0.0,0.0,0.0,0.0,0.0,-2.5026,-2.5032,-2.4258,-2.4058,-2.4912,-2.4225,0.0,0.0,-2.5405,-2.5677,-2.5634,-2.5677,-2.6256,-2.7478,-2.956,-3.0484,-3.0104,-2.9931,-2.9201,-2.7841,-2.9459,-3.0174,-3.0143,-3.2962,-3.5218,-3.6858,-3.7,-3.5882,-3.3784,-3.1873,-3.046,-2.9672,-3.0957,-3.043,-2.8921,-2.9438,-2.8568,-2.7036,-2.6615,0.0,0.0,0.0,0.0,0.0,0.0,0.0,-2.8462,-2.8904,-3.1334,-3.4325,-3.6218,-3.876,-4.1289,-4.3138,-4.6112,-4.9482,-5.2939,-5.4651,-5.6281,-5.8891,-5.8128,-5.7397,-5.8648,-5.889,-5.889,-5.889,-5.9065,-5.9234,-5.9234,-5.9534,-6.0154,-6.1036,-6.1692,-6.2441,-6.3445,-6.3818,-6.4024,-6.4104,-6.4332,-6.459,-6.4782,-6.4904,-6.5121,-6.535,-6.5321,-6.5461,-6.5679,-6.5718,-6.5878,-6.6187,-6.6308,-6.647,-6.6575,-6.6503,-6.6575,-6.6691,-6.6645,-6.6614,-6.6594,-6.6581,-6.6841,-6.7331,-6.7759,-6.8481,-6.9408,-7.0286,-7.0657,-7.057,0.0,0.0,0.0,0.0,0.0,0.0,0.0,0.0,0.0,-2.5467,-2.4843,-2.4679,-2.5408,-2.484,-2.4662,0.0,0.0,0.0,-2.5628,-2.5788,-2.6524,-2.7906,-3.0134,-3.0669,-2.9207,-2.9751,-2.9369,-2.7923,-2.787,-2.8575,-3.0095,-3.2131,-3.451,-3.7043,-3.6445,-3.5093,-3.3176,-3.168,-3.0147,-2.8895,-3.0339,-2.9589,-2.7671,-2.826,-2.7202,-2.5423,-2.5281,-2.5681,-2.6276,-2.5957,0.0,0.0,0.0,0.0,-2.7813,-2.7651,-2.9729,-3.2854,-3.6546,-3.9189,-4.2158,-4.7099,-4.983,-5.1688,-5.3165,-5.5145,-5.7222,-5.9341,-5.9543,-5.9307,-5.9307,-5.9307,-5.9325,-5.9361,-5.9681,-5.9902,-5.9934,-6.0617,-6.1516,-6.2497,-6.3027,-6.3737,-6.4761,-6.4641,-6.4552,-6.455,-6.4765,-6.5057,-6.5397,-6.5388,-6.5597,-6.6008,-6.602,-6.6017,-6.6036,-6.6102,-6.6215,-6.6325,-6.6462,-6.6607,-6.6707,-6.6686,-6.6713,-6.6708,-6.6639,-6.6601,-6.6606,-6.6553,-6.7079,-6.7891,-6.8079,-6.9145,-7.06,-7.0766,-7.0758,-7.0554,0.0,0.0,0.0,0.0,0.0,0.0,0.0,0.0,0.0,0.0,-2.4488,-2.4435,-2.4549,-2.4451,-2.4432,-2.4547,-2.5251,-2.5718,-2.5677,0.0,0.0,-2.7076,-2.8116,-2.8581,-2.8357,-2.7736,-2.7629,-2.8061,-2.7962,-2.9417,-3.2381,-3.3156,-3.4908,-3.7222,-3.4416,-3.2928,-3.2183,-2.7901,-2.5815,-2.5461,-2.574,-2.5649,-2.522,-2.4664,-2.4269,-2.3877,-2.3196,-2.3025,-2.3329,-2.4694,-2.4636,0.0,0.0,0.0,-2.5227,-2.5228,-2.8022,-3.1092,-3.1209,-3.5866,-4.2096,-4.7799,-4.8664,-4.9426,-5.4452,-5.5103,-5.5659,-5.9097,-5.9786,-5.982,-5.982,-5.982,-5.9831,-5.9975,-5.9912,-5.995,-6.0038,-6.0829,-6.1682,-6.2512,-6.3428,-6.4352,-6.5379,-6.5456,-6.5499,-6.5676,-6.5703,-6.5768,-6.5808,-6.5859,-6.5946,-6.599,-6.599,-6.6047,-6.6165,-6.6254,-6.632,-6.6454,-6.6607,-6.6674,-6.6707,-6.6686,-6.6713,-6.6708,-6.6639,-6.6601,-6.6613,-6.6657,-6.7112,-6.7903,-6.8788,-6.9704,-7.0614,-7.1419,-7.1304,-7.0554,0.0,0.0,0.0,0.0,0.0,0.0,0.0,0.0,0.0,0.0,0.0,-2.5125,-2.507,-2.5101,-2.5091,-2.5079,-2.5479,-2.5718,-2.5718,-2.6444,-2.6907,-2.6913,-2.7719,-2.7953,-2.7498,-2.7101,-2.732,-2.8145,-2.7584,-2.9743,-3.4476,-3.4159,-3.5343,-3.7576,-3.4717,-3.2645,-3.1102,-2.8032,-2.5761,-2.4265,-2.4784,-2.5784,-2.6676,-2.3985,-2.417,-2.5462,-2.2764,-2.2085,-2.2623,-2.334,-2.3303,-2.3114,-2.3814,0.0,0.0,0.0,-2.4692,-2.7175,-3.218,-3.6992,-4.2108,-4.8325,-4.8792,-4.8947,-5.3841,-5.464,-5.5352,-5.8737,-5.9794,-5.9984,-5.9592,-5.9798,-5.996,-5.9793,-5.9969,-6.0311,-6.0866,-6.1682,-6.2566,-6.3509,-6.4408,-6.5144,-6.5717,-6.5768,-6.5795,-6.5897,-6.5897,-6.5897,-6.5897,-6.5972,-6.5993,-6.6001,-6.6543,-6.6629,-6.6273,-6.6859,-6.6959,-6.6607,-6.6669,-6.6702,-6.6707,-6.6686,-6.6663,-6.6645,-6.6588,-6.6614,-6.664,-6.7113,-6.7793,-6.8628,-6.9565,-7.0434,-7.1232,-7.1677,-7.1023,-6.9876,0.0,0.0,0.0,0.0,0.0,0.0,0.0,0.0,0.0,0.0,0.0,-2.5342,-2.5273,0.0,0.0,0.0,-2.5509,-2.5675,-2.5671,-2.6247,-2.6554,-2.6554,-2.7211,-2.725,-2.6597,-2.6586,-2.7009,-2.7862,-2.7394,-3.0019,-3.5473,-3.5211,-3.6492,-3.8846,-3.5836,-3.3263,-3.1033,-2.9357,-2.6915,-2.4345,-2.6085,-2.7332,-2.7934,-2.585,-2.6644,-2.83,-2.4076,-2.3002,-2.3427,-2.2762,-2.238,-2.2258,-2.2632,-2.2571,0.0,0.0,0.0,-2.3863,-3.2404,-3.6298,-3.9679,-4.6908,-4.7486,-4.753,-5.227,-5.3433,-5.4443,-5.7668,-5.922,-5.9883,-5.953,-5.9874,-6.0061,-5.982,-6.0053,-6.0613,-6.1534,-6.2414,-6.3298,-6.4266,-6.515,-6.5742,-6.5885,-6.5897,-6.5897,-6.5897,-6.5897,-6.591,-6.5923,-6.5946,-6.6017,-6.6047,-6.6784,-6.6922,-6.6316,-6.7115,-6.7217,-6.668,-6.6696,-6.6702,-6.6707,-6.6674,-6.6645,-6.6581,-6.6614,-6.6718,-6.6931,-6.7549,-6.842,-6.9422,-7.0159,-7.0944,-7.1707,-7.18,-7.0735,-6.931,0.0,0.0,0.0,0.0,0.0,0.0,0.0,0.0,0.0,0.0,0.0,-2.4425,-2.4358,-2.5159,-2.5358,-2.4436,-2.515,-2.5622,-2.561,-2.5658,-2.5663,-2.5663,-2.579,0.0,-2.5755,-2.5708,-2.6089,-2.698,-2.7746,-3.0377,-3.4715,-3.6231,-3.8745,-4.1786,-3.751,-3.4642,-3.2856,-3.1115,-2.8425,-2.5674,-2.9795,-2.9561,-2.7105,-3.0911,-3.2455,-3.2071,-2.7841,-2.6336,-2.6023,-2.353,-2.2163,-2.1795,-2.3339,-2.3208,-2.2494,0.0,0.0,0.0,-2.8685,-3.0533,-3.2912,-4.2048,-4.3249,-4.3786,-4.9876,-5.0996,-5.185,-5.5557,-5.7835,-5.9363,-6.0099,-6.0265,-6.036,-6.052,-6.0414,-6.0655,-6.1632,-6.254,-6.3422,-6.4279,-6.5282,-6.5897,-6.5897,-6.5897,-6.5897,-6.5897,-6.5897,-6.5935,-6.5996,-6.6017,-6.6058,-6.6175,-6.6313,-6.6388,-6.6398,-6.656,-6.669,-6.6707,-6.6686,-6.6686,-6.6707,-6.6612,-6.6588,-6.6581,-6.6588,-6.6997,-6.7665,-6.7775,-6.8682,-7.006,-7.0395,-7.0953,-7.1645,-7.1831,-7.0792,-6.9314,0.0,0.0,0.0,0.0,0.0,0.0,0.0,0.0,0.0,0.0,0.0,0.0,0.0,-2.4341,-2.4499,-2.3593,-2.4337,-2.5038,-2.5571,-2.5619,-2.5587,-2.5587,-2.5673,-2.5718,-2.5718,-2.563,-2.6011,-2.6902,-2.6668,-2.9027,-3.3782,-3.3792,-3.5652,-3.8926,-3.9015,-3.7153,-3.3882,-3.3316,-2.979,-2.4992,-2.9908,-3.1709,-3.1607,-3.2648,-3.4721,-3.6511,-3.2186,-2.9292,-2.7268,-2.569,-2.3505,-2.1516,-2.1522,-2.1277,-2.0949,-2.0896,-2.1488,-2.3001,-2.7238,-2.9118,-3.1501,-3.8278,-4.0094,-4.1519,-4.639,-4.934,-5.1481,-5.2908,-5.6499,-5.9063,-5.808,-5.9331,-6.052,-6.0572,-6.0623,-6.1121,-6.2554,-6.3015,-6.3745,-6.518,-6.568,-6.5897,-6.5897,-6.5897,-6.5923,-6.596,-6.4219,-6.4014,-6.5947,-6.4363,-6.4266,-6.6196,-6.6862,-6.7268,-6.7376,-6.6873,-6.6612,-6.6707,-6.6686,-6.6686,-6.6707,-6.719,-6.7438,-6.747,-6.7991,-6.8039,-6.7837,-6.8948,-6.9705,-7.0243,-7.0961,-7.142,-7.1614,-7.1764,-7.0774,-6.9292,0.0,0.0,0.0,0.0,0.0,0.0,0.0,0.0,0.0,-2.2137,0.0,0.0,0.0,0.0,-2.4501,-2.3601,-2.4062,-2.4484,-2.4749,-2.5029,-2.5152,-2.5198,-2.5516,-2.5675,-2.5718,-2.5358,-2.547,-2.6054,-2.5464,-2.7354,-3.1569,-3.1887,-3.3665,-3.6751,-3.8421,-3.7912,-3.5728,-3.578,-3.2783,-2.8449,-3.3017,-3.5159,-3.5669,-3.6546,-3.8109,-3.9405,-3.6259,-3.2998,-2.9997,-2.9085,-2.7262,-2.497,-2.2658,-2.0698,0.0,0.0,-2.0212,-2.196,-2.47,-2.636,-2.8723,-3.4601,-3.6102,-3.7705,-4.3596,-4.6959,-4.9334,-5.112,-5.5109,-5.8016,-5.7299,-5.8858,-6.0341,-6.061,-6.1003,-6.1704,-6.3128,-6.3551,-6.4282,-6.5743,-6.5897,-6.5897,-6.5897,-6.5897,-6.5935,-6.5996,-6.4193,-6.3974,-6.6035,-6.4376,-6.4275,-6.6272,-6.6972,-6.7371,-6.7457,-6.6886,-6.6612,-6.6696,-6.6691,-6.6847,-6.7119,-6.7651,-6.8047,-6.8345,-6.9158,-6.9173,-6.8676,-6.9822,-7.0395,-7.0701,-7.1403,-7.1671,-7.169,-7.1778,-7.074,-6.9333,0.0,0.0,0.0,0.0,0.0,0.0,0.0,0.0,-2.1112,-2.2792,0.0,0.0,0.0,0.0,0.0,-2.4497,-2.4365,-2.3964,-2.3186,-2.3847,-2.4284,-2.4378,0.0,0.0,0.0,-2.4851,-2.4423,-2.4394,-2.433,-2.5598,-2.8163,-3.0636,-3.3149,-3.5581,-3.562,-3.6607,-3.8188,-3.8222,-3.7307,-3.6017,-3.9393,-3.9772,-3.8742,-4.2872,-4.2944,-4.0742,-4.0087,-3.7597,-3.452,-3.3787,-3.3268,-3.2033,-2.6886,0.0,0.0,0.0,0.0,0.0,0.0,0.0,0.0,-3.0821,-3.1127,-3.2252,-4.1376,0.0,-4.5093,-5.0203,-5.3497,-5.6049,-5.7885,-5.8934,-5.9781,-6.0666,-6.1524,-6.2397,-6.3243,-6.4089,-6.4936,-6.5782,-6.5897,-6.5897,-6.5897,-6.5897,-6.5935,-6.6008,-6.5928,-6.5981,-6.6185,-6.6284,-6.6358,-6.6398,-6.6485,-6.6531,-6.6606,-6.6601,-6.6639,-6.6708,-6.6735,-6.7158,-6.7909,-6.795,-6.8384,-6.9165,-6.9972,-7.0299,-7.0224,-7.0224,-7.0744,-7.1497,-7.1575,-7.169,-7.1807,-7.1825,-7.0777,-6.948,0.0,0.0,0.0,0.0,0.0,-2.3841,-2.3186,-2.2167,-2.1811,0.0,0.0,0.0,-2.38,-2.4382,-2.4919,-2.5257,-2.4669,-2.4197,-2.3964,-2.3625,-2.3439,-2.3445,-2.4269,-2.4742,-2.4744,-2.5132,-2.5015,-2.4394,-2.4388,-2.5035,0.0,-2.7034,-2.8423,-3.0351,-3.1587,-3.2418,-3.3109,-3.6144,-3.5344,-3.2563,-3.9236,-4.0386,-3.8634,-4.3708,-4.5079,-4.4446,-4.5575,-4.338,-3.995,-3.9728,-3.5878,-3.0078,-2.365,0.0,0.0,0.0,0.0,0.0,-2.0518,0.0,0.0,0.0,0.0,0.0,-3.2443,0.0,-3.9218,-4.4113,-4.7836,-5.1431,-5.5396,-5.7997,-5.9781,-6.0666,-6.1524,-6.2601,-6.4051,-6.4436,-6.4936,-6.5782,-6.5897,-6.5897,-6.5897,-6.5897,-6.5972,-6.6047,-6.4135,-6.3946,-6.6212,-6.6389,-6.6469,-6.6485,-6.6501,-6.6531,-6.6606,-6.6553,-6.6574,-6.6639,-6.7204,-6.7632,-6.795,-6.9094,-6.9757,-7.0013,-7.0822,-7.118,-7.1217,-7.1217,-7.1334,-7.1513,-7.1668,-7.1763,-7.1874,-7.2518,-7.2034,-7.1156,0.0,0.0,-2.4174,-2.5256,-2.4854,-2.4445,-2.4646,-2.3623,-2.3307,0.0,0.0,0.0,-2.5193,-2.6006,-2.6425,-2.6145,-2.5333,-2.4555,-2.3854,-2.3361,-2.2941,-2.2555,-2.3726,-2.439,-2.4394,-2.49,-2.4744,-2.3848,-2.3844,-2.3912,-2.4053,-2.5092,-2.594,-2.6635,-2.7598,-2.8243,-2.8749,-3.0873,-3.2348,-3.3768,-3.906,-4.0877,-4.0857,-4.5041,-4.5908,-4.5218,-4.8092,-4.6348,-4.2936,-4.4422,-3.9013,-3.0963,-2.7263,0.0,0.0,0.0,0.0,0.0,0.0,0.0,0.0,0.0,0.0,0.0,-3.1629,0.0,0.0,0.0,-4.8001,-5.095,-5.3283,-5.5346,-5.7243,-5.8779,-5.9777,-6.1235,-6.3692,-6.4666,-6.532,-6.582,-6.5897,-6.5897,-6.5897,-6.5947,-6.5993,-6.6091,-6.458,-6.4492,-6.6345,-6.6493,-6.6508,-6.6508,-6.6508,-6.6516,-6.6546,-6.6538,-6.6715,-6.7107,-6.7606,-6.8228,-6.8967,-6.9881,-7.0502,-7.0865,-7.1271,-7.1508,-7.1556,-7.1602,-7.1599,-7.1648,-7.1731,-7.1992,-7.2438,-7.2899,-7.2769,-7.2401,0.0,0.0,-2.3971,-2.6359,-2.5603,-2.5195,-2.6676,-2.5568,-2.5177,0.0,-2.644,-2.6715,-2.8554,-2.9296,-2.9024,-2.7468,-2.6347,-2.5031,-2.3359,-2.3054,-2.2555,-2.1706,-2.3334,-2.4269,-2.4277,-2.4432,-2.4082,-2.3109,-2.31,-2.2705,-2.2,-2.4158,-2.4773,-2.4003,-2.4037,-2.4291,-2.4777,-2.4431,-2.9053,-3.6797,-3.8527,-4.095,-4.382,-4.6513,-4.6199,-4.4804,-4.8906,-4.789,-4.4999,-4.7692,-4.2187,-3.4177,-3.3833,-2.8191,-2.1615,0.0,-2.1841,0.0,0.0,0.0,0.0,0.0,-2.3952,0.0,-3.3878,0.0,0.0,0.0,-4.9317,-5.0845,-5.0511,-5.1193,-5.2533,-5.4726,-5.6269,-5.8527,-6.2322,-6.4551,-6.559,-6.5243,-6.5513,-6.5705,-6.5628,-6.5661,-6.5765,-6.5831,-6.6041,-6.6273,-6.6501,-6.6508,-6.6508,-6.6508,-6.6508,-6.6508,-6.6508,-6.6662,-6.7104,-6.7811,-6.8034,-6.896,-7.0409,-7.044,-7.0857,-7.1589,-7.1446,-7.1465,-7.1521,-7.1577,-7.1678,-7.1791,-7.1831,-7.2417,-7.3211,-7.3358,-7.3375,-7.3492,-2.2653,-2.3536,-2.4528,-2.5644,-2.6162,-2.6523,-2.6853,-2.6614,-2.6773,-2.7801,-2.8396,-2.9638,-3.2022,-3.1216,-3.0328,-2.9978,-2.7932,-2.5919,-2.4254,-2.2826,-2.1666,-2.0771,-2.2406,-2.334,-2.3341,-2.4744,-2.4666,-2.3109,-2.3108,-2.3019,-2.284,-2.2654,-2.2457,-2.2289,-2.2289,-2.1589,-2.0616,-2.3156,-2.7612,-3.3295,-3.6401,-3.9559,-4.2856,-4.6953,-4.8552,-4.8899,-5.1326,-5.156,-5.0346,-4.7577,-4.3906,-3.9331,-3.2447,-3.0389,-2.9304,-2.3253,-2.3884,0.0,0.0,0.0,0.0,-2.182,-2.352,0.0,-2.3986,-2.5682,-2.895,0.0,-3.6031,-3.8262,-4.2842,-4.4863,-4.5714,-4.5543,-4.969,-5.4614,-5.9565,-6.2897,-6.382,-6.1089,-6.3166,-6.4589,-6.3897,-6.3927,-6.4012,-6.4077,-6.4912,-6.5709,-6.647,-6.6508,-6.6508,-6.6508,-6.6508,-6.6508,-6.6508,-6.7215,-6.765,-6.7806,-6.9166,-6.9982,-7.0324,-7.0977,-7.1358,-7.1513,-7.1489,-7.1518,-7.1573,-7.1634,-7.1719,-7.1875,-7.2615,-7.3037,-7.3367,-7.4683,-7.5207,-7.5129,-2.3501,-2.4106,-2.4941,-2.6608,-2.6892,-2.7332,-2.8605,-2.8443,-2.8635,-2.9923,-3.1216,-3.2149,-3.2608,-3.2266,-3.165,-3.0766,-2.8757,-2.6822,-2.5111,-2.3412,-2.1862,-2.0576,-2.2174,-2.3301,-2.3722,-2.4585,-2.4623,-2.3761,-2.3295,-2.267,-2.1804,-2.2224,-2.3076,-2.4241,-2.2103,-2.1591,-2.2316,-2.0966,-2.3373,-2.8692,-3.5187,-4.0344,-4.4594,-4.8584,-5.058,-5.1482,-5.3345,-5.3658,-5.2577,-4.8239,-4.5072,-4.2254,-3.8194,-3.5681,-3.3225,-2.8038,-2.7691,-2.8171,-2.4423,-2.402,-2.4447,-2.3606,-2.3726,0.0,0.0,-2.5956,-2.7923,-3.2564,-3.4224,-3.5556,-3.7992,-3.9058,-3.9929,-4.1131,-4.5284,-4.904,-5.0947,-5.7862,-6.2228,-6.0977,-6.3145,-6.4363,-6.3533,-6.3949,-6.4329,-6.439,-6.5297,-6.6042,-6.647,-6.6508,-6.6508,-6.6508,-6.6508,-6.6508,-6.6508,-6.7363,-6.8024,-6.8451,-6.9694,-7.0549,-7.0976,-7.1347,-7.1538,-7.1544,-7.1503,-7.1546,-7.1671,-7.2146,-7.2399,-7.2489,-7.2977,-7.369,-7.4543,-7.5374,-7.5986,-7.6298,-2.4031,-2.4677,-2.5595,-2.7807,-2.7746,-2.8112,-3.0364,-3.0118,-3.0263,-3.2007,-3.3565,-3.4198,-3.3329,-3.3711,-3.352,-3.2298,-3.0642,-2.8739,-2.6508,-2.4933,-2.3384,-2.1781,-2.2445,-2.3492,-2.4838,-2.4386,-2.4076,-2.3908,-2.3017,-2.1893,-2.0534,-2.1562,-2.3149,-2.5065,-2.2421,-2.2576,-2.4637,-2.1087,-2.2436,-2.7656,-3.5652,-4.0934,-4.4492,-4.9516,-5.1535,-5.2048,-5.4617,-5.5005,-5.3569,-4.9139,-4.6083,-4.4001,-4.3533,-4.033,-3.6093,-3.2808,-3.1712,-3.0618,-2.6456,-2.5774,-2.6308,-2.6346,-2.4769,-2.4115,0.0,0.0,0.0,-3.2263,-3.3846,-3.4222,0.0,0.0,0.0,-3.6834,0.0,0.0,0.0,-5.0448,0.0,-5.841,-6.1053,-6.2348,-6.1165,-6.2675,-6.4072,-6.4901,-6.5763,-6.6307,-6.6508,-6.6508,-6.6508,-6.6508,-6.6508,-6.6508,-6.6508,-6.7519,-6.8412,-6.9111,-7.0083,-7.0937,-7.1598,-7.1538,-7.156,-7.1583,-7.1577,-7.1708,-7.2019,-7.2709,-7.3247,-7.3609,-7.3609,-7.4466,-7.5713,-7.5908,-7.6415,-7.6999,-2.3911,-2.5607,-2.695,-2.8002,-2.8718,-2.9473,-3.0558,-3.0623,-3.1195,-3.2905,-3.3954,-3.5298,-3.7439,-3.7055,-3.6892,-3.7481,-3.5982,-3.3334,-2.9335,-2.8173,-2.7209,-2.6206,-2.3453,-2.3414,-2.6551,-2.4386,-2.2874,-2.2094,-2.1237,-2.0687,-2.048,-1.9161,-1.8692,-1.9073,-2.238,-2.3245,-2.2578,-2.7977,-3.2796,-3.703,-3.9639,-3.875,-3.6976,-4.7412,-5.0023,-4.8824,-5.4429,-5.5903,-5.4465,-5.0037,-4.7383,-4.5114,-4.0466,-3.9956,-3.9997,-3.445,-3.4269,-3.5001,-3.0822,-2.9769,-2.9115,-2.6192,-2.7423,-2.7995,-2.2602,0.0,-2.5341,-2.4442,0.0,-2.6572,-2.643,0.0,0.0,0.0,0.0,0.0,-3.5755,-4.0489,-4.4143,-4.5133,-5.1414,-5.4671,-5.2077,-5.6132,-6.0345,-6.3891,-6.4885,-6.5693,-6.647,-6.6508,-6.6508,-6.6508,-6.6508,-6.6508,-6.6508,-6.814,-6.8995,-6.9111,-7.0704,-7.1481,-7.1606,-7.1583,-7.1583,-7.1594,-7.1731,-7.2187,-7.2873,-7.3029,-7.4015,-7.5402,-7.5402,-7.5519,-7.5791,-7.6571,-7.6921,-7.6882,-2.238,-2.3879,-2.4951,-2.5853,-2.6656,-2.7651,-2.9039,-3.0934,-3.2477,-3.3215,-3.4459,-3.6055,-3.8132,-3.8082,-3.8256,-3.9084,-3.8077,-3.6026,-3.2732,0.0,0.0,-2.7688,-2.4855,-2.4189,-2.6114,-2.3646,-2.2172,-2.1811,-1.9953,-1.9056,-1.9046,-1.8306,-1.9816,-2.3188,-2.447,-2.6628,-2.9328,-3.0674,-3.3427,-3.699,-3.8203,-3.8198,-3.8545,-4.8377,-5.2388,-5.2955,-5.4448,-5.5457,-5.5368,-5.0851,-4.9589,-4.9317,-4.5944,-4.3835,-4.2105,-3.9605,-3.6752,-3.3956,-3.1757,-3.1548,-3.173,-3.0716,-3.0128,-2.9114,-2.6664,-2.4534,-2.3038,-2.2842,0.0,0.0,0.0,0.0,0.0,0.0,-2.9254,0.0,0.0,0.0,-3.9895,0.0,0.0,0.0,-5.3451,-5.3367,-5.5698,-6.1974,-6.0825,-6.1128,-6.4039,-6.5631,-6.6508,-6.6508,-6.6508,-6.6742,-6.7247,-6.849,-6.9344,-6.9811,-7.1015,-7.1614,-7.1676,-7.1621,-7.1624,-7.1758,-7.2265,-7.2711,-7.315,-7.4182,-7.5051,-7.5752,-7.6259,-7.6454,-7.6493,-7.6882,-7.6999,-7.696,-2.0617,-2.216,-2.3513,-2.4843,-2.5574,-2.6531,-2.8262,-3.1439,-3.3724,-3.3954,-3.5231,-3.7061,-3.9479,-3.898,-3.9282,-4.1317,-4.0505,-3.8926,-3.6618,-3.2996,-3.1079,-3.1366,-2.6883,-2.5356,-2.7328,-2.3957,-2.1818,-2.1107,-1.9212,-1.8202,-1.7958,-1.7684,-1.9894,-2.4161,-2.5165,-2.8411,-3.3183,-3.3416,-3.5778,-3.9408,-3.9961,-4.1523,-4.4099,-4.9505,-5.3633,-5.6415,-5.5075,-5.5421,-5.5915,-5.139,-5.0752,-5.154,-4.959,-4.684,-4.4376,-4.4821,-4.1092,-3.6542,-3.5509,-3.5371,-3.5168,-3.3569,-3.1405,-2.9279,-2.795,-2.4812,-2.2312,-2.274,-2.3355,0.0,0.0,0.0,0.0,0.0,0.0,-2.9201,0.0,-3.144,0.0,0.0,0.0,0.0,0.0,-5.027,-5.1713,-5.828,-5.7249,-5.8117,-6.2283,-6.5033,-6.6508,-6.6508,-6.6742,-6.7169,-6.779,-6.8878,-6.9733,-7.0316,-7.117,-7.163,-7.1683,-7.1655,-7.1855,-7.2187,-7.28,-7.3325,-7.3921,-7.5168,-7.583,-7.6103,-7.6765,-7.6999,-7.6999,-7.6999,-7.6999,-7.7038,-1.8941,-2.1356,-2.3887,-2.6379,-2.6833,-2.7437,-2.912,-3.2305,-3.4824,-3.5624,-3.6518,-3.8672,-4.2879,-4.0399,-4.0454,-4.5556,-4.4429,-4.2721,-4.1022,-3.6904,-3.6009,-3.927,-2.9769,-2.6758,-3.18,-2.6096,-2.1809,-1.9292,-1.9214,-1.8742,0.0,-1.7101,-1.6829,-1.7289,-2.303,-2.709,-3.003,-3.7494,-4.3632,-4.8289,-4.8311,-5.0364,-5.3085,-4.9987,-5.2058,-5.6606,-5.653,-5.6567,-5.5909,-5.1482,-5.0039,-4.9765,-4.8027,-4.7242,-4.731,-4.9162,-4.8227,-4.6296,-4.4634,-4.2976,-3.9944,-3.2496,-3.0549,-2.8724,-2.2136,-2.2393,-2.3783,-2.297,-2.4774,-2.6236,-2.5423,0.0,0.0,0.0,0.0,0.0,0.0,0.0,0.0,0.0,0.0,0.0,0.0,-4.5611,-4.9057,0.0,-5.529,-5.8678,-6.2322,-6.5033,-6.6508,-6.6508,-6.7324,-6.7752,-6.779,-6.9422,-7.0277,-7.0316,-7.117,-7.1645,-7.1679,-7.1776,-7.2248,-7.3046,-7.3153,-7.4129,-7.5635,-7.5674,-7.622,-7.696,-7.6999,-7.6999,-7.6999,-7.6999,-7.6999,-7.7116,-1.9202,-1.9909,-2.1161,-2.3186,-2.3533,-2.4497,-2.732,-3.0685,-3.3602,-3.5609,-3.7085,-3.9813,-4.4694,-4.4731,-4.5131,-4.6824,-4.754,-4.6428,-4.2972,-4.0888,-4.0036,-4.064,-3.4047,-3.0878,-3.2026,-2.7285,-2.3543,-2.0914,-1.9212,-1.8238,0.0,0.0,0.0,0.0,0.0,-2.8288,0.0,0.0,0.0,0.0,0.0,-5.1743,-5.3776,-5.3212,-5.4845,-5.7387,-5.7387,-5.7777,-5.7822,-5.5155,-5.4258,-5.4062,-5.2821,-5.0447,-4.8642,-5.153,-4.8645,-4.4834,-4.5957,-4.6268,-4.5395,-4.1609,-3.7738,-3.3867,-3.0356,-2.7133,-2.4505,-2.3086,-2.5279,-2.7005,-2.5577,0.0,0.0,0.0,0.0,0.0,0.0,0.0,0.0,0.0,0.0,0.0,0.0,0.0,0.0,0.0,-5.1061,0.0,-5.7086,-6.1444,-6.3875,-6.3914,-6.6446,-6.8062,-6.8645,-6.9733,-7.0588,-7.117,-7.1497,-7.168,-7.172,-7.1772,-7.2265,-7.313,-7.3718,-7.4639,-7.5752,-7.6337,-7.6727,-7.6999,-7.6999,-7.6999,-7.6999,-7.6999,-7.7389,-7.7973,-1.994,-1.9403,-1.9953,-2.2325,-2.3456,-2.5128,-2.822,-3.1628,-3.4973,-3.8199,-3.9325,-4.1625,-4.6512,-4.6472,-4.6719,-4.8249,-4.8599,-4.8069,-4.6496,-4.357,-4.2478,-4.377,-3.7988,-3.4742,-3.4779,-3.0295,-2.6667,-2.4124,-2.1508,-2.0062,0.0,0.0,0.0,0.0,0.0,-2.7504,-3.3441,-3.8117,-4.3906,0.0,0.0,-5.2686,0.0,-5.4576,-5.5784,-5.7387,-5.7387,-5.7738,-5.8016,-5.6869,-5.6481,-5.6404,-5.5743,-5.3631,-5.1842,-5.4291,-5.1644,-4.8212,-4.9556,-5.0125,-4.9562,-4.628,-4.2565,-3.8965,-3.5958,-3.2965,-3.0341,-2.8657,-3.0307,-3.1681,-3.0551,0.0,0.0,0.0,0.0,0.0,0.0,-2.5061,0.0,0.0,0.0,0.0,0.0,0.0,0.0,0.0,0.0,0.0,0.0,-5.9813,-6.2532,-6.2634,-6.6291,-6.8529,-6.9111,-7.0199,-7.0914,-7.1179,-7.1534,-7.1549,-7.129,-7.1951,-7.2719,-7.3575,-7.4433,-7.5327,-7.6183,-7.6729,-7.6962,-7.6962,-7.6975,-7.7131,-7.7391,-7.7455,-7.8207,-7.9259,-2.0997,-1.9948,-2.0529,-2.3869,-2.6565,-2.9095,-3.1592,-3.4934,-3.8712,-4.2969,-4.2903,-4.4012,-4.8249,-4.5881,-4.5582,-4.9616,-4.7762,-4.7726,-5.092,-4.5024,-4.3611,-4.8582,-4.1638,-3.8397,-4.0005,-3.4976,-3.1105,-2.8601,-2.5788,0.0,0.0,0.0,0.0,0.0,-2.0836,0.0,-3.104,-3.6198,-4.2929,-5.0194,-5.1674,-5.3431,-5.5046,-5.4086,-5.4911,-5.6606,-5.6645,-5.6684,-5.6723,-5.6723,-5.6684,-5.6651,-5.6561,-5.6477,-5.6555,-5.7303,-5.6936,-5.6136,-5.5359,-5.4504,-5.2445,-4.6779,-4.5099,-4.3618,-3.8699,-3.9331,-4.0521,-3.8833,-3.921,-3.9768,-3.9545,0.0,0.0,0.0,0.0,0.0,0.0,0.0,0.0,0.0,0.0,0.0,0.0,0.0,0.0,0.0,0.0,0.0,0.0,-5.9675,-6.2083,-6.2655,-6.6617,-6.8839,-6.9111,-7.0626,-7.1093,-7.0466,-7.129,-7.1307,-7.0617,-7.2265,-7.3481,-7.4343,-7.5229,-7.6076,-7.6894,-7.6894,-7.6894,-7.6901,-7.689,-7.7428,-7.8185,-7.8371,-7.9448,-8.0812,-2.0862,-2.1739,-2.3418,-2.4946,-2.7412,-2.9772,-3.1637,-3.5444,-3.9208,-4.2241,-4.3575,-4.5398,-4.844,-4.9164,-4.9086,-4.8227,-4.8743,-4.8632,-4.7606,-4.7067,-4.7398,-4.8753,-4.5703,-4.3862,-4.3667,-3.9173,-3.558,-3.308,-2.8481,0.0,-2.2972,0.0,0.0,0.0,0.0,-2.4945,-3.0971,-3.6124,-4.3161,-5.0816,-5.0622,-5.1992,-5.4133,-5.3867,-5.4956,-5.6684,-5.727,-5.7894,-5.8478,-5.8478,-5.8011,-5.7473,-5.7459,-5.6984,-5.6438,-5.6605,-5.6469,-5.6369,-5.6842,-5.6291,-5.5437,-5.4498,-5.0906,-4.7233,-4.5908,-4.4593,-4.3168,-4.1474,-4.278,-4.3272,-4.0084,-3.6135,0.0,0.0,0.0,0.0,0.0,0.0,0.0,-2.8549,0.0,0.0,0.0,0.0,0.0,0.0,0.0,0.0,0.0,0.0,-5.5317,-6.2315,-6.3099,-6.5219,-6.9072,-6.8878,-6.9663,-7.1368,-7.1653,-7.1667,-7.1484,-7.2569,-7.3527,-7.4359,-7.5203,-7.6076,-7.6894,-7.6894,-7.6894,-7.6894,-7.6908,-7.7796,-7.9158,-7.9902,-8.0429,-8.0896,-2.202,-2.3248,-2.5151,-2.6339,-3.0016,-3.3262,-3.4524,-3.8143,-4.1916,-4.5287,-4.6568,-4.7877,-4.9716,-5.0822,-5.082,-4.9349,-4.9373,-4.937,-4.9064,-4.85,-4.8707,-4.9881,-4.8318,-4.6982,-4.6106,-4.2921,-4.003,-3.7435,-3.1865,0.0,-2.5738,0.0,0.0,0.0,0.0,-2.4084,-2.8842,-3.7099,-4.4055,-4.9584,-5.0195,-5.2223,0.0,-5.41,-5.4912,-5.6572,-5.7107,-5.7582,-5.8011,-5.8011,-5.7699,-5.728,-5.7226,-5.6819,-5.6397,-5.6324,-5.6314,-5.6408,-5.6919,-5.6958,-5.6997,-5.7463,-5.5586,-5.3547,-5.3159,-5.1897,-5.0558,-4.9601,-4.9666,-4.9343,-4.7663,-4.1451,0.0,0.0,0.0,0.0,0.0,0.0,0.0,0.0,-3.1421,0.0,0.0,0.0,0.0,0.0,0.0,0.0,0.0,0.0,-5.3895,-5.9614,-6.1592,-6.375,-6.6275,-6.5809,-6.6917,-6.9505,-7.0313,-7.0897,-7.1318,-7.3281,-7.4212,-7.4304,-7.5565,-7.6373,-7.6801,-7.6801,-7.6801,-7.6879,-7.7657,-7.8762,-8.0022,-8.0941,-8.1306,-8.1406,-2.3716,-2.4525,-2.6408,-2.8256,-3.3279,-3.7642,-3.9303,-4.2256,-4.5715,-4.9728,-5.0249,-5.0613,-5.1447,-5.1568,-5.1529,-5.141,-4.9965,-5.003,-5.2367,-4.973,-4.9173,-5.1625,-5.0176,-4.8917,-4.8041,-4.6309,-4.4124,-4.1524,-3.5248,0.0,0.0,0.0,0.0,0.0,0.0,0.0,0.0,-3.8733,-4.519,-4.8345,-5.0681,-5.3496,-5.6095,-5.4944,-5.5441,-5.6757,-5.6862,-5.6801,-5.6606,-5.6606,-5.6606,-5.658,-5.6438,-5.6415,-5.6391,-5.6308,-5.631,-5.633,-5.6447,-5.7036,-5.7658,-5.7891,-5.9088,-6.0099,-5.9477,-5.9399,-5.9477,-5.9477,-5.7612,-5.6356,-5.7455,-4.8179,-3.7478,0.0,0.0,0.0,0.0,0.0,0.0,0.0,0.0,0.0,0.0,0.0,0.0,0.0,0.0,0.0,0.0,0.0,0.0,-5.6719,-6.0953,-6.3175,-6.3221,-6.2864,-6.4254,-6.7379,-6.8687,-6.983,-7.0938,-7.4133,-7.5156,-7.4489,-7.6026,-7.6687,-7.6687,-7.6687,-7.6764,-7.7036,-7.8668,-7.9822,-8.0712,-8.1567,-8.1943,-8.1983,-2.4564,-2.5794,-2.8422,-3.163,-3.483,-3.8923,-4.4927,-4.7012,-4.8671,-5.0796,-5.1152,-5.1481,-5.2289,-5.2459,-5.2188,-5.1467,-5.1105,-5.1141,-5.1617,-5.1671,-5.2256,-5.3501,-5.2564,-5.1625,-5.0725,-4.9022,-4.6876,-4.4285,-3.6754,0.0,0.0,0.0,0.0,0.0,0.0,0.0,-3.6325,-4.0685,-4.6015,-5.1724,-5.3691,-5.4781,-5.5465,-5.7421,-5.834,-5.8549,-5.8624,-5.7777,-5.6606,-5.6606,-5.6606,-5.6575,-5.6523,-5.6434,-5.6399,-5.6316,-5.6297,-5.6447,-5.7191,-5.7463,-5.793,-5.9322,-6.0409,-6.1342,-6.1886,-6.2585,-6.309,-6.309,-6.2157,-6.0798,-5.8926,-5.1049,-4.3125,-3.7871,-3.349,-3.1942,-3.5465,0.0,0.0,0.0,0.0,-3.7982,0.0,0.0,0.0,0.0,0.0,0.0,0.0,0.0,0.0,0.0,-5.8979,-6.1033,0.0,-6.3786,-6.5466,-7.0887,-6.9818,-7.0481,-7.2692,-7.4705,-7.5491,-7.5424,-7.6324,-7.6687,-7.6687,-7.6687,-7.7114,-7.7852,-7.8901,-7.9843,-8.0697,-8.1591,-8.1911,-8.1929,-2.9561,-2.8918,-2.9489,-3.2513,-3.6008,-4.0077,-4.5254,-4.9148,-5.1794,-5.2593,-5.3509,-5.3908,-5.3391,-5.3752,-5.3871,-5.347,-5.2988,-5.2908,-5.3389,-5.3334,-5.3487,-5.3979,-5.3162,-5.2296,-5.1378,-5.0545,-4.863,-4.5588,-3.7762,-3.2436,0.0,0.0,0.0,0.0,0.0,-2.8271,0.0,-4.1601,-4.6625,-5.0801,-5.4381,-5.6046,-5.6542,-5.835,-5.9038,-5.9018,-5.9078,-5.8582,-5.7835,-5.7382,-5.6957,-5.6577,-5.6483,-5.6426,-5.6394,-5.6315,-5.6619,-5.7075,-5.7502,-5.824,-5.9088,-5.9904,-6.1458,-6.2857,-6.3284,-6.4022,-6.4605,-6.4605,-6.3945,-6.1878,-5.7048,-5.2389,-4.7714,-4.2969,-3.896,-3.735,-3.9937,0.0,-3.8709,0.0,0.0,0.0,0.0,0.0,0.0,0.0,0.0,0.0,0.0,0.0,0.0,0.0,0.0,0.0,-6.4552,0.0,-6.4916,-7.0423,-6.9645,-7.0819,-7.3774,-7.5016,-7.5573,-7.558,-7.6354,-7.6687,-7.6687,-7.6687,-7.7464,-7.8707,-7.9134,-8.0105,-8.1349,-8.1737,-8.1892,-8.1902,-3.519,-3.3514,-3.2796,-3.5568,-3.8805,-4.2371,-4.6379,-5.0828,-5.3849,-5.4227,-5.563,-5.6098,-5.4693,-5.5162,-5.5279,-5.4533,-5.4638,-5.4477,-5.394,-5.4591,-5.4786,-5.4292,-5.3947,-5.3272,-5.2149,-5.2182,-5.0577,-4.7249,-3.9831,-3.4628,-3.1323,0.0,0.0,0.0,0.0,-3.1667,-3.5468,-4.3088,-4.7762,-5.0424,-5.5082,-5.7313,-5.7987,-5.9122,-5.9551,-5.9562,-5.9645,-5.9544,-5.9267,-5.8562,-5.7791,-5.7098,-5.6978,-5.6948,-5.6917,-5.6864,-5.7301,-5.7891,-5.8085,-5.9244,-6.0409,-6.0604,-6.2468,-6.4255,-6.4255,-6.4877,-6.5491,-6.5491,-6.4838,-6.2461,-5.6685,-5.4879,-5.2447,-4.6989,-4.4017,-4.2554,-4.2981,0.0,0.0,0.0,0.0,0.0,-3.8958,0.0,0.0,0.0,0.0,0.0,0.0,0.0,0.0,0.0,0.0,-5.982,-6.1874,0.0,-6.4432,-6.9733,-6.9367,-7.1002,-7.4322,-7.5184,-7.5642,-7.5793,-7.6415,-7.6687,-7.6726,-7.692,-7.7891,-7.9328,-7.9484,-8.0533,-8.1892,-8.1892,-8.1892,-8.1902,-3.9099,-4.0054,-4.1943,-4.5351,-4.566,-4.7377,-5.3242,-5.3358,-5.3311,-5.497,-5.602,-5.6528,-5.6372,-5.645,-5.5194,-5.2052,-5.5228,-5.5106,-4.9673,-5.5165,-5.7551,-5.5188,-5.6539,-5.6548,-5.4867,-5.4882,-5.3594,-5.0886,-4.4624,-3.9015,-3.3972,-2.6812,-2.4752,-2.727,-3.2713,-3.871,-4.4811,-4.6607,-5.0108,-5.4652,-5.7566,-5.8758,-5.897,-6.0711,-6.1353,-6.1378,-6.1446,-6.0957,-6.0266,-6.0113,-5.9492,-5.8789,-5.8767,-5.8715,-5.8632,-5.8584,-5.8622,-5.8855,-5.9632,-6.0565,-6.1451,-6.2274,-6.3789,-6.5102,-6.5102,-6.577,-6.6392,-6.6392,-6.5693,-6.4442,-6.2267,-6.1195,-5.8431,-5.1703,-4.91,-4.7445,-4.5954,0.0,-4.3359,-4.6411,0.0,0.0,0.0,-3.3969,0.0,0.0,0.0,0.0,0.0,0.0,0.0,-5.1668,-5.3429,-5.5913,-5.9238,-6.1534,-6.5636,-7.1443,-6.9997,-7.1036,-7.4255,-7.5164,-7.5953,-7.6609,-7.6687,-7.6687,-7.6764,-7.7541,-7.8435,-7.9367,-8.0183,-8.1077,-8.1892,-8.1892,-8.1892,-8.1892,-4.4324,-4.3112,-4.2929,-4.5351,-4.6363,-4.8192,-5.222,-5.4017,-5.4995,-5.5195,-5.6442,-5.7334,-5.7334,-5.7321,-5.676,-5.5348,-5.7304,-5.7536,-5.5098,-5.8036,-5.917,-5.7601,-5.7726,-5.7263,-5.6053,-5.555,-5.4298,-5.2179,-4.2985,-3.7378,-3.5207,-2.8762,-2.8778,-3.4407,-3.9626,-4.4356,-4.8553,-5.1525,-5.4567,-5.747,-5.9139,-5.9744,-5.9888,-6.1137,-6.1577,-6.1532,-6.1627,-6.1399,-6.1052,-6.1093,-6.0194,-5.9061,-5.8964,-5.8905,-5.8895,-5.8817,-5.9166,-5.9788,-6.0642,-6.1536,-6.2391,-6.3245,-6.4333,-6.518,-6.518,-6.5887,-6.6508,-6.6508,-6.5809,-6.5001,-6.439,-6.3554,-6.1789,-5.8057,-5.686,-5.5774,-5.4095,0.0,0.0,-5.4897,0.0,0.0,0.0,0.0,0.0,0.0,0.0,0.0,0.0,0.0,0.0,-5.3352,0.0,-6.0544,-6.5028,-6.5074,-6.7578,-7.2461,-7.127,-7.2205,-7.4962,-7.4826,-7.5478,-7.6687,-7.6687,-7.6687,-7.6764,-7.7658,-7.8513,-7.9367,-8.0261,-8.1116,-8.1892,-8.1892,-8.1892,-8.1892,-4.9631,-4.7695,-4.6473,-4.7917,-4.9215,-5.0408,-5.1498,-5.4377,-5.6167,-5.5285,-5.6711,-5.7772,-5.7773,-5.8005,-5.7843,-5.706,-5.8272,-5.8507,-5.7214,-5.9171,-5.9872,-5.8726,-5.8818,-5.8503,-5.7738,-5.6854,-5.5685,-5.4197,-4.5478,-4.0672,-3.9546,-3.4684,-3.5615,-4.1532,-4.6463,-4.9839,-5.2052,-5.5604,-5.7678,-5.865,-5.9862,-6.0312,-6.0393,-6.1285,-6.1562,-6.1522,-6.1562,-6.1562,-6.1521,-6.1543,-6.0762,-5.9789,-5.9701,-5.9635,-5.9627,-5.9581,-6.0021,-6.072,-6.1847,-6.2624,-6.3362,-6.445,-6.5149,-6.5569,-6.5569,-6.6081,-6.6516,-6.6538,-6.604,-6.5634,-6.5705,-6.5211,-6.3865,-6.0919,-6.127,-6.088,-5.7931,-5.7498,0.0,-5.7655,-5.4125,-5.2171,-5.3457,-4.5632,0.0,0.0,0.0,0.0,0.0,0.0,0.0,0.0,0.0,0.0,-6.6118,-6.5943,-6.812,-7.2603,-7.1955,-7.284,-7.5094,-7.4977,-7.5599,-7.6687,-7.6687,-7.6687,-7.6803,-7.793,-7.8746,-7.9406,-8.0533,-8.1349,-8.1892,-8.1892,-8.1892,-8.1892,-5.4775,-5.5062,-5.5294,-5.6023,-5.6217,-5.5447,-5.2887,-5.471,-5.6085,-5.5228,-5.667,-5.7765,-5.7711,-5.8456,-5.7953,-5.5341,-5.7518,-5.7166,-5.2765,-5.74,-5.952,-5.7809,-6.0108,-6.1128,-6.0356,-5.9489,-5.8633,-5.7734,-5.4999,-5.1874,-4.8416,-4.6623,-4.6715,-4.8588,-5.3019,-5.5475,-5.6437,-5.8191,-5.846,-5.7865,-5.9675,-6.0379,-6.0412,-6.1285,-6.16,-6.16,-6.1601,-6.1601,-6.16,-6.1534,-6.1502,-6.1474,-6.147,-6.1412,-6.1381,-6.1373,-6.1373,-6.1762,-6.3517,-6.3983,-6.4372,-6.6042,-6.647,-6.647,-6.647,-6.6508,-6.6531,-6.6607,-6.6581,-6.66,-6.6657,-6.6711,-6.4786,-5.8722,-6.0652,-6.0779,-5.4801,-5.3969,-5.3341,-5.1596,-4.3167,-4.1449,-5.1635,-4.2593,0.0,0.0,0.0,0.0,0.0,-4.525,-4.7144,-5.2251,-5.1707,-5.3808,-5.8976,-6.2359,-6.6637,-7.1706,-7.1694,-7.2569,-7.4278,-7.591,-7.6687,-7.6687,-7.6687,-7.6687,-7.6842,-7.8552,-7.929,-7.9484,-8.1193,-8.1892,-8.1892,-8.1892,-8.1892,-8.1892,-5.1087,-5.3676,-5.5584,-5.3975,-5.5178,-5.6033,-5.5239,-5.628,-5.7108,-5.684,-5.8373,-5.9512,-5.9451,-5.866,-5.7789,-5.6965,-5.6558,-5.6248,-5.6034,-5.7574,-5.8553,-5.8585,-5.8787,-5.8241,-5.6824,-5.7105,-5.6835,-5.5975,-5.2182,-4.9766,-4.8607,-4.9237,-5.2001,-5.6419,-5.7253,-5.842,-5.982,-5.9805,-6.0013,-6.0357,-6.0971,-6.1211,-6.1209,-6.1504,-6.1607,-6.1607,-6.1647,-6.1637,-6.1579,-6.1526,-6.1486,-6.1489,-6.1466,-6.1415,-6.1412,-6.1412,-6.1412,-6.1762,-6.3517,-6.3983,-6.4411,-6.6081,-6.6508,-6.6508,-6.6508,-6.6508,-6.6531,-6.6607,-6.6581,-6.6618,-6.675,-6.6775,-6.5574,-6.1868,-6.3686,-6.4281,-6.0549,-6.0035,-5.984,-5.9254,-5.4979,-5.404,-5.9134,-5.2698,0.0,0.0,0.0,0.0,0.0,-4.9755,-5.3667,-5.7728,-5.984,-6.2815,-6.6892,-6.6167,-6.7803,-7.1763,-7.1683,-7.2547,-7.4278,-7.5949,-7.6687,-7.6687,-7.6687,-7.6687,-7.6842,-7.859,-7.929,-7.9484,-8.1232,-8.1892,-8.1892,-8.1892,-8.1892,-8.1892,-5.1905,-5.4346,-5.599,-5.4264,-5.5264,-5.6106,-5.5429,-5.6636,-5.7492,-5.7133,-5.8953,-6.0378,-6.0684,-5.9477,-5.878,-5.9084,-5.7221,-5.6758,-5.8492,-5.8306,-5.8514,-5.943,-5.9214,-5.8575,-5.7538,-5.7727,-5.7564,-5.7019,-5.43,-5.2966,-5.2941,-5.4041,-5.6541,-6.0099,-5.9865,-6.0398,-6.146,-6.1578,-6.1946,-6.2464,-6.2184,-6.2108,-6.2065,-6.1749,-6.1839,-6.2116,-6.2158,-6.2343,-6.2559,-6.2531,-6.2489,-6.2441,-6.2413,-6.2373,-6.2235,-6.1606,-6.1645,-6.2196,-6.3634,-6.4216,-6.4799,-6.6159,-6.6508,-6.6508,-6.6508,-6.6553,-6.6607,-6.6651,-6.6674,-6.6683,-6.6794,-6.6805,-6.6262,-6.4626,-6.5733,-6.6246,-6.459,-6.3797,-6.2659,-6.0714,-5.8776,-5.8453,-6.0753,-5.7863,-5.5987,0.0,0.0,0.0,0.0,-5.3194,-5.5186,-6.1584,-6.3817,-6.6459,-6.965,-6.7968,-6.8674,-7.1753,-7.2309,-7.3152,-7.4278,-7.5949,-7.6687,-7.6687,-7.6687,-7.6687,-7.6842,-7.859,-7.929,-7.9484,-8.1232,-8.1892,-8.1892,-8.1892,-8.1892,-8.1892,-5.5866,-5.6372,-5.6511,-5.6254,-5.6351,-5.5922,-5.4251,-5.6124,-5.747,-5.6683,-5.8734,-6.0571,-6.1324,-6.0741,-6.0592,-6.1439,-5.9132,-5.8285,-5.9911,-5.9251,-5.9198,-6.0073,-6.076,-6.1123,-6.113,-6.0403,-6.0083,-6.0195,-6.0203,-6.0176,-6.0099,-6.0176,-6.0176,-6.0222,-6.1031,-6.1453,-6.1602,-6.3234,-6.3951,-6.394,-6.3275,-6.2968,-6.289,-6.216,-6.2371,-6.3073,-6.3013,-6.352,-6.4193,-6.4197,-6.4164,-6.4096,-6.4037,-6.4007,-6.368,-6.1963,-6.2119,-6.2973,-6.3789,-6.4605,-6.5413,-6.6275,-6.6508,-6.6508,-6.6516,-6.6581,-6.6707,-6.6712,-6.6755,-6.6794,-6.679,-6.6795,-6.6795,-6.6795,-6.6795,-6.6756,-6.6639,-6.5172,-6.2311,-5.7411,-5.6179,-5.6446,-5.8234,-5.9254,-6.1666,-6.6096,0.0,0.0,0.0,0.0,-5.3483,-6.4402,-6.4753,-6.5907,-6.8354,-6.8275,-6.9432,-7.1806,-7.3496,-7.4278,-7.4278,-7.5949,-7.6687,-7.6687,-7.6687,-7.6726,-7.692,-7.859,-7.9328,-7.9562,-8.1232,-8.1892,-8.1892,-8.1892,-8.1892,-8.1892,-5.1831,-5.432,-5.6131,-5.4669,-5.6067,-5.7215,-5.6747,-5.8305,-5.9432,-5.9299,-6.0332,-6.122,-6.1433,-6.1316,-6.1232,-6.1408,-5.907,-5.8013,-5.9056,-5.8921,-5.8909,-5.9102,-5.8748,-5.8187,-5.7567,-5.7977,-5.8856,-6.0112,-6.0773,-6.0759,-6.0099,-6.0798,-6.1084,-6.111,-6.131,-6.1428,-6.1584,-6.2562,-6.3029,-6.3148,-6.363,-6.38,-6.3806,-6.3672,-6.3747,-6.3902,-6.3952,-6.4096,-6.4289,-6.4216,-6.4201,-6.4142,-6.4048,-6.4001,-6.3787,-6.2716,-6.3012,-6.375,-6.3945,-6.4605,-6.5413,-6.6275,-6.6508,-6.6524,-6.6549,-6.6581,-6.6635,-6.6755,-6.6775,-6.6794,-6.679,-6.6795,-6.6795,-6.6795,-6.6795,-6.6321,-6.5013,-6.3872,-6.2492,-6.0637,-6.0808,-6.2031,-6.446,-6.604,-6.5814,-6.311,-6.2323,-6.2398,-6.3422,-6.0216,-6.2284,-7.0837,-7.1111,-7.1377,-7.1953,-7.1897,-7.2119,-7.2625,-7.4373,-7.4822,-7.4278,-7.5949,-7.6687,-7.6687,-7.6687,-7.7075,-7.7775,-7.8862,-7.9678,-8.0416,-8.1465,-8.1892,-8.1892,-8.1892,-8.1892,-8.1892,-5.3192,-5.4931,-5.6347,-5.5701,-5.6741,-5.7915,-5.8642,-5.9516,-6.0261,-6.0708,-6.1136,-6.1415,-6.1434,-6.1434,-6.1401,-6.1237,-6.0053,-5.951,-5.9977,-6.0344,-6.0583,-6.0592,-6.0149,-5.9716,-5.9249,-5.9288,-5.9766,-6.0708,-6.1154,-6.1161,-6.0767,-6.12,-6.1408,-6.1453,-6.1842,-6.2005,-6.2121,-6.3364,-6.3887,-6.3932,-6.445,-6.4634,-6.4602,-6.4273,-6.4404,-6.4759,-6.4801,-6.5106,-6.5455,-6.5382,-6.5397,-6.5371,-6.5285,-6.5244,-6.5061,-6.4175,-6.4506,-6.5226,-6.5615,-6.6072,-6.6443,-6.6521,-6.6588,-6.6575,-6.6581,-6.6652,-6.6711,-6.6779,-6.6798,-6.6814,-6.6792,-6.6795,-6.6795,-6.6795,-6.6123,-6.5289,-6.4336,-6.3113,-6.2434,-6.2742,-6.3191,-6.4691,-6.7712,-6.8856,-6.8552,-6.6556,-6.5295,-6.5331,-6.6907,-6.5842,-6.7676,-7.3116,-7.326,-7.3396,-7.374,-7.3657,-7.3555,-7.3501,-7.4861,-7.5249,-7.4822,-7.6104,-7.6687,-7.6687,-7.6687,-7.7192,-7.8085,-7.894,-7.9795,-8.0688,-8.1543,-8.1892,-8.1892,-8.1892,-8.1892,-8.1892,-5.645,-5.6545,-5.6744,-5.7559,-5.7741,-5.8309,-5.9879,-6.0215,-6.0565,-6.1296,-6.1412,-6.1412,-6.1412,-6.1412,-6.1275,-6.1011,-6.1454,-6.1652,-6.1476,-6.2409,-6.2921,-6.2832,-6.2835,-6.2788,-6.2701,-6.1963,-6.1518,-6.1389,-6.1518,-6.157,-6.1472,-6.1415,-6.1428,-6.1528,-6.2348,-6.2724,-6.2847,-6.4552,-6.527,-6.5241,-6.5438,-6.5473,-6.5405,-6.4719,-6.4941,-6.5577,-6.5657,-6.6249,-6.6953,-6.6859,-6.691,-6.6961,-6.6826,-6.6759,-6.6605,-6.5977,-6.625,-6.6849,-6.7464,-6.7779,-6.7703,-6.6815,-6.6669,-6.6696,-6.6651,-6.6716,-6.6784,-6.6798,-6.6817,-6.6795,-6.6795,-6.6795,-6.6522,-6.5741,-6.4821,-6.3943,-6.3159,-6.2434,-6.2543,-6.4017,-6.4535,-6.5992,-6.9098,-6.9528,-7.027,-7.187,-6.9937,-7.005,-7.3116,-7.1146,-7.1072,-7.3598,-7.3629,-7.3977,-7.4744,-7.4625,-7.4589,-7.4589,-7.5444,-7.5793,-7.5716,-7.6531,-7.6842,-7.6687,-7.6687,-7.727,-7.8241,-7.8979,-7.9872,-8.0882,-8.1621,-8.1892,-8.1892,-8.1892,-8.1892,-8.1892,-5.6567,-5.6545,-5.6744,-5.7559,-5.8247,-5.9009,-5.9957,-6.072,-6.1257,-6.1373,-6.1412,-6.1412,-6.1412,-6.1412,-6.1275,-6.1011,-6.2345,-6.2791,-6.1869,-6.3272,-6.3902,-6.34,-6.3361,-6.3171,-6.2694,-6.2581,-6.2153,-6.1388,-6.2153,-6.2134,-6.1402,-6.1396,-6.1427,-6.1523,-6.2385,-6.2774,-6.2869,-6.4558,-6.5311,-6.5355,-6.6114,-6.6379,-6.6327,-6.6223,-6.6303,-6.6434,-6.6475,-6.7086,-6.7721,-6.7031,-6.7301,-6.7762,-6.7042,-6.6779,-6.6884,-6.7423,-6.767,-6.7609,-6.6971,-6.7314,-6.7703,-6.6815,-6.6669,-6.6707,-6.6702,-6.675,-6.6801,-6.6784,-6.6792,-6.6795,-6.6795,-6.6795,-6.5387,-6.1007,-6.2473,-6.2691,-5.8308,-6.1237,-6.39,-6.4177,-6.6151,-6.8,-6.9294,-7.0074,-7.0933,-7.1909,-7.1633,-7.1945,-7.3234,-7.2918,-7.3488,-7.5272,-7.5312,-7.5687,-7.6404,-7.6358,-7.6298,-7.6337,-7.7192,-7.7231,-7.6531,-7.7425,-7.7386,-7.6687,-7.6687,-7.7619,-7.9095,-7.9251,-8.0261,-8.1698,-8.1854,-8.1892,-8.1892,-8.1892,-8.1892,-8.1892,-5.6606,-5.6533,-5.6878,-5.8178,-5.8654,-5.9277,-6.0604,-6.114,-6.1412,-6.1412,-6.1412,-6.1412,-6.1412,-6.1412,-6.1236,-6.0815,-6.2326,-6.2962,-6.2213,-6.3986,-6.4997,-6.4762,-6.4227,-6.3643,-6.2935,-6.3068,-6.2942,-6.2593,-6.3114,-6.3223,-6.2846,-6.2815,-6.2846,-6.2912,-6.3336,-6.3486,-6.3587,-6.4785,-6.5583,-6.6011,-6.6397,-6.681,-6.7168,-6.6711,-6.6854,-6.728,-6.7309,-6.7936,-6.8622,-6.8265,-6.8391,-6.8668,-6.8242,-6.8085,-6.8084,-6.8023,-6.8624,-6.9167,-6.8276,-6.8644,-6.9095,-6.8271,-6.8062,-6.8119,-6.8119,-6.8152,-6.818,-6.8135,-6.8189,-6.8195,-6.8138,-6.8189,-6.742,-6.5033,-6.5172,-6.4762,-6.2375,-6.4095,-6.5585,-6.5585,-6.7484,-6.9137,-7.0035,-7.0465,-7.105,-7.1948,-7.2417,-7.2859,-7.3232,-7.3702,-7.4452,-7.5612,-7.6056,-7.6448,-7.6731,-7.7196,-7.7153,-7.6726,-7.758,-7.7541,-7.6726,-7.7114,-7.7075,-7.6726,-7.7192,-7.8124,-7.9328,-7.9795,-8.0766,-8.1892,-8.1892,-8.1892,-8.1892,-8.1892,-8.1892,-8.1892,-5.6597,-5.6468,-5.6918,-5.8661,-5.8892,-5.9399,-6.114,-6.1412,-6.1412,-6.1412,-6.1412,-6.1412,-6.1412,-6.1344,-6.1122,-6.0623,-6.1901,-6.2533,-6.2117,-6.387,-6.5139,-6.5641,-6.4846,-6.4077,-6.3411,-6.3621,-6.365,-6.3487,-6.3981,-6.4139,-6.3988,-6.4021,-6.4058,-6.4081,-6.4315,-6.4498,-6.4738,-6.5551,-6.6276,-6.6905,-6.7058,-6.7408,-6.7733,-6.7284,-6.7532,-6.8111,-6.8171,-6.8802,-6.9536,-6.9354,-6.9408,-6.9528,-6.9288,-6.921,-6.9062,-6.8468,-6.9321,-7.0368,-6.9522,-6.9926,-7.0328,-6.9506,-6.9327,-6.933,-6.9272,-6.9344,-6.9363,-6.9323,-6.9348,-6.9366,-6.9338,-6.9354,-6.902,-6.7807,-6.7162,-6.6521,-6.5744,-6.6287,-6.6954,-6.7351,-6.8775,-6.9957,-7.066,-7.0894,-7.1285,-7.1948,-7.2781,-7.3347,-7.3476,-7.4295,-7.5024,-7.5595,-7.6381,-7.6696,-7.6415,-7.727,-7.7347,-7.6726,-7.758,-7.7658,-7.6998,-7.6998,-7.6881,-7.6764,-7.7619,-7.8474,-7.9367,-8.0222,-8.1116,-8.1892,-8.1892,-8.1892,-8.1892,-8.1892,-8.1892,-8.1892,-5.6527,-5.6386,-5.6858,-5.861,-5.8862,-5.9399,-6.114,-6.1412,-6.1412,-6.1412,-6.1412,-6.1412,-6.1412,-6.1164,-6.0896,-6.065,-6.1236,-6.1476,-6.1207,-6.2096,-6.3454,-6.5253,-6.4742,-6.4372,-6.4295,-6.4381,-6.4008,-6.314,-6.4289,-6.4414,-6.3649,-6.3934,-6.4052,-6.4058,-6.4938,-6.5732,-6.645,-6.734,-6.7709,-6.7806,-6.8649,-6.8539,-6.7896,-6.8708,-6.9033,-6.9111,-6.9085,-6.9655,-7.0275,-6.947,-6.9731,-7.0263,-6.9474,-6.921,-6.9171,-6.9135,-6.9796,-7.0426,-6.9616,-6.9969,-7.0368,-6.9514,-6.9348,-6.9354,-6.9236,-6.9327,-6.9363,-6.9323,-6.9348,-6.9411,-6.9408,-6.9411,-6.7846,-6.3037,-6.4815,-6.5705,-6.2521,-6.4815,-6.739,-6.9015,-7.0035,-7.0621,-7.0699,-7.1441,-7.1948,-7.1987,-7.2766,-7.3554,-7.4375,-7.5099,-7.5553,-7.5619,-7.6382,-7.643,-7.5608,-7.6376,-7.6764,-7.6726,-7.758,-7.7969,-7.7891,-7.7891,-7.7464,-7.6764,-7.7619,-7.8474,-7.9367,-8.0222,-8.1116,-8.1892,-8.1892,-8.1892,-8.1892,-8.1892,-8.1892,-8.1892,-5.6482,-5.6844,-5.7476,-5.8676,-5.929,-6.0021,-6.1218,-6.1412,-6.1412,-6.1412,-6.1412,-6.1412,-6.1412,-6.1148,-6.0876,-6.0612,-6.1146,-6.1385,-6.1131,-6.1932,-6.2741,-6.346,-6.3762,-6.3726,-6.3431,-6.4142,-6.4378,-6.4144,-6.5324,-6.5746,-6.5468,-6.5609,-6.5648,-6.5648,-6.6555,-6.7047,-6.7262,-6.8241,-6.8902,-6.9275,-6.9172,-6.9253,-6.9435,-6.9273,-6.9558,-7.0006,-7.0006,-7.0569,-7.1254,-7.0886,-7.0964,-7.1165,-7.0797,-7.0674,-7.0692,-7.0722,-7.0642,-7.0571,-7.0815,-7.1163,-7.1384,-7.1072,-7.1003,-7.1006,-7.0941,-7.0997,-7.1003,-7.0926,-7.0987,-7.1006,-7.0944,-7.1,-7.0387,-6.8393,-6.9168,-6.9556,-6.8273,-6.9207,-7.0261,-7.0933,-7.1285,-7.1519,-7.1519,-7.225,-7.2729,-7.2729,-7.3942,-7.4811,-7.5159,-7.5418,-7.5528,-7.5548,-7.5821,-7.5829,-7.5482,-7.6298,-7.6687,-7.6726,-7.758,-7.7736,-7.7192,-7.7192,-7.7308,-7.7541,-7.8435,-7.929,-8.0183,-8.1038,-8.1582,-8.1892,-8.1892,-8.1892,-8.1892,-8.1892,-8.1892,-8.1892,-5.6449,-5.7045,-5.7875,-5.8725,-5.9549,-6.037,-6.1257,-6.1412,-6.1412,-6.1412,-6.1412,-6.1412,-6.1412,-6.1095,-6.0804,-6.0639,-6.0835,-6.0936,-6.0736,-6.1614,-6.2233,-6.2499,-6.303,-6.3343,-6.3288,-6.4065,-6.4674,-6.5065,-6.5943,-6.6406,-6.6439,-6.6567,-6.6607,-6.6646,-6.7496,-6.796,-6.8108,-6.8831,-6.9547,-7.0223,-6.9724,-6.9935,-7.0446,-7.0122,-7.0407,-7.0892,-7.0892,-7.1293,-7.1811,-7.1699,-7.1718,-7.1704,-7.163,-7.1598,-7.1622,-7.1654,-7.1297,-7.1015,-7.1604,-7.1864,-7.1946,-7.1975,-7.1961,-7.1984,-7.1976,-7.1982,-7.1979,-7.1901,-7.1963,-7.1982,-7.1955,-7.1972,-7.1987,-7.1987,-7.1987,-7.1987,-7.1987,-7.1987,-7.1987,-7.1987,-7.2221,-7.2385,-7.2362,-7.3122,-7.3593,-7.3588,-7.484,-7.5698,-7.5924,-7.5665,-7.5482,-7.5482,-7.5211,-7.5211,-7.5482,-7.6298,-7.657,-7.6337,-7.7192,-7.727,-7.6726,-7.6998,-7.7425,-7.8046,-7.9212,-8.0067,-8.0688,-8.1543,-8.1892,-8.1892,-8.1892,-8.1892,-8.1892,-8.1892,-8.1892,-8.1892,-5.6308,-5.7002,-5.7852,-5.8661,-5.9516,-6.0409,-6.1257,-6.1412,-6.1412,-6.1412,-6.1412,-6.1412,-6.1412,-6.0935,-6.0589,-6.0589,-6.0156,-5.9902,-5.9902,-6.0921,-6.1898,-6.2777,-6.2815,-6.3288,-6.4372,-6.4411,-6.4846,-6.5705,-6.5964,-6.6108,-6.6118,-6.6439,-6.6606,-6.6645,-6.7422,-6.8278,-6.9087,-6.9088,-6.9601,-7.0377,-7.0459,-7.0499,-7.0608,-7.1455,-7.1778,-7.1817,-7.1817,-7.1817,-7.1811,-7.1699,-7.1718,-7.1704,-7.163,-7.1598,-7.1598,-7.1598,-7.1633,-7.17,-7.17,-7.1737,-7.1805,-7.1873,-7.1942,-7.1982,-7.1905,-7.1966,-7.1979,-7.1901,-7.1966,-7.1987,-7.1987,-7.2026,-7.2026,-7.1987,-7.2026,-7.2026,-7.1987,-7.1987,-7.1987,-7.2026,-7.2768,-7.3295,-7.3203,-7.3984,-7.4487,-7.4405,-7.5143,-7.5917,-7.6657,-7.591,-7.5482,-7.5482,-7.4667,-7.4628,-7.5482,-7.6298,-7.6298,-7.5521,-7.6337,-7.6687,-7.6726,-7.7619,-7.8008,-7.8124,-7.9834,-8.061,-8.0688,-8.1543,-8.1892,-8.1892,-8.1892,-8.1892,-8.1892,-8.1892,-8.1892,-8.1892,-5.7086,-5.789,-5.87,-5.9555,-6.0448,-6.1109,-6.1373,-6.1412,-6.1412,-6.1412,-6.1412,-6.1412,-6.1412,-6.0403,-5.9973,-6.055,-5.9777,-5.9602,-6.0341,-6.1141,-6.1837,-6.242,-6.2846,-6.3012,-6.2952,-6.4121,-6.4966,-6.5333,-6.6054,-6.6389,-6.6398,-6.6531,-6.6553,-6.657,-6.7415,-6.786,-6.8014,-6.876,-6.9212,-6.9359,-6.9505,-6.9967,-7.0598,-7.0842,-7.131,-7.1817,-7.1817,-7.1817,-7.1811,-7.1699,-7.1718,-7.1704,-7.163,-7.1598,-7.1598,-7.1598,-7.1599,-7.1637,-7.1637,-7.1659,-7.1733,-7.1802,-7.1822,-7.1872,-7.1871,-7.1908,-7.1943,-7.1945,-7.1982,-7.1987,-7.1987,-7.2495,-7.2729,-7.2104,-7.2495,-7.269,-7.2104,-7.1987,-7.2221,-7.2846,-7.3158,-7.349,-7.4062,-7.4834,-7.5264,-7.5255,-7.5949,-7.6233,-7.5871,-7.5638,-7.5211,-7.4628,-7.4939,-7.5249,-7.5482,-7.5754,-7.6026,-7.6337,-7.6609,-7.7036,-7.7619,-7.7891,-7.8668,-7.9834,-8.0377,-8.096,-8.1543,-8.1776,-8.1892,-8.1892,-8.1892,-8.1892,-8.1892,-8.1892,-8.1892,-8.1892,-5.7441,-5.826,-5.9088,-5.9943,-6.0837,-6.1412,-6.1412,-6.1412,-6.1412,-6.1412,-6.1412,-6.1412,-6.1412,-6.0285,-5.9693,-6.0184,-5.9485,-5.9459,-6.0527,-6.1301,-6.1873,-6.2269,-6.3399,-6.3826,-6.3443,-6.4489,-6.5239,-6.5732,-6.6237,-6.6508,-6.6508,-6.6531,-6.6538,-6.657,-6.744,-6.7744,-6.7653,-6.8302,-6.8754,-6.8948,-6.8752,-6.9202,-7.0069,-7.0419,-7.0859,-7.1332,-7.1683,-7.18,-7.1788,-7.1738,-7.1697,-7.1661,-7.1614,-7.1598,-7.1598,-7.1598,-7.1598,-7.1598,-7.1598,-7.187,-7.2108,-7.1799,-7.2022,-7.2307,-7.2372,-7.2649,-7.2886,-7.2929,-7.2967,-7.2966,-7.2995,-7.3422,-7.3611,-7.3086,-7.3158,-7.3119,-7.2573,-7.2221,-7.2307,-7.3146,-7.3578,-7.4099,-7.4857,-7.5638,-7.5923,-7.5599,-7.5969,-7.6026,-7.5521,-7.5172,-7.5055,-7.5172,-7.5405,-7.5638,-7.5988,-7.5988,-7.6221,-7.6687,-7.7036,-7.7503,-7.8008,-7.8707,-7.96,-8.061,-8.096,-8.1426,-8.1892,-8.1892,-8.1892,-8.1892,-8.1892,-8.1892,-8.1892,-8.1892,-8.1892,-8.1892,-5.7541,-5.835,-5.9205,-6.006,-6.0875,-6.1412,-6.1412,-6.1412,-6.1412,-6.1412,-6.1412,-6.1412,-6.1412,-6.0381,-5.9725,-5.9687,-5.9353,-5.96,-6.0712,-6.1547,-6.2188,-6.2539,-6.4161,-6.5095,-6.518,-6.5258,-6.5732,-6.6508,-6.6508,-6.6508,-6.6508,-6.6508,-6.6531,-6.6638,-6.734,-6.7697,-6.7687,-6.7697,-6.8132,-6.8829,-6.8013,-6.8189,-6.9078,-6.9935,-7.0304,-7.0491,-7.1381,-7.1725,-7.1803,-7.1725,-7.1661,-7.1598,-7.1598,-7.1598,-7.1598,-7.1598,-7.1675,-7.1714,-7.1714,-7.2336,-7.2802,-7.1947,-7.2501,-7.3296,-7.3147,-7.3771,-7.4392,-7.4399,-7.4402,-7.4418,-7.4489,-7.453,-7.457,-7.4508,-7.3954,-7.3486,-7.3408,-7.2705,-7.2525,-7.332,-7.4101,-7.4904,-7.5652,-7.6286,-7.6345,-7.5577,-7.5482,-7.5482,-7.5405,-7.4783,-7.5094,-7.657,-7.5949,-7.5949,-7.6687,-7.6764,-7.6842,-7.6842,-7.7619,-7.8085,-7.828,-7.9872,-8.0649,-8.0766,-8.1543,-8.1892,-8.1892,-8.1892,-8.1892,-8.1892,-8.1892,-8.1892,-8.1892,-8.1892,-8.1892,-8.1892,-5.8389,-5.9244,-6.0099,-6.0992,-6.1257,-6.1412,-6.1412,-6.1412,-6.1412,-6.1412,-6.1412,-6.1412,-6.1412,-6.042,-5.9773,-5.9687,-6.0063,-6.0806,-6.215,-6.266,-6.3422,-6.4535,-6.4149,-6.436,-6.518,-6.5887,-6.6314,-6.6508,-6.6508,-6.6508,-6.6508,-6.6508,-6.6516,-6.6524,-6.6703,-6.6788,-6.6796,-6.6857,-6.6988,-6.7118,-6.6951,-6.7022,-6.7319,-6.8151,-6.8921,-6.9663,-7.0497,-7.1225,-7.1797,-7.1736,-7.1645,-7.1598,-7.1598,-7.1598,-7.1598,-7.1598,-7.2064,-7.2608,-7.2608,-7.3268,-7.3695,-7.2841,-7.383,-7.4651,-7.3308,-7.3719,-7.4324,-7.4389,-7.4402,-7.4405,-7.4418,-7.4928,-7.5167,-7.4512,-7.4788,-7.4867,-7.424,-7.4006,-7.4197,-7.497,-7.5243,-7.5684,-7.6465,-7.6084,-7.568,-7.553,-7.5482,-7.5211,-7.4511,-7.556,-7.6026,-7.5754,-7.6182,-7.6531,-7.6687,-7.7386,-7.7736,-7.7736,-7.7891,-7.8707,-8.0067,-8.0416,-8.096,-8.1621,-8.1815,-8.1892,-8.1892,-8.1892,-8.1892,-8.1892,-8.1892,-8.1892,-8.1892,-8.1892,-8.1892,-8.1892,-5.8622,-5.9516,-6.037,-6.1257,-6.1412,-6.1412,-6.1412,-6.1412,-6.1412,-6.1412,-6.1412,-6.1412,-6.1412,-6.0142,-5.932,-5.9273,-5.9485,-6.0316,-6.1988,-6.253,-6.3158,-6.3969,-6.3867,-6.4053,-6.4605,-6.546,-6.5887,-6.5887,-6.6314,-6.6508,-6.6508,-6.6508,-6.6508,-6.6508,-6.6508,-6.6508,-6.647,-6.6104,-6.5917,-6.5878,-6.5492,-6.5362,-6.5537,-6.6815,-6.7579,-6.8232,-6.9901,-7.1057,-7.1738,-7.1722,-7.1676,-7.1598,-7.1598,-7.1598,-7.1675,-7.2103,-7.2258,-7.2375,-7.2802,-7.3229,-7.3385,-7.2491,-7.389,-7.5158,-7.3883,-7.4247,-7.5008,-7.5423,-7.5207,-7.5068,-7.5469,-7.5872,-7.6041,-7.5648,-7.5615,-7.5459,-7.5026,-7.4636,-7.4701,-7.5486,-7.5599,-7.5908,-7.6675,-7.6349,-7.591,-7.5521,-7.5482,-7.5288,-7.4822,-7.5638,-7.6104,-7.6065,-7.6493,-7.692,-7.7308,-7.7775,-7.8435,-7.9251,-7.9251,-7.9717,-8.061,-8.1038,-8.1465,-8.1892,-8.1892,-8.1892,-8.1892,-8.1892,-8.1892,-8.1892,-8.1892,-8.1892,-8.1892,-8.1892,-8.1892,-8.1892,-5.8855,-5.971,-6.0565,-6.1257,-6.1412,-6.1412,-6.1412,-6.1412,-6.1412,-6.1412,-6.1412,-6.1335,-6.1179,-5.9749,-5.8855,-5.9011,-5.9002,-5.9753,-6.1522,-6.2039,-6.2486,-6.2888,-6.3301,-6.3573,-6.375,-6.4566,-6.5064,-6.518,-6.6081,-6.6508,-6.6508,-6.6508,-6.6508,-6.6508,-6.6508,-6.6508,-6.6431,-6.5591,-6.5195,-6.5149,-6.4337,-6.3923,-6.3962,-6.57,-6.6381,-6.6705,-6.9344,-7.0817,-7.1523,-7.1637,-7.156,-7.1412,-7.1567,-7.1598,-7.1753,-7.2452,-7.2258,-7.1986,-7.2685,-7.2996,-7.2918,-7.2025,-7.354,-7.5055,-7.4162,-7.4861,-7.5871,-7.6376,-7.6065,-7.5922,-7.6631,-7.6768,-7.6804,-7.6856,-7.624,-7.5772,-7.5772,-7.5222,-7.5035,-7.5722,-7.5788,-7.6013,-7.6657,-7.657,-7.6221,-7.556,-7.5482,-7.5482,-7.5482,-7.5638,-7.6026,-7.6687,-7.6842,-7.727,-7.8008,-7.8318,-7.9173,-8.061,-8.0766,-8.0805,-8.0844,-8.1582,-8.1892,-8.1892,-8.1892,-8.1892,-8.1892,-8.1892,-8.1892,-8.1892,-8.1892,-8.1892,-8.1892,-8.1892,-8.1892,-8.1892,-5.9749,-6.0642,-6.1257,-6.1373,-6.1412,-6.1412,-6.1412,-6.1412,-6.1412,-6.1412,-6.1412,-6.1109,-6.037,-5.9399,-5.9088,-5.9865,-6.0582,-6.1429,-6.2468,-6.2388,-6.2758,-6.3782,-6.225,-6.1854,-6.2857,-6.3711,-6.4488,-6.518,-6.6081,-6.6508,-6.6508,-6.6508,-6.6508,-6.6508,-6.6508,-6.6508,-6.6431,-6.5647,-6.5245,-6.511,-6.4409,-6.3599,-6.3061,-6.4817,-6.5466,-6.5809,-6.8454,-6.9934,-7.0778,-7.1449,-7.1186,-7.0673,-7.1381,-7.1598,-7.1636,-7.1753,-7.2219,-7.2763,-7.288,-7.3462,-7.3812,-7.2957,-7.3579,-7.4162,-7.3268,-7.4861,-7.6376,-7.5793,-7.6143,-7.6579,-7.6674,-7.6721,-7.673,-7.6715,-7.6638,-7.656,-7.656,-7.6443,-7.6435,-7.6527,-7.6566,-7.6596,-7.6687,-7.6065,-7.5599,-7.5521,-7.5482,-7.5482,-7.5482,-7.6143,-7.6609,-7.6687,-7.7425,-7.7891,-7.8008,-7.9484,-8.0377,-8.061,-8.1349,-8.1737,-8.1737,-8.1854,-8.1892,-8.1892,-8.1892,-8.1892,-8.1892,-8.1892,-8.1892,-8.1892,-8.1892,-8.1892,-8.1892,-8.1892,-8.1892,-8.1892,-5.9943,-6.0798,-6.1412,-6.1412,-6.1412,-6.1381,-6.1408,-6.1408,-6.1415,-6.1434,-6.1473,-6.1318,-6.0871,-6.0034,-5.9671,-6.006,-6.0448,-6.1031,-6.1924,-6.1858,-6.2013,-6.2535,-6.2145,-6.2176,-6.2691,-6.3991,-6.4838,-6.518,-6.6081,-6.6508,-6.6508,-6.6508,-6.6508,-6.6508,-6.6508,-6.6237,-6.5732,-6.4913,-6.4284,-6.3711,-6.2912,-6.2666,-6.2899,-6.4144,-6.4896,-6.5654,-6.8274,-7.0083,-7.1258,-7.1594,-7.1442,-7.1186,-7.1497,-7.1598,-7.1714,-7.218,-7.2258,-7.2297,-7.2763,-7.2841,-7.2647,-7.2258,-7.2841,-7.3268,-7.2375,-7.3812,-7.5211,-7.4861,-7.5055,-7.5444,-7.5949,-7.6415,-7.6687,-7.6687,-7.6687,-7.6687,-7.6687,-7.6687,-7.6687,-7.6687,-7.6687,-7.6687,-7.6687,-7.6376,-7.6182,-7.6182,-7.6182,-7.6182,-7.6182,-7.6959,-7.7425,-7.7425,-7.828,-7.894,-7.9445,-8.0222,-8.0844,-8.1349,-8.1737,-8.1892,-8.1892,-8.1892,-8.1892,-8.1892,-8.1892,-8.1892,-8.1892,-8.1892,-8.1892,-8.1892,-8.1892,-8.1892,-8.1892,-8.1892,-8.1892,-8.1892]},{"header":{"parameterUnit":"m.s-1","parameterCategory":1,"la1":30.6,"la2":28.766,"lo1":-90.7593,"lo2":-88.6598,"dx":0.0162,"dy":0.0183,"nx":116,"ny":114,"refTime":"2022-12-27T18:00:00:Z","depth":0,"parameterNumber":3,"parameterNumberName":"V-component_of_WINDS"},"data":[0.0,0.0,0.0,0.0,0.0,0.0,0.0,0.0,0.0,0.0,0.0,0.0,0.0,0.0,0.0,0.0,0.0,0.0,0.0,0.0,0.0,0.0,0.0,0.0,0.0,0.0,0.0,0.0,0.0,0.0,0.0,0.0,0.0,0.0,0.0,0.0,0.0,0.0,0.0,0.0,0.0,0.0,0.0,0.0,0.0,0.0,0.0,0.0,0.0,0.0,0.0,0.0,0.0,0.0,0.0,0.0,0.0,0.0,0.0,0.0,0.0,0.0,0.0,0.0,0.0,0.0,0.0,0.0,0.0,0.0,0.0,0.0,0.0,0.0,0.0,0.0,0.0,0.0,0.0,0.0,0.0,0.0,0.0,0.0,0.0,0.0,0.0,0.0,0.0,0.0,0.0,0.0,0.0,0.0,0.0,0.0,0.0,0.0,0.0,0.0,0.0,0.0,0.0,0.0,0.0,0.0,0.0,0.0,0.0,0.0,0.0,0.0,0.0,0.0,0.0,0.0,0.0,0.0,0.0,0.0,0.0,0.0,0.0,0.0,0.0,0.0,0.0,0.0,0.0,0.0,0.0,0.0,0.0,0.0,0.0,0.0,0.0,0.0,0.0,0.0,0.0,0.0,0.0,0.0,0.0,0.0,0.0,0.0,0.0,0.0,0.0,0.0,0.0,0.0,0.0,0.0,0.0,0.0,0.0,0.0,0.0,0.0,0.0,0.0,0.0,0.0,0.0,0.0,0.0,0.0,0.0,0.0,0.0,0.0,0.0,0.0,0.0,0.0,0.0,0.0,0.0,0.0,0.0,0.0,0.0,0.0,0.0,0.0,0.0,0.0,0.0,0.0,0.0,0.0,0.0,0.0,0.0,0.0,0.0,0.0,0.0,0.0,0.0,0.0,0.0,0.0,0.0,0.0,0.0,0.0,0.0,0.0,0.0,0.0,0.0,0.0,0.0,0.0,0.0,0.0,0.0,0.0,0.0,0.0,0.0,0.0,0.0,0.0,0.0,0.0,0.0,0.0,0.0,0.0,0.0,0.0,0.0,0.0,0.0,0.0,0.0,0.0,0.0,0.0,0.0,0.0,0.0,0.0,0.0,0.0,0.0,0.0,0.0,0.0,0.0,0.0,0.0,0.0,0.0,0.0,0.0,0.0,0.0,0.0,0.0,0.0,0.0,0.0,0.0,0.0,0.0,0.0,0.0,0.0,0.0,0.0,0.0,0.0,0.0,0.0,0.0,0.0,0.0,0.0,0.0,0.0,0.0,0.0,0.0,0.0,0.0,0.0,0.0,0.0,0.0,0.0,0.0,0.0,0.0,0.0,0.0,0.0,0.0,0.0,0.0,0.0,0.0,0.0,0.0,0.0,0.0,0.0,0.0,0.0,0.0,0.0,0.0,0.0,0.0,0.0,0.0,0.0,0.0,0.0,0.0,0.0,0.0,0.0,0.0,0.0,0.0,0.0,0.0,0.0,0.0,0.0,0.0,0.0,0.0,0.0,0.0,0.0,0.0,0.0,0.0,0.0,0.0,0.0,0.0,0.0,0.0,0.0,0.0,0.0,0.0,0.0,0.0,0.0,0.0,0.0,0.0,0.0,0.0,0.0,0.0,0.0,0.0,0.0,0.0,0.0,0.0,0.0,0.0,0.0,0.0,0.0,0.0,0.0,0.0,0.0,0.0,0.0,0.0,0.0,0.0,0.0,0.0,0.0,0.0,0.0,0.0,0.0,0.0,0.0,0.0,0.0,0.0,0.0,0.0,0.0,0.0,0.0,0.0,0.0,0.0,0.0,0.0,0.0,0.0,0.0,0.0,0.0,0.0,0.0,0.0,0.0,0.0,0.0,0.0,0.0,0.0,0.0,0.0,0.0,0.0,0.0,0.0,0.0,0.0,0.0,0.0,0.0,0.0,0.0,0.0,0.0,0.0,0.0,0.0,0.0,0.0,0.0,0.0,0.0,0.0,0.0,0.0,0.0,0.0,0.0,0.0,0.0,0.0,0.0,0.0,0.0,0.0,0.0,0.0,0.0,0.0,0.0,0.0,0.0,0.0,0.0,0.0,0.0,0.0,0.0,0.0,0.0,0.0,0.0,0.0,0.0,0.0,0.0,0.0,0.0,0.0,0.0,0.0,0.0,0.0,0.0,0.0,0.0,0.0,0.0,0.0,0.0,0.0,0.0,0.0,0.0,0.0,0.0,0.0,0.0,0.0,0.0,0.0,0.0,0.0,0.0,0.0,0.0,0.0,0.0,0.0,0.0,0.0,0.0,0.0,0.0,0.0,0.0,0.0,0.0,0.0,0.0,0.0,0.0,0.0,0.0,0.0,0.0,0.0,0.0,0.0,0.0,0.0,0.0,0.0,0.0,0.0,0.0,0.0,0.0,0.0,0.0,0.0,0.0,0.0,0.0,0.0,0.0,0.0,0.0,0.0,0.0,0.0,0.0,0.0,0.0,0.0,0.0,0.0,0.0,0.0,0.0,0.0,0.0,0.0,0.0,0.0,0.0,0.0,0.0,0.0,0.0,0.0,0.0,0.0,0.0,0.0,0.0,0.0,0.0,0.0,0.0,0.0,0.0,0.0,0.0,0.0,0.0,0.0,0.0,0.0,0.0,0.0,0.0,0.0,0.0,0.0,0.0,0.0,0.0,0.0,0.0,0.0,0.0,0.0,0.0,0.0,0.0,0.0,0.0,0.0,0.0,0.0,0.0,0.0,0.0,0.0,0.0,0.0,0.0,0.0,0.0,0.0,0.0,0.0,0.0,0.0,0.0,0.0,0.0,0.0,0.0,0.0,0.0,0.0,0.0,0.0,0.0,0.0,0.0,0.0,0.0,0.0,0.0,0.0,0.0,0.0,0.0,0.0,0.0,0.0,0.0,0.0,0.0,0.0,0.0,0.0,0.0,0.0,0.0,0.0,0.0,0.0,0.0,0.0,0.0,0.0,0.0,0.0,0.0,0.0,0.0,0.0,0.0,0.0,0.0,0.0,0.0,0.0,0.0,0.0,0.0,0.0,0.0,0.0,0.0,0.0,0.0,0.0,0.0,0.0,0.0,0.0,0.0,0.0,0.0,0.0,0.0,0.0,0.0,0.0,0.0,0.0,0.0,0.0,0.0,0.0,0.0,0.0,0.0,0.0,0.0,0.0,0.0,0.0,0.0,0.0,0.0,0.0,0.0,0.0,0.0,0.0,0.0,0.0,0.0,0.0,0.0,0.0,0.0,0.0,0.0,0.0,0.0,0.0,0.0,0.0,0.0,0.0,0.0,0.0,0.0,0.0,0.0,0.0,0.0,0.0,0.0,0.0,0.0,0.0,0.0,0.0,0.0,0.0,0.0,0.0,0.0,0.0,0.0,0.0,0.0,0.0,0.0,0.0,0.0,0.0,0.0,0.0,0.0,0.0,0.0,0.0,0.0,0.0,0.0,0.0,0.0,0.0,0.0,0.0,0.0,0.0,0.0,0.0,0.0,0.0,0.0,0.0,0.0,0.0,0.0,0.0,0.0,0.0,0.0,0.0,0.0,0.0,0.0,0.0,0.0,0.0,0.0,0.0,0.0,0.0,0.0,0.0,0.0,0.0,0.0,0.0,0.0,0.0,0.0,0.0,0.0,0.0,0.0,0.0,0.0,0.0,0.0,0.0,0.0,0.0,0.0,0.0,0.0,0.0,0.0,0.0,0.0,0.0,0.0,0.0,0.0,0.0,0.0,0.0,0.0,0.0,0.0,0.0,0.0,0.0,0.0,0.0,0.0,0.0,0.0,0.0,0.0,0.0,0.0,0.0,0.0,0.0,0.0,0.0,0.0,0.0,0.0,0.0,0.0,0.0,0.0,0.0,0.0,0.0,0.0,0.0,0.0,0.0,0.0,0.0,0.0,0.0,0.0,0.0,0.0,0.0,0.0,0.0,0.0,0.0,0.0,0.0,0.0,0.0,0.0,0.0,0.0,0.0,0.0,0.0,0.0,0.0,0.0,0.0,0.0,0.0,0.0,0.0,0.0,0.0,0.0,0.0,0.0,0.0,0.0,0.0,0.0,0.0,0.0,0.0,0.0,0.0,0.0,0.0,0.0,0.0,0.0,0.0,0.0,0.0,0.0,0.0,0.0,0.0,0.0,0.0,0.0,0.0,0.0,0.0,0.0,0.0,0.0,0.0,0.0,0.0,0.0,0.0,0.0,0.0,0.0,0.0,0.0,0.0,0.0,0.0,0.0,0.0,0.0,0.0,0.0,0.0,0.0,0.0,0.0,0.0,0.0,0.0,0.0,0.0,0.0,0.0,0.0,0.0,0.0,0.0,0.0,0.0,0.0,0.0,0.0,0.0,0.0,0.0,0.0,0.0,0.0,0.0,0.0,0.0,0.0,0.0,0.0,0.0,0.0,0.0,0.0,0.0,0.0,0.0,0.0,0.0,0.0,0.0,0.0,0.0,0.0,0.0,0.0,0.0,0.0,0.0,0.0,0.0,0.0,0.0,0.0,0.0,0.0,0.0,0.0,0.0,0.0,0.0,0.0,0.0,0.0,0.0,0.0,0.0,0.0,0.0,0.0,0.0,0.0,0.0,0.0,0.0,0.0,0.0,0.0,0.0,0.0,0.0,0.0,0.0,0.0,0.0,0.0,0.0,0.0,0.0,0.0,0.0,0.0,0.0,0.0,0.0,0.0,0.0,0.0,0.0,0.0,0.0,0.0,0.0,0.0,0.0,0.0,0.0,0.0,0.0,0.0,0.0,0.0,0.0,0.0,0.0,0.0,0.0,0.0,0.0,0.0,0.0,0.0,0.0,0.0,0.0,0.0,0.0,0.0,0.0,0.0,0.0,0.0,0.0,0.0,0.0,0.0,0.0,0.0,0.0,0.0,0.0,0.0,0.0,0.0,0.0,0.0,0.0,0.0,0.0,0.0,0.0,0.0,0.0,0.0,0.0,0.0,0.0,0.0,0.0,0.0,0.0,0.0,0.0,0.0,0.0,0.0,0.0,0.0,0.0,0.0,0.0,0.0,0.0,0.0,0.0,0.0,0.0,0.0,0.0,0.0,0.0,0.0,0.0,0.0,0.0,0.0,0.0,0.0,0.0,0.0,0.0,0.0,0.0,0.0,0.0,0.0,0.0,0.0,0.0,0.0,0.0,0.0,0.0,0.0,0.0,0.0,0.0,0.0,0.0,0.0,0.0,0.0,0.0,0.0,0.0,0.0,0.0,0.0,0.0,0.0,0.0,0.0,0.0,0.0,0.0,0.0,0.0,0.0,0.0,0.0,0.0,0.0,0.0,0.0,0.0,0.0,0.0,0.0,0.0,0.0,0.0,0.0,0.0,0.0,0.0,0.0,0.0,0.0,0.0,0.0,0.0,0.0,0.0,0.0,0.0,0.0,0.0,0.0,0.0,0.0,0.0,0.0,0.0,0.0,0.0,0.0,0.0,0.0,0.0,0.0,0.0,0.0,0.0,0.0,0.0,0.0,0.0,0.0,0.0,0.0,0.0,0.0,0.0,0.0,0.0,0.0,0.0,0.0,0.0,0.0,0.0,0.0,0.0,0.0,0.0,0.0,0.0,0.0,0.0,0.0,0.0,0.0,0.0,0.0,0.0,0.0,0.0,0.0,0.0,0.0,0.0,0.0,0.0,0.0,0.0,0.0,0.0,0.0,0.0,0.0,0.0,0.0,0.0,0.0,0.0,0.0,0.0,0.0,0.0,0.0,0.0,0.0,0.0,0.0,0.0,0.0,0.0,0.0,0.0,0.0,0.0,0.0,0.0,0.0,0.0,0.0,0.0,0.0,0.0,0.0,0.0,0.0,0.0,0.0,0.0,0.0,0.0,0.0,0.0,0.0,0.0,0.0,0.0,0.0,0.0,0.0,0.0,0.0,0.0,0.0,0.0,0.0,0.0,0.0,0.0,0.0,0.0,0.0,0.0,0.0,0.0,0.0,0.0,0.0,0.0,0.0,0.0,0.0,0.0,0.0,0.0,0.0,0.0,0.0,0.0,0.0,0.0,0.0,0.0,0.0,0.0,0.0,0.0,0.0,0.0,0.0,0.0,0.0,0.0,0.0,0.0,0.0,0.0,0.0,0.0,0.0,0.0,0.0,0.0,0.0,1.7948,1.6623,0.0,0.0,0.0,0.0,0.0,0.0,0.0,0.0,0.0,0.0,0.0,0.0,0.0,0.0,0.0,0.0,0.0,0.0,0.0,0.0,0.0,0.0,0.0,0.0,0.0,0.0,0.0,0.0,0.0,0.0,0.0,0.0,0.0,0.0,0.0,0.0,0.6473,0.7898,0.8437,0.9744,1.1716,1.0528,0.9561,0.8771,0.0,0.0,0.0,0.0,0.0,0.0,0.0,0.0,0.0,0.0,0.0,0.0,0.0,0.0,0.0,0.0,0.0,0.0,0.0,0.0,0.0,0.0,0.0,0.0,0.0,0.0,0.0,0.0,0.0,0.0,0.0,0.0,0.0,0.0,0.0,0.0,0.0,0.0,0.0,0.0,0.0,0.0,0.0,0.0,0.0,0.0,0.0,0.0,0.0,0.0,0.0,0.0,0.0,0.0,0.0,0.0,0.0,0.0,0.0,0.0,0.0,0.0,0.0,0.0,0.0,0.0,0.0,0.0,0.0,0.0,2.0321,1.9463,0.0,0.0,0.0,0.0,0.0,0.0,0.0,0.0,0.0,0.0,0.0,0.0,0.0,0.0,0.0,0.0,0.0,0.0,0.0,0.0,0.0,0.0,0.0,0.3468,0.3672,0.4198,0.4199,0.4442,0.0,0.0,0.0,0.0,0.0,0.0,0.6089,0.6519,0.7625,0.9412,1.052,1.2183,1.4292,1.4165,1.3326,1.1852,1.0757,0.0,0.0,0.0,0.0,0.0,0.0,0.0,0.0,0.0,0.0,0.0,0.0,0.0,0.0,0.0,0.0,0.0,0.0,0.0,0.0,0.0,0.0,0.0,0.0,0.0,0.0,0.0,0.0,0.0,0.0,0.0,0.0,0.0,0.0,0.0,0.0,0.0,0.0,0.0,0.0,0.0,0.0,0.0,0.0,0.0,0.0,0.0,0.0,0.0,0.0,0.0,0.0,0.0,0.0,0.0,0.0,0.0,0.0,0.0,0.0,0.0,0.0,0.0,2.2765,2.2744,2.2486,2.2351,2.2748,2.343,2.2624,2.2474,2.2691,2.1051,0.0,0.0,0.0,0.0,0.0,0.0,0.0,0.0,0.0,0.0,0.0,0.0,0.0,0.0,0.0,0.0,0.0,0.0,0.0,0.0,0.0,0.3337,0.3563,0.4384,0.4238,0.4487,0.5379,0.0,0.0,0.0,0.0,0.6091,0.6437,0.7344,0.8606,1.0231,1.3687,1.6112,1.749,1.7636,1.7482,1.7022,1.5212,1.3529,1.2034,0.0,0.0,0.0,0.0,0.0,0.0,0.0,0.0,0.0,0.0,0.0,0.0,0.0,0.0,0.0,0.0,0.0,0.0,0.0,0.0,0.0,0.0,0.0,0.0,0.0,0.0,0.0,0.0,0.0,0.0,0.0,0.0,0.0,0.0,0.0,0.0,0.0,0.0,0.0,0.0,0.0,1.6473,1.6566,0.0,0.0,0.0,0.0,0.0,0.0,0.0,0.0,0.0,0.0,0.0,0.0,0.0,2.1173,2.2603,2.4148,2.5159,2.5548,2.6314,2.6417,2.5945,2.5414,2.495,2.4565,2.4228,0.0,2.3586,2.2625,0.0,0.0,0.0,0.0,0.0,0.0,0.0,0.0,0.0,0.0,0.0,0.0,0.0,0.0,0.0,0.0,0.0,0.0,0.0,0.0,0.0,0.4485,0.5381,0.5769,0.6748,0.7147,0.6654,0.6579,0.0,0.0,0.6014,0.6442,0.6775,0.8283,1.0726,1.4048,1.7102,1.9042,2.0007,2.0093,2.0307,2.0547,2.0281,1.8013,1.4397,1.4293,0.0,0.0,0.0,0.0,0.0,0.0,0.0,0.0,0.0,0.0,0.0,0.0,0.0,0.0,0.0,0.0,0.0,0.0,0.0,0.0,0.0,0.0,0.0,0.0,0.0,0.0,0.0,0.0,0.0,0.0,0.0,0.0,0.0,0.0,0.0,0.0,0.0,0.0,0.0,1.6324,1.7533,1.7716,1.7339,1.66,0.0,0.0,0.0,0.0,0.0,0.0,0.0,0.0,0.0,2.3103,2.3421,2.4416,2.6207,2.7192,2.7875,2.8259,2.8327,2.8088,2.7525,2.6957,2.6509,2.6319,2.6009,2.5901,2.5767,2.4257,2.3363,2.2821,0.0,0.0,0.0,0.0,2.0434,2.0021,0.0,0.0,0.0,0.0,0.0,0.0,0.0,0.0,0.0,0.0,0.0,0.0,0.3976,0.5824,0.7179,0.7443,0.8735,0.9102,0.8082,0.7842,0.7194,0.5972,0.6309,0.6722,0.7144,0.9884,1.3382,1.7657,1.9858,2.1387,2.2276,2.2315,2.2664,2.3318,2.411,2.1944,1.7656,1.7352,1.5843,1.362,0.0,0.0,0.0,0.0,0.0,0.0,0.0,0.0,0.0,0.0,0.0,0.0,0.0,0.0,0.0,0.0,0.0,0.0,0.0,0.0,0.0,0.0,0.0,0.0,0.0,0.0,0.0,0.0,0.0,0.0,0.0,0.0,0.0,0.0,0.0,0.0,0.0,1.747,1.8851,1.9485,1.8923,1.8285,0.0,0.0,0.0,0.0,0.0,0.0,2.2635,2.2717,2.3788,2.6019,2.6227,2.7192,2.9026,2.9465,2.9868,3.025,2.9577,2.8994,2.841,2.762,2.7217,2.7088,2.6946,2.7,2.711,2.5443,2.4844,2.4787,2.3717,2.3439,2.3551,2.3019,2.2441,2.2189,0.0,0.0,0.0,0.0,0.0,0.0,0.0,0.0,0.0,0.0,0.0,0.5582,0.5745,0.7003,0.8221,0.9194,0.8851,0.8822,0.9354,0.8099,0.7238,0.7025,0.6566,0.6701,0.7551,1.2526,1.6591,1.9658,2.1487,2.3092,2.434,2.4545,2.4911,2.5374,2.5675,2.4682,2.2638,2.1331,2.0147,1.8794,1.4205,0.0,0.0,0.0,0.0,0.0,0.0,0.0,0.0,0.0,0.0,0.0,0.0,0.0,0.0,0.0,0.0,0.0,0.0,0.0,0.0,0.0,0.0,0.0,0.0,0.0,0.0,0.0,0.0,0.0,0.0,0.0,0.0,0.0,0.0,0.0,0.0,0.0,0.0,2.2773,2.2537,0.0,0.0,0.0,0.0,2.1035,2.2063,2.3611,2.5583,2.5784,2.6961,2.9288,2.8813,2.8913,2.9755,3.0218,3.0661,3.1027,3.0119,2.9374,2.8855,2.7431,2.6539,2.5994,2.6308,2.6464,2.6429,2.5992,2.6219,2.6644,2.5609,2.5744,2.6593,2.6524,2.6184,2.5778,0.0,0.0,0.0,0.0636,0.0858,0.0991,0.0855,0.1728,0.2355,0.2238,0.4347,0.5815,0.566,0.8263,1.0299,1.096,1.1992,1.2538,1.234,1.0562,0.959,0.9858,0.8468,0.9379,1.2929,1.6099,1.8965,2.1528,2.277,2.3928,2.4955,2.5018,2.56,2.6626,2.6686,2.6674,2.6444,2.4552,2.2511,2.0363,1.862,1.5911,0.0,0.0,0.0,0.0,0.0,0.0,0.0,0.0,0.0,0.0,0.0,0.0,0.0,0.0,0.0,0.0,0.0,0.0,0.0,0.0,0.0,0.0,0.0,0.0,0.0,0.0,0.0,0.0,0.0,0.0,0.0,0.0,0.0,0.0,0.0,0.0,0.0,2.2446,2.2639,0.0,2.2203,2.2448,2.3024,2.3918,2.5099,2.658,2.8439,2.847,2.8926,3.0065,2.9983,3.0175,3.0744,3.096,3.112,3.1202,3.0084,2.9325,2.8932,2.7606,2.696,2.6942,2.7061,2.7239,2.7399,2.6836,2.6906,2.7246,2.7164,2.7191,2.7274,2.6813,2.6423,2.606,0.0,0.0587,0.0,0.0506,0.0783,0.0955,0.0791,0.1775,0.2586,0.2719,0.5005,0.6714,0.6965,0.9839,1.204,1.276,1.399,1.4544,1.3971,1.2041,1.0814,1.0608,1.0048,1.2058,1.7012,1.8803,2.0751,2.2956,2.3722,2.4493,2.5274,2.5274,2.603,2.7307,2.7307,2.7753,2.8426,2.6983,2.5074,2.29,2.1902,1.889,1.4923,0.0,0.0,0.0,0.0,0.0,0.0,0.0,0.0,0.0,0.0,0.0,0.0,0.0,0.0,0.0,0.0,0.0,0.0,0.0,0.0,0.0,0.0,0.0,0.0,0.0,0.0,0.0,0.0,0.0,0.0,0.0,0.0,0.0,0.0,2.0603,2.2261,2.2822,2.3331,2.3643,2.3643,2.4205,2.5085,2.634,2.7623,2.8842,2.9929,3.0214,3.0414,3.0605,3.0625,3.0809,3.1222,3.1222,3.1301,3.1441,3.0372,2.9608,2.9094,2.79,2.733,2.7123,2.7407,2.7621,2.7807,2.761,2.754,2.7569,2.7713,2.783,2.7895,2.7206,2.6937,2.6761,0.0517,0.06,0.0567,0.0508,0.0879,0.1078,0.0761,0.1792,0.2985,0.4039,0.6293,0.8348,0.9712,1.1601,1.3279,1.4448,1.4561,1.4381,1.4036,1.2438,1.0798,0.9228,1.123,1.4592,1.9298,2.0487,2.201,2.3929,2.4322,2.4828,2.5485,2.5485,2.6174,2.747,2.747,2.7834,2.8459,2.8459,2.7858,2.6705,2.3807,2.1175,1.873,0.0,0.0,0.0,0.0,0.0,0.0,0.0,0.0,0.0,0.0,0.0,0.0,0.0,0.0,0.0,0.0,0.0,0.0,0.0,0.0,0.0,0.0,0.0,0.0,0.0,0.0,0.0,0.0,0.0,0.0,0.0,0.0,0.0,2.0488,2.1163,2.2399,2.4226,2.4868,2.5565,2.6606,2.7111,2.7673,2.8295,2.9501,3.016,3.0036,3.0974,3.1365,3.1063,3.0801,3.0764,3.1027,3.1067,3.1308,3.1787,3.1131,3.0295,2.9372,2.8421,2.744,2.6465,2.7211,2.7517,2.7549,2.8282,2.8191,2.7554,2.724,2.7786,2.8592,2.79,2.7915,2.813,0.0426,0.0415,0.0364,0.0534,0.0802,0.0989,0.0993,0.1953,0.2952,0.3727,0.6324,0.8389,0.915,1.1391,1.3089,1.3809,1.4895,1.5278,1.4502,1.3518,1.2946,1.2771,1.5242,1.8158,2.1407,2.2527,2.3495,2.4321,2.4445,2.4828,2.5485,2.5141,2.5659,2.6753,2.6431,2.6841,2.7777,2.7777,2.768,2.7402,2.6583,2.4682,2.2155,0.0,0.0,0.0,0.0,0.0,0.0,0.0,0.0,0.0,0.0,0.0,0.0,0.0,0.0,0.0,0.0,0.0,0.0,0.0,0.0,0.0,0.0,0.0,0.0,0.0,0.0,0.0,0.0,0.0,0.0,0.0,2.0333,2.2014,2.1685,2.3496,2.4972,2.5299,2.6006,2.6582,2.6867,2.7329,2.8042,2.8996,2.9525,3.0072,3.0754,3.0218,2.9853,2.9641,2.9669,2.9739,2.9774,3.0576,3.111,3.1441,3.0801,3.0138,2.9353,2.8659,2.7842,2.6925,2.7375,2.7574,2.754,2.7543,2.7416,2.7361,2.8,2.7879,2.7322,2.7602,2.765,2.7389,0.0173,0.0264,0.0319,0.0415,0.0692,0.0919,0.1003,0.1835,0.2768,0.3665,0.6266,0.8349,0.9169,1.1354,1.3092,1.3806,1.4972,1.5125,1.3777,1.3199,1.4074,1.6645,1.8218,2.0312,2.3165,2.3825,2.4281,2.4507,2.4507,2.47,2.5062,2.4787,2.5185,2.6049,2.5826,2.6106,2.6823,2.7377,2.7371,2.7047,2.7609,2.6308,2.402,2.3644,2.1905,1.9522,1.8663,1.7849,1.7084,1.655,0.0,0.0,0.0,0.0,0.0,0.0,0.0,0.0,0.0,0.0,0.0,0.0,0.0,0.0,0.0,0.0,0.0,0.0,0.0,0.0,0.0,0.0,0.0,0.0,2.161,2.3326,2.3274,2.4625,2.5742,2.6181,2.7031,2.7539,2.7539,2.8212,2.8888,2.9435,2.9925,3.0393,3.0707,3.0465,2.9983,2.922,2.9813,2.9917,2.947,3.05,3.117,3.1267,3.0684,2.9962,2.9213,2.8781,2.7984,2.712,2.7607,2.7858,2.7783,2.7487,2.7295,2.7212,0.0,0.0,0.0,0.0,2.7185,2.6874,-0.0148,0.0132,0.0325,0.0233,0.0569,0.0862,0.0899,0.1533,0.2442,0.372,0.6116,0.8166,0.9422,1.1475,1.3081,1.3952,1.4766,1.4479,1.2722,1.2389,1.4599,1.9878,2.0149,2.1497,2.4445,2.4507,2.4507,2.4507,2.4507,2.4507,2.4507,2.4445,2.4787,2.5401,2.5358,2.5496,2.586,2.7059,2.6976,2.6147,2.7353,2.6637,2.4906,2.4989,2.3247,2.0753,2.027,1.9169,1.7926,1.776,0.0,0.0,0.0,0.0,0.0,0.0,0.0,0.0,0.0,0.0,0.0,0.0,0.0,0.0,0.0,0.0,0.0,0.0,0.0,0.0,0.0,0.0,0.0,0.0,2.3281,2.5191,2.5355,2.5355,2.5791,2.707,2.7924,2.8432,2.8491,2.9455,2.9984,2.9704,3.0548,3.0844,3.0331,3.1082,0.0,0.0,0.0,3.0645,2.9742,3.0727,3.1267,3.1267,3.0743,2.9922,2.8934,2.8738,2.8068,2.7062,2.7877,2.8102,2.7973,2.7768,2.7375,2.6969,2.6653,2.6518,2.6584,2.6495,2.6526,2.6568,-0.0247,-0.0045,0.0132,0.0321,0.0431,0.0583,0.0864,0.1175,0.1964,0.3611,0.5705,0.766,0.9189,1.1169,1.258,1.3029,1.4001,1.4423,1.4034,1.3802,1.5291,1.8921,2.0332,2.211,2.4466,2.4507,2.4507,2.4507,2.4507,2.4507,2.4487,2.4178,2.4283,2.47,2.4367,2.4723,2.5565,2.5819,2.6127,2.6422,2.6717,2.6477,2.6085,2.6278,2.5777,2.495,2.4614,2.4198,2.3688,2.2553,2.1349,2.0271,2.0224,1.894,0.0,0.0,0.0,0.0,0.0,0.0,0.0,0.0,0.0,0.0,0.0,0.0,0.0,0.0,0.0,0.0,0.0,0.0,0.0,2.4412,2.6059,2.7531,2.8269,2.8192,2.8147,2.845,2.8872,2.9327,2.9628,3.0198,3.0438,3.0135,3.0623,3.0878,3.0762,3.0125,2.962,2.9327,2.9565,2.9674,2.9721,3.0557,3.0918,3.0898,3.084,0.0,2.86,2.881,2.8259,2.7142,2.7871,2.7849,2.7277,2.7295,2.6737,2.5928,2.5786,2.5801,2.574,2.5356,2.5587,2.6111,-0.0477,-0.0314,-0.014,0.0016,0.0129,0.0258,0.0419,0.0676,0.1202,0.2218,0.415,0.5982,0.7347,0.8874,1.0095,1.0882,1.158,1.2819,1.4688,1.538,1.7197,2.0463,2.2095,2.3408,2.4487,2.4507,2.4507,2.4507,2.4507,2.4507,2.4487,2.4259,2.4322,2.4487,2.4302,2.4367,2.4745,2.5377,2.5496,2.5326,2.6017,2.5859,2.5334,2.624,2.6152,2.5484,2.5304,2.4856,2.4238,2.3541,2.2796,2.2108,2.188,2.1031,1.981,0.0,0.0,0.0,0.0,0.0,0.0,0.0,0.0,0.0,0.0,0.0,0.0,0.0,0.0,2.1278,2.2349,0.0,2.4719,2.6121,2.6883,2.7724,2.9153,2.9257,2.9233,2.9362,2.9904,3.0207,3.0089,3.0636,3.0892,3.0547,3.0858,3.1112,3.1112,3.0767,3.0334,2.9782,3.0294,3.0369,2.9958,3.0557,3.0859,3.084,3.0255,2.9509,2.8737,2.8775,2.8442,2.7887,2.8277,2.8222,2.7872,2.7374,2.6666,2.5876,2.5876,2.5876,2.5786,2.5367,2.5484,2.5771,-0.0665,-0.0623,-0.0487,-0.0302,-0.0151,-0.005,0.0017,0.0185,0.0462,0.0927,0.2603,0.4178,0.5358,0.6467,0.7549,0.8593,0.9308,1.1089,1.4216,1.6175,1.8541,2.1618,2.3129,2.3993,2.4272,2.4335,2.4378,2.4507,2.4507,2.4507,2.4507,2.4507,2.4507,2.4507,2.4507,2.4301,2.4075,2.5103,2.5033,2.4288,2.5323,2.5073,2.433,2.562,2.5474,2.4632,2.4718,2.4197,2.3432,2.3246,2.3246,2.3225,2.2666,2.2625,2.2273,1.9768,1.9554,0.0,0.0,0.0,0.0,0.0,0.0,0.0,0.0,2.0307,2.113,2.1652,2.2418,2.3391,2.4781,2.503,2.5655,2.7638,2.7821,2.8259,2.9876,3.0098,3.0211,3.033,3.0737,3.086,3.0427,3.0818,3.1034,3.0937,3.1092,3.1267,3.1383,3.1672,3.1361,3.0403,3.1167,3.1171,3.0273,3.0561,3.0665,3.0606,2.9568,2.8975,2.8815,2.866,2.8577,2.8491,2.8449,2.8361,2.8269,2.7322,2.6599,2.6078,2.6078,2.6176,2.6154,2.5824,2.5674,2.5539,-0.0681,-0.0925,-0.0908,-0.0235,-0.0252,-0.0252,0.005,-0.0185,0.0,0.1112,0.2182,0.3333,0.4591,0.5774,0.6676,0.7111,0.9036,1.062,1.1592,1.4623,1.7333,1.9385,2.0881,2.2252,2.358,2.3624,2.3884,2.4507,2.4507,2.4507,2.4507,2.4507,2.4507,2.4507,2.4507,2.4466,2.4425,2.4594,2.4553,2.447,2.4596,2.4596,2.449,2.4659,2.4429,2.4054,2.4407,2.4469,2.4218,2.3453,2.3474,2.3681,2.277,2.306,2.3412,2.188,2.1197,2.0555,1.8671,1.7988,1.7957,1.8828,2.0265,2.1921,0.0,2.455,2.5485,2.6356,2.6889,2.7579,2.8802,2.9215,2.9601,3.0506,3.1168,3.1725,3.2093,3.2142,3.1973,3.1644,3.1117,3.0829,3.1148,3.0762,3.0626,3.0859,3.0918,3.1208,3.173,3.1787,3.1496,3.0818,3.0955,3.0781,3.0413,3.0139,2.9844,2.9549,2.949,2.8975,2.814,2.8373,2.8331,2.8006,2.7537,2.7164,2.6904,2.6393,2.6145,2.6078,2.6078,2.6313,2.661,2.6185,2.5876,2.5592,-0.1101,-0.1274,-0.1241,-0.082,-0.0971,-0.1007,-0.0554,-0.069,-0.0537,0.0314,0.0899,0.1721,0.2953,0.4087,0.4763,0.4756,0.7209,0.937,1.0687,1.4102,1.6848,1.8624,1.998,2.115,2.2208,2.2736,2.3323,2.3927,2.4487,2.4658,2.4507,2.4507,2.4507,2.4507,2.4507,2.4507,2.4507,2.4507,2.4507,2.4507,2.4507,2.4507,2.4507,2.4507,2.4383,2.4219,2.3888,2.3577,0.0,2.3225,2.2956,2.2749,2.3163,2.3018,2.2563,2.1983,2.1487,2.1114,2.1176,2.0954,2.1,2.2171,2.3468,2.4597,2.537,2.5948,2.663,2.7708,2.8091,2.8572,2.9866,2.9466,2.9424,3.1086,3.0902,3.0894,3.1953,3.2076,3.1966,3.1825,3.0548,2.9662,2.967,3.0122,3.0142,2.9579,3.0487,3.1092,3.0976,3.1498,3.1498,3.084,3.084,3.0781,3.0665,3.0157,2.9804,2.9686,2.939,2.8975,2.8558,2.8755,2.8445,2.7704,2.7319,2.6922,2.6708,2.6726,2.6858,2.7045,2.7045,2.6976,2.6809,2.6064,2.579,2.5761,-0.1408,-0.1559,-0.1542,-0.1338,-0.1655,-0.1692,-0.1009,-0.1076,-0.099,-0.0381,-0.0077,0.0513,0.1601,0.2503,0.3017,0.3011,0.5651,0.8167,1.0136,1.3369,1.6081,1.7995,1.8975,1.9929,2.074,2.1673,2.2372,2.2882,2.4018,2.4487,2.4229,2.4487,2.4572,2.4507,2.4507,2.4507,2.4507,2.4507,2.4425,2.4321,2.4321,2.4321,2.4321,2.4321,2.4073,2.3681,2.3184,2.2708,2.2252,2.2001,2.1832,2.179,2.2289,2.2102,2.1686,2.1611,2.1197,2.1063,2.2262,2.2667,2.3118,2.4619,2.5906,2.6813,2.6939,2.718,2.7699,2.869,2.9014,2.9437,3.0474,2.9933,2.9835,3.1365,3.0848,3.0625,3.1647,3.1787,3.1647,3.1171,2.977,2.8435,2.7419,2.8687,2.9394,2.8896,3.016,3.0801,3.049,3.1131,3.1247,3.0606,3.0548,3.049,3.0314,2.9863,2.9627,2.9627,2.9213,2.8975,2.8975,2.8797,2.8162,2.7176,2.7147,2.6873,2.663,2.701,2.7209,2.7243,2.6846,2.6748,2.6604,2.475,2.4511,2.5074,-0.1425,-0.1709,-0.1826,-0.1625,-0.2075,-0.2125,-0.106,-0.1241,-0.1266,-0.0671,-0.0347,0.0128,0.0936,0.1344,0.1814,0.2464,0.4866,0.729,0.9564,1.2072,1.4599,1.7131,1.7566,1.8317,1.9445,2.0248,2.0846,2.1281,2.2977,2.3734,2.3537,2.4487,2.4743,2.4507,2.4507,2.4507,2.4507,2.4507,2.4259,2.3929,2.3929,2.3929,2.3929,2.3929,2.306,2.1942,2.2356,2.2211,2.1524,1.946,1.9926,2.1078,1.9293,1.9975,2.1392,2.1172,2.0621,2.0191,2.0864,2.1743,2.2871,2.4806,2.666,2.8151,2.862,2.9089,2.9508,2.9976,3.0444,3.0964,3.138,3.1939,3.2184,3.159,3.2128,3.2416,3.1903,3.1787,3.1248,2.9669,2.891,2.7439,2.4676,2.6349,2.8201,2.9712,2.9903,3.0216,3.0762,3.082,3.0548,2.9922,2.9922,2.9627,2.9035,2.9035,2.9035,2.9035,2.8993,2.8975,2.8975,2.8319,2.7358,2.6194,2.6796,2.6727,2.628,2.6914,2.68,2.6011,2.4699,2.4958,2.561,2.1946,2.1655,2.3106,-0.1842,-0.1964,-0.2039,-0.2063,-0.2302,-0.2324,-0.184,-0.1761,-0.1587,-0.1066,-0.0499,0.0,0.0,0.0,0.0,0.0,0.3609,0.5655,0.8195,1.0283,1.2453,1.4796,1.6,1.7051,1.7928,1.9043,1.9839,2.0321,2.1559,2.2517,2.3236,2.3367,2.3973,2.4956,2.4615,2.4572,2.4743,2.4572,2.4323,2.4075,2.4075,2.4075,2.4075,2.3742,2.2572,2.1036,0.0,1.9336,1.8526,1.7894,1.8312,1.9129,1.9531,1.9438,1.9155,1.8796,1.9851,2.1331,2.2152,2.3709,2.5399,2.6947,2.8301,2.9354,2.9827,2.9998,3.0261,3.0882,3.0296,2.9766,3.0015,2.9188,2.856,2.9006,2.877,2.9031,3.0374,2.945,2.9061,3.0248,2.8657,2.7723,2.8282,2.8028,2.7657,2.7154,2.9032,3.0039,2.9627,2.9962,2.9922,2.9331,2.9272,2.9213,2.8975,2.8975,2.8975,2.8975,2.8558,2.8319,2.8319,2.722,2.6493,2.6116,2.6402,2.6408,2.6199,2.637,2.5884,2.4905,2.3956,2.3056,2.2131,2.1012,1.9959,1.9264,0.0,-0.2161,-0.2233,-0.2413,-0.254,0.0,0.0,0.0,0.0,0.0,0.0,0.0,0.0,0.0,0.0,0.0,0.0,0.426,0.6804,0.8514,1.051,1.2919,1.4021,1.4935,1.5691,1.7009,1.7868,1.8229,1.9912,2.1157,2.1943,2.2101,2.2673,2.3544,2.3584,2.3671,2.3757,2.3907,2.3937,2.3759,2.3145,2.292,2.2818,2.1966,2.0394,0.0,1.758,1.6377,1.5348,1.5708,1.6525,1.7463,1.8096,1.8244,1.8244,1.8815,2.0209,2.1959,2.3835,2.5375,2.6976,2.9011,3.0008,3.0565,3.1111,3.1163,3.1199,3.155,3.0862,2.9971,2.922,2.8409,2.7912,2.8055,2.8127,2.8648,3.018,2.957,2.9277,3.0115,2.8711,2.8058,2.8986,2.8644,2.7815,2.6592,2.8539,2.9353,2.8508,2.8986,2.921,2.9035,2.8975,2.8975,2.8975,2.8975,2.8975,2.8975,2.8558,2.808,2.7599,2.6813,2.6177,2.5693,2.6054,2.5929,2.5419,2.5351,2.4488,2.3081,2.174,2.0651,1.9692,1.877,1.7882,1.7264,0.0,0.0,-0.2413,0.0,0.0,0.0,0.0,0.0,0.0,0.0,0.0,0.0,0.0,0.0,0.0,0.0,0.0,0.0,0.5392,0.6831,0.8782,1.1423,1.1696,1.2115,1.2909,1.4351,1.5119,1.5119,1.797,1.9482,1.9704,2.0598,2.0802,2.058,2.1431,2.1757,2.1651,2.2519,2.291,2.2734,2.1134,2.0487,2.0291,1.8749,1.6829,1.4952,1.4905,1.3704,1.2302,1.3116,1.4763,1.6278,1.5429,1.658,1.8732,2.0945,2.1528,2.2207,2.5648,2.6693,2.7588,3.0821,3.1651,3.1832,3.2436,3.2488,3.2267,3.1823,3.1936,3.1235,2.8667,2.916,2.9652,2.841,2.9566,3.0706,3.0989,3.1678,3.1319,2.9156,2.8871,2.8261,2.691,2.8033,2.8545,2.7881,2.837,2.8352,2.766,2.8014,2.8475,2.8957,2.8975,2.8975,2.8975,2.8975,2.8975,2.8975,2.8916,2.8259,2.6995,2.6952,2.6157,2.4881,2.5768,2.5308,2.3966,2.3771,2.2608,2.0615,1.8336,1.7918,1.8246,1.5436,1.5489,1.702,0.0,0.0,0.0,0.0,0.0,0.0,0.0,0.0,0.0,0.0,0.0,0.0,0.0,0.0,0.0,0.0,0.0,0.0,0.3462,0.516,0.6723,0.8004,1.0117,1.1458,1.1861,1.3143,1.3778,1.3778,1.4554,1.5472,1.6548,1.685,1.7855,1.9409,1.9411,1.9755,2.0349,2.0407,2.0108,1.9637,1.9198,1.8854,1.8514,1.7723,1.6305,1.4673,1.4514,1.3394,1.2107,1.2956,1.4926,1.7155,1.7986,1.8883,1.9687,2.0129,2.1966,2.4154,2.5673,2.7894,3.01,3.1323,3.2175,3.2678,3.2463,3.2509,3.2005,3.0134,2.853,2.6707,2.413,2.3611,2.348,2.3183,2.4282,2.5624,2.716,2.7138,2.7441,2.8739,2.8083,2.7698,2.8292,2.7813,2.7052,2.5944,2.8134,2.9387,2.9042,2.8843,2.8891,2.8975,2.8975,2.8975,2.8975,2.8975,2.8975,2.8993,2.796,2.7358,2.7012,2.6302,2.514,2.3816,2.4575,2.3808,2.1885,2.1586,2.0132,1.8023,1.6915,1.5942,1.5051,1.4463,1.4645,1.5117,0.0,0.0,0.0,0.0,0.0,0.0,0.0,0.0,0.0,0.0,0.0,0.0,0.0,0.0,0.0,0.0,0.0,0.0,0.0,0.3759,0.501,0.5917,0.7664,0.8968,0.9775,1.0922,1.1761,1.22,1.2623,1.3329,1.4328,1.4249,1.4814,1.5981,1.6403,1.679,1.7193,1.7837,1.795,0.0,0.0,1.6864,1.6573,1.5605,1.4402,1.3249,1.3313,1.3291,1.3468,1.4936,1.6583,1.8324,2.0025,2.0478,2.0657,2.1939,2.3722,2.5539,2.649,2.8534,3.0436,3.059,3.1476,3.1945,3.0724,3.0717,3.0299,2.775,2.6055,2.4161,2.1543,2.1529,2.1869,2.1671,2.3292,2.5047,2.6406,2.6624,2.6989,2.7952,2.7419,2.7259,2.7979,2.7426,2.6688,2.5997,2.7643,2.8526,2.7995,2.841,2.8726,2.8975,2.8975,2.8975,2.8975,2.8975,2.8856,2.8558,2.7955,2.7374,2.6823,2.6444,2.5297,2.3573,2.4239,2.2885,2.0239,1.9818,1.8363,1.6335,1.5479,1.4608,1.3912,1.4018,1.4213,1.4448,0.0,0.0,0.0,0.0,0.0,0.0,0.0,0.0,0.0,0.0,0.0,-0.0545,0.0,0.0,0.0,0.0,0.0,0.0,0.0,0.0,0.3662,0.4641,0.5126,0.6019,0.7361,0.8479,0.9498,1.0444,1.118,1.1835,1.2356,1.2123,1.1942,1.1895,1.3075,1.3525,1.3445,1.5009,1.5791,1.5909,1.5036,1.4629,1.4453,0.0,1.2134,1.1555,1.2017,1.3412,1.5378,1.7541,1.8708,1.96,2.1489,2.1669,2.1685,2.4375,2.5615,2.6336,2.736,2.8624,2.9635,2.9479,3.0281,3.0573,2.8562,2.8416,2.7981,2.5229,2.395,2.255,2.0009,2.1017,2.2125,2.1743,2.3993,2.5993,2.6658,2.7491,2.7772,2.6829,2.679,2.68,2.6721,2.6617,2.654,2.6459,2.67,2.6641,2.6097,2.7386,2.8357,2.8957,2.8975,2.8975,2.8975,2.8975,2.8714,2.8048,2.8062,2.7576,2.6648,2.655,2.5406,2.3547,2.3731,2.1857,1.8654,1.8138,1.6893,1.5136,1.4319,1.3975,1.3975,1.4047,1.4196,1.4506,0.0,0.0,0.0,0.0,0.0,0.0,0.0,0.0,0.0,0.0,-0.1326,-0.0461,0.0,0.0,0.0,0.0,0.0,0.0,0.0,0.0,0.0,0.3475,0.466,0.5652,0.6339,0.7252,0.8001,0.8574,0.8338,0.8548,0.9118,0.9225,0.9731,1.0556,1.0825,1.1397,1.2132,1.2316,1.2361,1.2253,1.2403,1.2261,1.1965,1.2034,0.0,0.0,1.2343,1.3807,1.5694,1.751,1.9069,2.0516,2.1965,2.2686,2.3094,2.3336,2.4488,2.5759,2.6497,2.7787,2.9026,2.9659,3.0249,3.0293,2.9016,2.8026,2.6486,2.349,2.1526,1.9811,1.8095,1.8572,1.9359,1.9647,2.1356,2.2755,2.3116,2.442,2.537,2.543,2.5743,2.5805,2.5481,2.4787,2.4212,2.3807,2.4547,2.5351,2.5977,2.7021,2.8039,2.8975,2.8975,2.8975,2.8975,2.8975,2.8781,2.8376,2.6715,2.6289,2.6964,2.4342,2.291,2.243,2.099,1.8999,1.6627,1.5919,1.5044,1.4159,1.434,1.4403,1.4403,1.4697,1.4856,1.4884,0.0,0.0,0.0,0.0,0.0,0.0,0.0,-0.3335,-0.3061,-0.2988,-0.201,-0.0936,0.0094,0.0772,0.1167,0.0,0.0,0.0,0.0,0.0,0.0,0.0,0.0,0.0,0.5567,0.648,0.7195,0.0,0.0,0.7467,0.7774,0.7761,0.8127,0.8761,0.8982,0.9615,1.051,1.0866,1.1005,1.1025,1.1449,1.1469,1.1318,0.0,0.0,0.0,1.2747,1.3773,1.4912,1.6414,1.7909,1.9501,2.1536,2.2815,2.337,2.2823,2.4156,2.5774,2.5339,2.6641,2.8028,2.7604,2.8237,2.8282,2.5557,2.4793,2.3634,2.0009,1.8335,1.7249,1.6286,1.7038,1.7941,1.8294,2.0081,2.1544,2.1912,2.2912,2.3722,2.3988,2.4234,2.4353,2.4424,2.4051,2.3707,2.349,2.3884,2.4524,2.524,2.605,2.7039,2.8182,2.8062,2.7942,2.7942,2.8137,2.7398,2.5814,2.5213,2.4765,2.4553,2.3211,2.213,2.1326,2.0073,1.8669,1.7192,1.5887,1.5332,1.5275,1.4921,1.4768,1.4759,1.491,1.494,1.4807,0.0,0.0,0.0,0.0,0.0,0.0,0.0,-0.3697,-0.3425,-0.3461,-0.2589,-0.1456,-0.0081,0.077,0.1265,0.0,0.0,0.0,0.0,0.0,0.0,0.0,0.0,0.0,0.0,0.0,0.0,0.0,0.0,0.0,0.0,0.0,0.0,0.0,0.783,0.8465,0.93,0.9911,1.0273,0.0,0.0,1.1217,0.0,0.0,0.0,0.0,0.0,1.3284,1.3807,1.5148,1.6306,1.7643,2.014,2.1756,2.2643,2.2283,2.3663,2.5141,2.4408,2.5593,2.6785,2.5632,2.6287,2.6173,2.2427,2.1857,2.103,1.7318,1.6007,1.5453,1.5277,1.6192,1.7189,1.7771,1.943,2.0884,2.1634,2.215,2.2639,2.3048,2.3173,2.3392,2.3619,2.3719,2.3747,2.365,2.3665,2.3913,2.4579,2.5026,2.59,2.7202,2.702,2.6932,2.7017,2.712,2.6038,2.3749,2.3868,2.3409,2.2404,2.2167,2.1596,2.056,1.9518,1.8732,1.817,1.6242,1.592,1.6507,1.5496,1.5115,1.5123,1.5266,1.5095,1.4962,0.0,0.0,0.0,0.0,0.0,0.0,0.0,-0.4706,-0.4301,-0.2887,-0.2383,-0.1653,-0.0223,0.0438,0.094,0.0,0.0,0.0,0.0,0.0,0.0,0.0,0.0,0.0,0.0,0.0,0.0,0.0,0.0,0.0,0.0,0.0,0.0,0.0,0.0,0.0,0.9113,0.9074,0.0,0.0,0.0,0.0,0.0,0.0,0.0,0.0,0.0,1.225,1.2866,1.438,1.4938,1.532,1.7152,1.8832,2.034,2.1448,2.2102,2.2865,2.4527,2.5165,2.5431,2.566,2.5831,2.5272,2.2938,2.1536,2.0064,1.7469,1.6047,1.5411,1.599,1.6192,1.6833,1.849,1.9153,2.0008,2.1561,2.1999,2.2376,2.3012,2.3508,2.3606,2.3207,2.358,2.3652,2.3222,2.3142,2.3606,2.4548,2.4394,2.4967,2.6546,2.6546,2.6711,2.6978,2.6359,2.5621,2.4752,2.314,2.2512,2.2711,2.0756,2.0156,2.0491,1.8412,1.7797,1.8093,1.5974,1.5643,1.6507,1.5844,1.5532,1.5603,1.5966,1.5954,1.5768,0.0,0.0,0.0,0.0,0.0,0.0,-0.4678,-0.4467,-0.4046,-0.3394,-0.2846,-0.2028,-0.0716,-0.0132,0.0406,0.1054,0.0,0.0,0.0,0.0,0.0,0.0,0.0,0.0,0.0,0.0,0.0,0.6158,0.0,0.0,0.0,0.0,0.0,0.0,0.0,0.0,0.0,0.0,0.0,0.0,0.0,0.0,0.0,0.0,0.0,0.0,0.0,0.0,1.2103,1.298,1.3337,1.3503,1.4196,1.5265,1.6816,1.9477,2.1204,2.2447,2.3384,2.4439,2.5284,2.5186,2.4799,2.377,2.156,2.0125,1.8572,1.6276,1.5465,1.5275,1.5611,1.584,1.6497,1.8106,1.8719,1.9557,2.1103,2.174,2.2229,2.2735,2.3127,2.3399,2.3505,2.3663,2.3735,2.3535,2.349,2.3642,2.3998,2.3714,2.4137,2.5596,2.5676,2.5722,2.5864,2.5275,2.4247,2.2727,2.1765,2.1152,2.0837,2.0017,1.975,1.9878,1.8061,1.8351,1.9738,1.6628,1.6496,1.8162,1.6589,1.5966,1.5966,1.6108,1.6022,1.5659,0.0,0.0,0.0,0.0,0.0,-0.4372,-0.4668,-0.4434,-0.4039,-0.3573,-0.3031,-0.2189,-0.0901,-0.0378,0.006,0.0589,0.1678,0.0,0.0,0.0,0.0,0.0,0.0,0.0,0.0,0.0,0.624,0.621,0.659,0.6766,0.0,0.0,0.0,0.0,0.0,0.0,0.0,0.0,0.0,0.0,0.0,0.0,0.0,0.0,0.0,0.0,0.0,0.0,0.0,0.0,0.0,1.2248,1.2317,1.2921,1.4201,1.7533,1.99,2.1654,2.2377,2.386,2.5078,2.482,2.4156,2.2928,2.0535,1.9105,1.7628,1.5439,1.4931,1.4967,1.5238,1.5369,1.5988,1.7651,1.8241,1.9076,2.0761,2.1449,2.2002,2.2498,2.2751,2.3112,2.3578,2.3578,2.3578,2.3578,2.3578,2.3581,2.3476,2.3441,2.3843,2.4894,2.4929,2.4965,2.5071,2.4355,2.3132,2.1603,2.0983,2.0326,1.9757,1.9854,1.9761,1.9347,1.8106,1.863,2.0047,1.7008,1.6996,1.8749,1.6902,1.6178,1.6178,1.6178,1.5895,1.539,0.0,0.0,0.0,0.0,0.0,0.0,-0.4571,-0.49,-0.4625,-0.3014,-0.2758,-0.2131,-0.0584,-0.0161,0.0,0.0,0.1224,0.0,0.0,0.0,0.0,0.0,0.0,0.0,0.0,0.0,0.6503,0.6704,0.6908,0.6883,0.6715,0.7442,0.7588,0.0,0.0,0.0,0.0,0.0,0.0,0.0,0.0,0.0,1.1639,0.0,0.0,0.0,0.0,0.0,0.0,0.0,0.0,0.0,0.0,1.2229,1.3046,1.5834,1.7991,1.9956,2.1827,2.3409,2.4626,2.4626,2.4158,2.2976,2.0285,1.8856,1.7511,1.5413,1.4588,1.4392,1.5098,1.4921,1.536,1.7387,1.7713,1.8482,2.0623,2.1177,2.1671,2.2392,2.2482,2.2678,2.3098,2.3106,2.3106,2.3106,2.3106,2.3106,2.312,2.372,2.4232,2.4621,2.4635,2.4782,2.5105,2.3679,2.2722,2.2297,2.1207,2.0435,1.9993,2.0496,2.0003,1.8881,1.857,1.8402,1.8224,1.6807,1.6815,1.7697,1.6609,1.6178,1.6178,1.6178,1.5673,1.5026,0.0,0.0,0.0,0.0,0.0,0.0,0.0,-0.4104,-0.3696,-0.2542,-0.2345,-0.1817,-0.053,-0.0375,-0.0258,-0.0029,0.1219,0.0,0.0,0.0,0.0,0.0,0.0,0.0,0.0,0.0,0.6844,0.6774,0.748,0.7874,0.8002,0.8228,0.8207,0.7964,0.8102,0.0,0.0,0.0,0.0,0.0,0.0,1.1131,1.1122,0.0,0.0,0.0,0.0,0.0,0.0,0.0,0.0,0.0,0.0,0.0,0.0,1.3469,1.5644,1.7914,1.9118,2.0717,2.1965,2.1707,2.1496,2.0747,1.8665,1.7456,1.6259,1.4267,1.4142,1.4483,1.4745,1.4672,1.5364,1.784,1.7756,1.8194,2.0646,2.147,2.1932,2.2242,2.2647,2.2957,2.3076,2.3383,2.3414,2.3139,2.3429,2.3536,2.3461,2.3632,2.3896,2.4232,2.4671,2.4747,2.4374,2.3406,2.2585,2.1966,2.1081,2.0706,2.0773,2.07,2.0342,1.9601,1.8776,1.8323,1.8213,1.6807,1.654,1.6904,1.6123,1.5612,1.5337,1.483,1.4617,1.4617,0.0,0.0,0.0,0.0,0.0,0.0,0.0,-0.3569,-0.3213,-0.2302,-0.2173,-0.17,-0.0597,-0.0556,-0.0436,0.0,0.1017,0.0,0.0,0.0,0.0,0.0,0.0,0.0,0.0,0.625,0.7165,0.7659,0.8414,0.8881,0.91,0.9394,0.9186,0.8539,0.8693,0.8537,0.0,0.0,0.0,0.0,1.0372,1.0776,1.0965,0.0,0.0,0.0,0.0,0.0,0.0,0.0,0.0,0.0,0.0,0.0,0.0,0.0,1.3672,1.5519,1.699,1.8787,2.0088,1.9855,1.9587,1.8945,1.7263,1.6158,1.5065,1.3588,1.3893,1.4343,1.4201,1.4406,1.5187,1.6994,1.7189,1.7877,2.007,2.0897,2.1426,2.1714,2.2216,2.271,2.3076,2.3352,2.3399,2.3139,2.3337,2.3505,2.3447,2.353,2.3691,2.3896,2.4408,2.4352,2.3683,2.2943,2.2253,2.1607,2.0934,2.0754,2.111,2.0835,2.0275,1.9524,1.8707,1.8004,0.0,1.6349,1.6002,1.5933,1.5518,1.5186,1.491,1.4189,1.3904,1.3833,0.0,0.0,0.0,0.0,0.0,0.0,0.0,-0.33,-0.3101,-0.2296,-0.2185,-0.1779,-0.0722,-0.0714,-0.0555,0.0029,0.0,0.0,0.0,0.0,0.0,0.0,0.0,0.0,0.0,0.6348,0.7436,0.9022,0.9519,0.9833,0.9997,1.0801,1.0384,0.9017,0.9392,0.9263,0.8746,0.0,0.0,0.0,0.9869,1.0396,0.0,0.0,0.0,0.0,0.0,0.0,0.0,0.0,0.0,0.0,0.0,0.0,0.0,0.0,0.0,0.0,0.0,1.7317,1.8697,1.8622,1.8244,1.7503,1.6026,1.4947,0.0,1.3434,1.3812,1.4096,1.3708,1.4297,1.4935,1.5324,1.623,1.7478,1.9084,1.983,2.0389,2.0891,2.1436,2.2125,2.2959,2.3091,2.3106,2.3106,2.3106,2.3106,2.3106,2.3398,2.3559,2.3559,2.3852,2.3703,2.3107,2.2386,2.1766,2.1331,2.057,2.053,2.0979,2.0718,1.9911,1.8834,1.8479,1.7278,1.5532,1.5593,1.5381,1.4981,1.4981,1.4981,1.4839,1.4047,1.3325,1.2753,0.0,0.0,0.0,0.0,0.0,0.0,0.0,0.0,0.0,0.0,-0.2048,-0.1728,-0.0839,-0.0741,-0.0562,0.0,0.0,0.0,0.0,0.0,0.0,0.0,0.0,0.0,0.0,0.6669,0.7582,0.8344,0.9715,1.0467,1.0694,1.1436,1.1132,0.9988,1.0081,0.9697,0.9011,0.9071,0.0,0.0,0.9831,1.0047,0.0,0.0,0.0,0.0,1.1498,1.1721,0.0,0.0,0.0,0.0,0.0,0.0,0.0,0.0,1.1897,1.2248,1.2839,0.0,1.5221,1.5009,1.548,1.5666,0.0,1.3865,1.3825,1.3538,1.397,1.4537,1.4887,1.5521,1.6021,1.6126,1.6735,1.7525,1.8411,1.9911,2.0881,2.0777,2.1965,2.2681,2.2418,2.2828,2.3106,2.3106,2.3106,2.3106,2.3106,2.3179,2.3223,2.3223,2.3296,2.3255,2.3028,2.2306,2.1464,2.0386,2.0104,1.9946,1.9863,1.9634,1.9023,1.8102,1.7548,1.6508,1.5177,1.5649,1.5325,1.4617,1.491,1.4688,1.3975,1.261,1.2252,1.2252,0.0,0.0,0.0,0.0,0.0,0.0,0.0,0.0,0.0,0.0,0.0,0.0,0.0,0.0,0.0,0.0,0.0,0.0,0.0,0.0,0.0,0.0,0.0,0.0,0.5759,0.6613,0.7716,0.9097,1.0262,1.1147,1.1758,1.2242,1.1854,1.0635,1.0154,0.9697,0.9287,0.9287,0.9309,0.9408,0.9664,0.0,0.0,0.0,0.0,0.0,1.131,1.1551,0.0,1.2131,1.2365,1.2482,0.0,0.0,0.0,0.0,1.1709,1.1823,1.1823,1.28,1.3848,1.4022,1.4301,1.4353,1.3696,1.3276,1.3037,1.3247,1.3678,1.4143,1.4456,1.516,1.5721,1.5721,1.6491,1.7545,1.8803,2.0267,2.1028,2.0559,2.1525,2.2169,2.1979,2.2652,2.3106,2.3106,2.3106,2.3106,2.3106,2.3106,2.3106,2.3106,2.3106,2.2777,2.2158,2.177,2.0837,1.9461,1.963,1.9564,1.9322,1.8909,1.8284,1.7566,1.683,1.5933,1.4965,1.5362,1.5196,1.4768,1.491,1.4759,1.4189,1.2538,1.2036,1.2036,0.0,0.0,0.0,0.0,0.0,0.0,0.0,0.0,0.0,0.0,0.0,0.0,0.0,0.0,0.0,0.0,0.0,0.0,0.0,0.0,0.0,0.0,0.0,0.0,0.6175,0.6499,0.7808,1.0203,1.09,1.1694,1.2608,1.3053,1.2566,1.119,1.0142,0.9624,0.9516,0.9516,0.9516,0.9516,0.9516,0.0,0.0,0.0,0.0,0.0,0.0,0.0,0.0,1.2526,1.2701,1.258,1.2745,0.0,0.0,0.0,0.0,0.0,1.1709,1.2648,1.3682,1.4136,1.3799,1.3433,1.3755,1.2862,1.2233,1.3184,1.3631,1.391,1.4106,1.4984,1.5542,1.5236,1.6316,1.7827,1.9632,2.0676,2.1042,2.0384,2.1013,2.1569,2.1759,2.2579,2.3106,2.3106,2.3106,2.3135,2.3179,2.3179,2.3208,2.3252,2.3208,2.258,2.1243,2.1149,2.0307,1.8813,1.9221,1.9265,1.8908,1.837,1.768,1.7006,1.613,1.53,1.4683,1.4864,1.49,1.4823,1.4849,1.4796,1.4512,1.2817,1.218,1.1814,0.0,0.0,0.0,0.0,0.0,0.0,0.0,0.0,0.0,0.0,0.0,0.0,0.0,0.0,0.0,0.0,0.0,0.0,0.0,0.0,0.0,0.0,0.0,0.0,0.0,0.0,0.7861,0.9692,1.1101,1.1878,1.2147,1.3477,1.329,1.1718,1.0875,1.0142,0.9516,0.9516,0.9516,0.9516,0.9516,0.0,0.0,0.0,0.0,0.0,0.0,0.0,0.0,1.176,1.2292,1.2804,1.2061,0.0,0.0,0.0,0.0,0.0,1.2219,1.3126,1.3799,1.3345,1.295,1.276,1.3082,1.2465,1.2443,1.4589,1.5224,1.5723,1.6901,1.8174,1.8531,1.6873,1.7647,1.8891,2.0003,2.0998,2.1379,2.072,2.1935,2.2623,2.2154,2.271,2.3106,2.3106,2.3106,2.3223,2.3501,2.3515,2.3647,2.3925,2.3662,2.3007,2.1844,2.1363,2.0467,1.9208,1.9196,1.8872,1.8254,1.7402,1.6717,1.6205,1.5032,1.4279,1.4019,1.427,1.4255,1.4095,1.4248,1.3957,1.3279,1.2487,1.1965,1.1312,0.0,0.0,0.0,0.0,0.0,0.0,0.0,0.0,0.0,0.0,0.0,0.0,0.0,0.0,0.0,0.0,0.0,0.0,0.0,0.0,0.0,0.0,0.0,0.0,0.0,0.0,0.869,1.0622,1.1762,1.2584,1.3037,1.3017,1.2542,1.1621,1.0539,0.9853,0.9516,0.9516,0.9516,0.9516,0.0,0.0,0.0,0.0,0.0,0.0,0.0,0.0,0.0,0.0,1.2328,1.2906,1.2277,0.0,0.0,0.0,0.0,0.0,1.2022,1.2785,1.344,1.3379,1.372,1.4316,1.5379,1.4403,1.3866,1.5994,1.5538,1.5312,1.702,1.7695,1.8091,1.8429,1.9798,2.0896,2.1013,2.1701,2.1964,2.132,2.2198,2.2608,2.1979,2.2637,2.3179,2.3354,2.3369,2.3515,2.3837,2.3866,2.3925,2.4086,2.3537,2.2888,2.1977,2.1332,2.0387,1.9212,1.9288,1.908,1.8586,1.7066,1.6364,1.6253,1.4554,1.3828,1.3908,1.4253,1.4349,1.4363,1.4552,1.4139,1.3224,1.1237,1.0168,0.9507,0.0,0.0,0.0,0.0,0.0,0.0,0.0,0.0,0.0,0.0,0.0,0.0,0.0,0.0,0.0,0.0,0.0,0.0,0.0,0.0,0.0,0.0,0.0,0.0,0.0,0.0,0.9437,1.1433,1.2362,1.3181,1.3882,1.2674,1.1902,1.1441,1.0298,0.9684,0.9516,0.9516,0.9516,0.9516,0.0,0.0,0.0,0.0,0.0,0.0,0.0,0.0,0.0,0.0,0.0,0.0,0.0,0.0,0.0,1.2015,1.1729,1.1755,1.2019,1.2606,1.3245,1.3822,1.4396,1.5282,1.6987,1.5762,1.4859,1.7077,1.611,1.5433,1.7343,1.7431,1.7856,1.9837,2.1335,2.2228,2.2052,2.2432,2.2564,2.2081,2.2447,2.255,2.2067,2.2754,2.3325,2.3574,2.3662,2.3852,2.4174,2.4058,2.4036,2.4043,2.3314,2.2574,2.1992,2.1327,2.0451,1.9265,1.947,1.9352,1.8764,1.6988,1.6118,1.605,1.4196,1.3519,1.3839,1.4103,1.4352,1.4501,1.4551,1.3798,1.2328,0.9501,0.8063,0.74,0.0,0.0,0.0,0.0,0.0,0.0,0.0,0.0,0.0,0.0,0.0,0.0,0.0,0.0,0.0,0.0,0.0,0.0,0.0,0.0,0.0,0.0,0.0,0.0,0.0,0.8505,0.9438,1.1219,1.2475,1.3375,1.3882,1.3037,1.2252,1.1465,1.0863,1.0202,0.9516,0.9516,0.9516,0.9516,0.9516,0.0,0.0,0.0,0.0,0.0,0.0,0.0,0.0,0.0,0.0,0.0,0.0,0.0,1.2423,1.194,1.1892,1.2105,1.2731,1.3195,1.366,1.4442,1.3903,1.369,1.5787,1.475,1.432,1.7578,1.7761,1.7882,1.9638,1.974,1.9872,2.0925,2.1218,2.1701,2.2842,2.3047,2.3062,2.3018,2.3047,2.3062,2.3018,2.334,2.3574,2.3588,2.3881,2.4188,2.451,2.3928,2.3655,2.4017,2.2997,2.2255,2.1846,2.1442,2.0772,1.9833,1.9845,1.9227,1.8039,1.7,1.5953,1.4857,1.3882,1.3404,1.3437,1.3489,1.3505,1.3477,1.3308,1.1766,0.937,0.7323,0.6309,0.5778,0.0,0.0,0.0,0.0,0.0,0.0,0.0,0.0,0.0,0.0,0.0,0.0,0.0,0.0,0.0,0.0,0.0,0.0,0.0,0.0,0.0,0.0,0.0,0.5062,0.7589,0.8324,0.962,1.1628,1.228,1.2974,1.364,1.2506,1.1682,1.12,1.0334,0.9877,0.9745,0.9479,0.9471,0.9613,0.9447,0.928,0.0,0.0,0.0,0.0,0.0,0.0,0.0,0.0,1.1417,1.1967,1.1794,1.1955,1.2164,1.2038,1.193,1.1942,1.229,1.2979,1.3623,1.3545,1.3744,1.4342,1.5934,1.557,1.5609,1.8108,1.7502,1.7016,1.8433,1.9959,2.1013,2.1189,2.1876,2.2564,2.3047,2.3106,2.3106,2.3106,2.3106,2.3193,2.3398,2.353,2.3764,2.4174,2.432,2.4525,2.4914,2.4189,2.384,2.402,2.2684,2.1932,2.176,2.1246,2.0735,2.0376,2.0207,1.971,1.8885,1.7329,1.6265,1.5615,1.417,1.3539,1.3547,1.366,1.3208,1.2285,1.0599,0.9541,0.8656,0.5884,0.5026,0.4898,0.0,0.0,0.0,0.0,0.0,0.0,0.0,0.0,0.0,0.0,0.0,0.0,0.0,0.0,0.0,0.0,0.0,0.0,0.0,0.0,0.0,0.0,0.0,0.4442,0.6573,0.754,0.9082,1.1146,1.16,1.2264,1.3109,1.1994,1.1393,1.1164,1.019,0.9949,1.025,0.9684,0.9536,0.9655,0.9353,0.9087,0.0,0.0,0.0,0.0,0.0,0.0,0.0,0.0,1.0962,1.145,1.1369,1.1546,1.1776,1.1836,1.2076,1.2362,1.2539,1.3101,1.3535,1.3319,1.3961,1.4784,1.5501,1.5663,1.6259,1.8395,1.8264,1.7962,1.873,2.0593,2.1846,2.1451,2.2096,2.2769,2.3062,2.3106,2.3106,2.3106,2.3106,2.3237,2.3559,2.3691,2.3984,2.4525,2.4457,2.4482,2.4766,2.3816,2.3338,2.3338,2.2104,2.1427,2.1427,2.0943,2.0665,2.0665,2.0278,1.9657,1.896,1.7517,1.6372,1.5593,1.3766,1.2942,1.295,1.2701,1.1959,1.067,0.8213,0.7344,0.6961,0.4267,0.34,0.3493,0.0,0.0,0.0,0.0,0.0,0.0,0.0,0.0,-0.1118,-0.0932,-0.0907,0.0,0.0,0.0,0.0,0.0,0.0,0.0,0.1616,0.197,0.2189,0.0,0.0,0.4154,0.5552,0.6255,0.7604,0.9579,1.0415,1.1305,1.2288,1.1742,1.1489,1.1453,1.0659,1.0587,1.102,1.01,0.9679,0.9655,0.919,0.8926,0.8797,0.0,0.0,0.0,0.0,0.0,0.0,0.0,1.0406,1.0353,1.0706,1.1028,1.1302,1.1284,1.2333,1.3527,1.373,1.3604,1.357,1.4158,1.4558,1.4689,1.4221,1.4594,1.5745,1.844,2.0392,2.1516,2.1263,2.2045,2.2503,2.1818,2.1701,2.2037,2.2974,2.3106,2.3106,2.3106,2.3106,2.3237,2.3574,2.3896,2.4218,2.4554,2.4256,2.4034,2.4034,2.2585,2.176,2.176,2.1081,2.0665,2.0665,2.0665,2.0665,2.0665,1.982,1.8901,1.7861,1.7429,1.623,1.4332,1.2452,1.1586,1.1514,1.0365,0.9435,0.8507,0.6554,0.5111,0.3943,0.2368,0.1542,0.1232,0.0,0.0,0.0,0.0,0.0,0.0,0.0,0.0,-0.1236,-0.0936,-0.0654,0.0,0.0,0.0,0.0,0.0,0.0,0.0,0.1679,0.1913,0.2104,0.2203,0.0,0.0,0.0,0.0,0.7794,0.9885,0.9936,1.057,1.1718,1.1561,1.1285,1.0924,1.0288,1.0151,1.0325,0.9297,0.903,0.9332,0.9308,0.9018,0.8625,0.0,0.0,0.0,0.0,0.0,0.0,0.0,0.0,0.0,1.0372,1.064,1.0877,1.0815,1.1805,1.2741,1.2182,1.3453,1.4796,1.4195,1.4976,1.6038,1.6503,1.6034,1.5925,1.7477,1.9699,2.1162,2.0606,2.1876,2.2704,2.1862,2.2257,2.2784,2.3062,2.3106,2.3106,2.3106,2.331,2.3574,2.391,2.4232,2.4554,2.4958,2.4385,2.4034,2.4034,2.2585,2.176,2.176,2.1081,2.0179,1.9111,1.9111,1.8541,1.7479,1.6685,1.6413,1.6564,1.5425,1.3721,1.1592,1.0437,1.0149,1.0293,0.9435,0.8641,0.7711,0.5756,0.4453,0.3574,0.2598,0.2237,0.208,0.0,0.0,0.0,0.0,0.0,0.0,-0.1348,-0.1209,-0.1127,-0.0931,-0.0539,-0.0213,0.0,0.0,0.0,0.1211,0.1631,0.1839,0.1706,0.1898,0.2073,0.2203,0.2441,0.2994,0.3944,0.5274,0.6854,0.8799,0.933,1.0076,1.102,1.1345,1.1429,1.1333,1.1127,1.1012,1.0907,0.9895,0.9487,0.9548,0.948,0.9164,0.881,0.0,0.0,0.0,0.0,0.0,0.0,0.0,0.0,0.0,0.9383,0.9632,0.9946,1.0341,1.14,1.2421,1.2444,1.3677,1.4851,1.4542,1.5322,1.6397,1.7337,1.6871,1.6434,1.7256,1.9202,2.0502,1.9852,2.1334,2.2219,2.0876,2.1107,2.1461,2.1461,2.1461,2.1488,2.1611,2.2312,2.2992,2.3351,2.3842,2.43,2.4617,2.3693,2.2859,2.2216,2.1126,2.0156,1.9576,1.91,1.8401,1.7479,1.7479,1.6836,1.5628,1.4778,1.406,1.3547,1.3136,1.2073,1.0365,0.9141,0.8497,0.828,0.7923,0.7272,0.6333,0.5143,0.3992,0.2978,0.2584,0.2458,0.2465,0.0,0.0,0.0,0.0,0.0,0.0,-0.1315,-0.1058,-0.0905,-0.0905,-0.0531,-0.0053,0.0,0.0,0.0,0.1647,0.1818,0.1848,0.1714,0.1873,0.2047,0.2203,0.2404,0.3066,0.4212,0.446,0.529,0.6795,0.8511,0.9677,1.0274,1.1104,1.1754,1.2288,1.2391,1.2344,1.2115,1.1018,1.0371,0.9962,0.9638,0.9354,0.9187,0.9353,0.0,0.0,0.0,0.0,0.0,0.0,0.0,0.0,0.8158,0.8342,0.8786,0.9729,1.1009,1.2342,1.3455,1.3917,1.4247,1.5047,1.563,1.6222,1.7067,1.6999,1.6966,1.7541,1.8782,1.9612,1.9076,2.055,2.1195,1.9291,1.8972,1.8972,1.8972,1.8972,1.9068,1.9256,2.0553,2.1646,2.2057,2.2687,2.324,2.3447,2.216,2.0768,1.9367,1.8611,1.7549,1.6131,1.6061,1.599,1.5849,1.5849,1.5416,1.4486,1.3357,1.1637,0.9551,1.0706,1.0712,0.979,0.8131,0.6837,0.5825,0.6192,0.5683,0.4665,0.467,0.3751,0.2382,0.2491,0.2521,0.2465,0.0,0.0,0.0,0.0,0.0,0.0,-0.0952,-0.0894,-0.0905,-0.0905,-0.0285,0.0232,0.0398,0.1031,0.0,0.1674,0.1777,0.1804,0.1777,0.1818,0.1962,0.2203,0.2451,0.2716,0.3063,0.3857,0.4579,0.5182,0.6897,0.8448,0.9862,1.0983,1.1657,1.193,1.0898,1.073,1.1082,0.8999,0.8576,0.9238,0.9377,0.9275,0.9005,0.881,0.8742,0.0,0.0,0.0,0.0,0.0,0.0,0.0,0.8176,0.847,0.863,0.8452,0.9826,1.1273,1.0556,1.2705,1.513,1.4998,1.6267,1.7263,1.6205,1.6121,1.6521,1.7334,1.7871,1.8287,1.8915,1.9355,1.9546,1.91,1.8972,1.8972,1.8972,1.8972,1.9068,1.9256,1.9801,2.0057,1.9752,2.0114,2.0107,1.9588,1.8696,1.8008,1.7728,1.6967,1.6343,1.5698,1.599,1.5425,1.3943,1.3872,1.2945,1.0946,0.979,0.8641,0.763,0.8131,0.748,0.5967,0.6112,0.6043,0.5825,0.5901,0.5465,0.467,0.479,0.3779,0.2459,0.3199,0.3,0.2465,0.0,0.0,0.0,0.0,0.0,0.0,0.0,0.0,-0.0819,-0.0601,-0.0026,0.0446,0.0707,0.127,0.0,0.0,0.1804,0.1824,0.1877,0.1824,0.1951,0.2344,0.2749,0.2935,0.2799,0.3344,0.3844,0.4254,0.546,0.7175,0.936,1.0551,1.1189,1.1312,1.0697,1.0204,0.9727,0.8429,0.8269,0.8895,0.9096,0.9086,0.8946,0.886,0.8632,0.8298,0.8074,0.0,0.0,0.0,0.0,0.0,0.0,0.0,0.8161,0.8322,0.9059,0.9964,1.0728,1.2035,1.3366,1.4121,1.5206,1.5959,1.5619,1.5606,1.5873,1.6401,1.6943,1.748,1.7931,1.8075,1.8075,1.8075,1.7496,1.7055,1.7055,1.7142,1.7107,1.6999,1.7836,1.82,1.7669,1.8074,1.8207,1.7778,1.7087,1.6404,1.5628,1.5283,1.4512,1.3444,1.3587,1.3095,1.1951,1.1736,1.0803,0.9008,0.8068,0.6986,0.5898,0.6257,0.5898,0.4956,0.5538,0.5901,0.6119,0.6264,0.5995,0.5299,0.5333,0.4563,0.341,0.3837,0.3471,0.2773,0.0,0.0,0.0,0.0,0.0,0.0,0.0,0.0,0.0,-0.025,0.0217,0.0646,0.1054,0.1465,0.1779,0.0,0.0,0.0,0.1961,0.1916,0.2029,0.238,0.2902,0.3054,0.2748,0.2799,0.3087,0.3676,0.4321,0.5911,0.8417,0.967,1.0304,1.0404,1.0365,0.9691,0.8541,0.8083,0.8078,0.8354,0.8414,0.8484,0.8493,0.8572,0.8155,0.7561,0.7489,0.7516,0.7566,0.726,0.0,0.0,0.0,0.0,0.7583,0.8289,0.842,0.8842,1.113,1.1284,1.1247,1.3172,1.3995,1.4456,1.5119,1.5293,1.5399,1.5485,1.6094,1.6656,1.6656,1.6656,1.6592,1.6462,1.5574,1.4866,1.4735,1.4903,1.484,1.4428,1.5569,1.6113,1.5548,1.6042,1.6394,1.6244,1.5698,1.4796,1.3603,1.3452,1.2602,1.0972,1.09,1.0678,1.0311,0.9879,0.9085,0.7923,0.7059,0.5974,0.4738,0.5029,0.5177,0.525,0.561,0.6047,0.6413,0.6555,0.6385,0.6089,0.5732,0.5138,0.4473,0.4328,0.3786,0.3158,0.0,0.0,0.0,0.0,0.0,0.0,0.0,0.0,0.0,0.0,0.0454,0.0933,0.1018,0.1415,0.1708,0.1743,0.1766,0.1798,0.1824,0.0,0.0,0.1982,0.2213,0.2281,0.2138,0.2061,0.2417,0.3197,0.3681,0.4791,0.6404,0.7807,0.8703,0.9108,0.7906,0.7753,0.8323,0.6602,0.6257,0.6852,0.6717,0.6753,0.6846,0.635,0.6163,0.6119,0.5783,0.5661,0.5735,0.6071,0.6143,0.0,0.0,0.0,0.7115,0.6967,0.7705,0.8477,0.8035,0.9526,1.1625,1.3424,1.4646,1.5229,1.4718,1.5152,1.5632,1.549,1.5323,1.5192,1.5192,1.5192,1.4987,1.4399,1.466,1.467,1.4137,1.4183,1.4311,1.436,1.4207,1.3825,1.3302,1.3317,1.3103,1.2395,1.2252,1.2115,1.19,1.1613,1.1109,1.0599,1.0599,1.0239,0.9446,0.909,0.829,0.7131,0.5974,0.5174,0.4738,0.5029,0.5177,0.525,0.561,0.6047,0.6341,0.5392,0.5577,0.6389,0.4659,0.4416,0.486,0.4525,0.3815,0.3158,0.0,0.0,0.0,0.0,0.0,0.0,0.0,0.0,0.0,0.0,0.0,0.1262,0.1533,0.1673,0.181,0.1974,0.1865,0.1798,0.1798,0.2052,0.2147,0.2059,0.2273,0.2292,0.2104,0.2163,0.236,0.2772,0.3234,0.3916,0.4769,0.5563,0.6511,0.7517,0.667,0.6272,0.6222,0.5227,0.5241,0.5853,0.5864,0.622,0.6682,0.6008,0.5914,0.6054,0.5413,0.5226,0.5327,0.5523,0.5675,0.579,0.6048,0.0,0.0,0.0,0.6703,0.725,0.7689,0.9696,1.1727,1.2049,1.3646,1.479,1.3175,1.4004,1.4832,1.4034,1.3805,1.4193,1.5759,1.5117,1.4464,1.4977,1.4259,1.3647,1.3494,1.3604,1.3584,1.3282,1.3177,1.2884,1.218,1.2115,1.1972,1.1619,1.1619,1.1619,1.1619,1.1188,1.0822,1.0527,1.0093,0.9512,0.8652,0.8061,0.7185,0.5974,0.5247,0.481,0.4738,0.5029,0.532,0.5538,0.5752,0.5901,0.605,0.6019,0.6304,0.6608,0.578,0.5698,0.5997,0.5327,0.3955,0.2516,0.0,0.0,0.0,0.0,0.0,0.0,0.0,0.0,0.0,0.0,0.0,0.1578,0.1989,0.0,0.0,0.0,0.198,0.1852,0.1908,0.2066,0.2148,0.2148,0.2261,0.2264,0.2093,0.2238,0.2333,0.2438,0.2819,0.3255,0.3689,0.3934,0.4723,0.5936,0.5716,0.5231,0.4569,0.442,0.4595,0.4953,0.5218,0.5747,0.6289,0.5938,0.5968,0.608,0.5282,0.5073,0.514,0.5072,0.5167,0.5344,0.546,0.5706,0.0,0.0,0.0,0.6171,0.7593,0.9261,1.0539,1.0399,1.2336,1.3797,1.2188,1.3199,1.4143,1.3115,1.279,1.3413,1.5534,1.4651,1.3866,1.4707,1.3726,1.2815,1.2799,1.2982,1.295,1.2492,1.2443,1.2259,1.1691,1.1619,1.1619,1.1619,1.1619,1.1548,1.1476,1.1109,1.0678,1.0239,0.9534,0.881,0.7996,0.7202,0.6176,0.5101,0.4883,0.481,0.4738,0.5174,0.5538,0.5825,0.5901,0.6057,0.6297,0.6802,0.7116,0.7297,0.6601,0.6597,0.6826,0.5257,0.3475,0.1891,0.0,0.0,0.0,0.0,0.0,0.0,0.0,0.0,0.0,0.0,0.0,0.1815,0.2158,0.1952,0.1912,0.2165,0.2062,0.2045,0.2184,0.2076,0.202,0.202,0.1888,0.0,0.1829,0.1939,0.2082,0.2212,0.2427,0.2825,0.3419,0.3568,0.3944,0.453,0.4772,0.4715,0.4508,0.4546,0.4312,0.3952,0.4652,0.488,0.4871,0.5555,0.5796,0.5727,0.4972,0.4733,0.4706,0.4441,0.4308,0.436,0.4801,0.5225,0.553,0.0,0.0,0.0,0.6854,0.7014,0.7296,0.9034,1.0934,1.24,1.2609,1.3426,1.4015,1.3723,1.3087,1.2686,1.298,1.2947,1.2692,1.2107,1.2429,1.2616,1.212,1.2157,1.2328,1.2422,1.1952,1.1619,1.1619,1.1619,1.1619,1.1619,1.1619,1.1404,1.1044,1.0678,1.0167,0.9374,0.8951,0.8372,0.7638,0.6482,0.5468,0.4738,0.5029,0.5029,0.4738,0.5462,0.5752,0.5825,0.6192,0.682,0.756,0.6899,0.7598,0.8913,0.6159,0.6052,0.7056,0.345,0.2008,0.1739,0.0,0.0,0.0,0.0,0.0,0.0,0.0,0.0,0.0,0.0,0.0,0.0,0.0,0.1889,0.1874,0.1934,0.1942,0.1998,0.2181,0.2073,0.1986,0.1986,0.188,0.1798,0.1798,0.1933,0.2076,0.2206,0.2187,0.2571,0.3327,0.3217,0.3472,0.4091,0.4359,0.448,0.4498,0.4312,0.4154,0.4014,0.354,0.4245,0.5431,0.4588,0.4996,0.5946,0.5748,0.5066,0.438,0.479,0.4569,0.4158,0.433,0.4547,0.4764,0.4993,0.5035,0.5257,0.6351,0.7058,0.7672,0.8355,1.0183,1.1514,1.0391,1.1334,1.23,1.1851,1.1495,1.1414,1.1949,1.2071,1.2107,1.1843,1.1578,1.1466,1.1453,1.1537,1.1671,1.186,1.1729,1.1619,1.1619,1.1619,1.1476,1.126,1.1902,1.172,1.0371,1.0626,1.0251,0.8935,0.8358,0.759,0.6562,0.6071,0.5462,0.4738,0.5029,0.5029,0.4738,0.5583,0.59,0.5977,0.6697,0.7001,0.7055,0.7323,0.7942,0.8391,0.6833,0.6091,0.5636,0.3212,0.1004,-0.0831,0.0,0.0,0.0,0.0,0.0,0.0,0.0,0.0,0.0,0.1499,0.0,0.0,0.0,0.0,0.1848,0.1832,0.1947,0.2061,0.2165,0.2107,0.2035,0.1955,0.1896,0.1852,0.1798,0.1912,0.1977,0.2022,0.206,0.2423,0.3075,0.3035,0.3316,0.3863,0.4038,0.4026,0.3873,0.4116,0.3844,0.3241,0.3507,0.4045,0.4696,0.4609,0.5017,0.5626,0.554,0.4895,0.4082,0.412,0.4166,0.4151,0.3766,0.3859,0.0,0.0,0.4481,0.4718,0.5533,0.6329,0.7028,0.7434,0.8918,1.0059,0.9267,0.9981,1.0824,1.0691,1.0463,1.0426,1.1073,1.1241,1.1388,1.1439,1.1031,1.088,1.1131,1.1206,1.1335,1.1592,1.1619,1.1619,1.1619,1.1619,1.1404,1.1044,1.1608,1.128,0.9795,1.0052,0.9678,0.8357,0.7778,0.7007,0.6124,0.5925,0.5462,0.4883,0.4956,0.4968,0.4988,0.5696,0.6103,0.628,0.7193,0.7423,0.7294,0.7955,0.8098,0.7821,0.6718,0.5405,0.3914,0.1645,-0.054,-0.2421,0.0,0.0,0.0,0.0,0.0,0.0,0.0,0.0,0.1592,0.2119,0.0,0.0,0.0,0.0,0.0,0.1901,0.2078,0.2176,0.2105,0.2165,0.2098,0.1919,0.0,0.0,0.0,0.1874,0.1842,0.1706,0.2022,0.2324,0.2588,0.2984,0.3374,0.3779,0.3783,0.3323,0.267,0.406,0.3387,0.1651,0.4488,0.4268,0.2582,0.5644,0.5988,0.4732,0.4258,0.4035,0.3781,0.2326,0.2947,0.4182,0.3152,0.0,0.0,0.0,0.0,0.0,0.0,0.0,0.0,0.6236,0.7043,0.7892,0.9362,0.0,0.9739,1.0499,1.0157,0.9883,1.0272,1.0392,1.0541,1.0697,1.0779,1.1002,1.1151,1.1301,1.145,1.1599,1.1619,1.1619,1.1619,1.1619,1.1404,1.0972,1.0737,1.0155,0.9302,0.8874,0.8295,0.7638,0.7208,0.6773,0.6413,0.6047,0.561,0.525,0.4886,0.4991,0.5419,0.587,0.6284,0.6736,0.7663,0.8243,0.8545,0.8545,0.8138,0.7357,0.5633,0.3914,0.2037,-0.1254,-0.2472,-0.2654,0.0,0.0,0.0,0.0,0.0,0.1119,0.1621,0.1623,0.1669,0.0,0.0,0.0,0.1795,0.1865,0.2016,0.2182,0.2185,0.2197,0.2176,0.2015,0.1896,0.1819,0.1803,0.1757,0.173,0.1785,0.1777,0.1706,0.1786,0.2025,0.0,0.2484,0.2737,0.309,0.3285,0.2801,0.1916,0.2765,0.3403,0.371,0.2185,0.3134,0.5215,0.3248,0.4192,0.6246,0.4338,0.3891,0.4067,0.3039,0.3139,0.376,0.3746,0.0,0.0,0.0,0.0,0.0,0.4361,0.0,0.0,0.0,0.0,0.0,0.649,0.0,0.7668,0.9276,0.919,0.93,1.0831,1.0749,1.0541,1.0697,1.0779,1.0968,1.1294,1.1362,1.145,1.1599,1.1619,1.1619,1.1619,1.1619,1.1188,1.0239,1.0804,1.0271,0.8203,0.7711,0.7353,0.7208,0.7063,0.6773,0.6413,0.6555,0.6337,0.561,0.588,0.5917,0.587,0.6653,0.7101,0.7281,0.8147,0.811,0.7407,0.7407,0.7419,0.7201,0.4305,0.2193,0.0392,-0.1741,-0.3303,-0.4352,0.0,0.0,0.0527,0.0937,0.1194,0.1522,0.1994,0.2041,0.2065,0.0,0.0,0.0,0.201,0.2132,0.2283,0.2345,0.2216,0.2148,0.2087,0.189,0.1755,0.1676,0.1737,0.1759,0.1706,0.1741,0.173,0.1668,0.172,0.1856,0.2052,0.2278,0.2441,0.2565,0.2749,0.2564,0.2136,0.199,0.2191,0.2584,0.1791,0.2232,0.3126,0.1819,0.2506,0.3956,0.2626,0.2328,0.2485,0.1648,0.1959,0.2845,0.3892,0.0,0.0,0.0,0.0,0.0,0.0,0.0,0.0,0.0,0.0,0.0,0.5755,0.0,0.0,0.0,0.8951,0.9328,1.0841,1.0884,1.0739,1.1027,1.1214,1.128,1.1302,1.1402,1.1518,1.1606,1.1619,1.1619,1.1619,1.1332,1.0822,0.9951,1.0012,0.9279,0.7412,0.7135,0.699,0.699,0.699,0.6918,0.6627,0.67,0.6497,0.6092,0.6212,0.6269,0.6337,0.7037,0.7488,0.7761,0.8672,0.7989,0.6339,0.5792,0.5321,0.4618,0.1957,-0.0157,-0.1818,-0.3183,-0.4212,-0.5063,0.0,0.0,0.0785,0.1583,0.1762,0.1983,0.2539,0.2631,0.2618,0.0,0.2546,0.2543,0.2592,0.2628,0.2603,0.2464,0.2276,0.208,0.1915,0.1814,0.1676,0.1494,0.1734,0.1803,0.1698,0.1708,0.1684,0.1591,0.1717,0.1762,0.1756,0.2193,0.2331,0.2179,0.2235,0.2446,0.2686,0.1735,0.0729,0.004,0.2272,0.1475,-0.0813,0.0964,0.1058,0.0147,0.0107,0.0157,0.0196,-0.052,0.0184,0.1679,0.3593,0.4025,0.3836,0.0,0.4122,0.0,0.0,0.0,0.0,0.0,0.452,0.0,0.605,0.0,0.0,0.0,0.8696,0.9252,1.0162,1.0532,1.0807,1.1196,1.1448,1.1509,1.1199,1.1382,1.1565,1.1504,1.1552,1.1586,1.1572,1.0914,1.0269,0.9839,0.8621,0.7697,0.7063,0.699,0.699,0.699,0.699,0.699,0.699,0.6639,0.6535,0.6529,0.6251,0.6412,0.6857,0.7326,0.7838,0.8315,0.8852,0.7669,0.5315,0.3829,0.2425,0.094,-0.0862,-0.2529,-0.3997,-0.4808,-0.5131,-0.5139,0.0395,0.0925,0.1446,0.1737,0.2145,0.2496,0.2734,0.2768,0.2755,0.2677,0.2609,0.2756,0.326,0.3075,0.292,0.2887,0.2536,0.2239,0.1989,0.1721,0.1515,0.143,0.1567,0.1658,0.1632,0.173,0.1725,0.1591,0.1616,0.1761,0.2023,0.1907,0.1915,0.2048,0.2048,0.1984,0.1894,0.2408,0.2143,0.1308,0.0596,0.095,0.1731,-0.0205,0.0477,0.2135,-0.0448,-0.045,0.0769,0.0311,0.0192,0.0601,0.2447,0.3462,0.3956,0.3996,0.467,0.0,0.0,0.0,0.0,0.402,0.428,0.0,0.4337,0.4615,0.5202,0.0,0.6434,0.6833,0.7844,0.8721,0.9249,0.9111,0.9884,1.0554,1.0637,1.109,1.1253,1.0772,1.1138,1.1389,1.1267,1.0626,0.9852,0.9148,0.7898,0.7124,0.6986,0.699,0.699,0.699,0.699,0.699,0.699,0.6991,0.6961,0.6977,0.7117,0.7201,0.7314,0.8165,0.8604,0.8622,0.7435,0.5864,0.3908,0.0938,-0.0078,0.0,-0.2456,-0.3588,-0.4006,-0.4895,-0.5259,-0.5254,0.0821,0.129,0.1717,0.1948,0.2323,0.2662,0.288,0.2927,0.2978,0.3046,0.3075,0.3166,0.3283,0.3178,0.3048,0.2861,0.2516,0.2229,0.2059,0.174,0.1505,0.1416,0.1526,0.1655,0.1789,0.1773,0.1776,0.1792,0.1731,0.171,0.1764,0.1895,0.2019,0.2147,0.1934,0.196,0.2173,0.2319,0.2199,0.1818,0.0768,0.0792,0.1168,-0.0954,-0.0772,0.0449,-0.1222,-0.1229,-0.0344,0.0526,0.0738,0.0968,0.2587,0.3947,0.4965,0.4975,0.5351,0.554,0.4554,0.4371,0.4421,0.4242,0.4237,0.0,0.0,0.4635,0.4955,0.5852,0.6112,0.643,0.7428,0.8258,0.8852,0.9024,0.978,1.0144,0.9557,1.0398,1.0833,1.0272,1.0567,1.0626,1.0134,0.9486,0.8755,0.7977,0.7295,0.6941,0.6986,0.699,0.699,0.699,0.699,0.699,0.699,0.708,0.715,0.7194,0.7325,0.7415,0.746,0.8366,0.8072,0.6889,0.6492,0.4376,0.1095,-0.063,-0.1817,-0.269,-0.3984,-0.4507,-0.4641,-0.5105,-0.5313,-0.5335,0.1233,0.1563,0.1874,0.2158,0.2427,0.2707,0.2957,0.3066,0.3181,0.3399,0.3528,0.3481,0.3136,0.3246,0.3191,0.2826,0.2479,0.2262,0.2232,0.1826,0.1584,0.1547,0.157,0.172,0.2037,0.1812,0.1763,0.1908,0.1786,0.1627,0.1458,0.1839,0.2076,0.2138,0.1888,0.1901,0.2101,0.1891,0.1692,0.148,0.0934,0.0536,0.0146,-0.1243,-0.1687,-0.1533,-0.1848,-0.1921,-0.1637,0.0322,0.1006,0.1392,0.2949,0.455,0.5838,0.5822,0.5949,0.5848,0.4725,0.4545,0.4668,0.4675,0.4395,0.4279,0.0,0.0,0.0,0.5761,0.6006,0.6343,0.0,0.0,0.0,0.8886,0.0,0.0,0.0,0.9464,0.0,0.9513,0.9806,0.9875,0.9346,0.8739,0.8009,0.6965,0.6984,0.7042,0.699,0.699,0.699,0.699,0.699,0.699,0.699,0.7096,0.719,0.7264,0.7366,0.7456,0.7525,0.8072,0.7127,0.5006,0.5084,0.2661,-0.1336,-0.1904,-0.3278,-0.5147,-0.5147,-0.5207,-0.5294,-0.5308,-0.5343,-0.5384,0.1279,0.1706,0.2091,0.2173,0.2513,0.2838,0.2976,0.3117,0.3279,0.3458,0.3569,0.3477,0.3234,0.3568,0.3634,0.3197,0.2832,0.2623,0.2631,0.197,0.1754,0.2091,0.1717,0.1714,0.2177,0.1812,0.1599,0.1545,0.1485,0.1515,0.1657,0.1487,0.1471,0.1606,0.1909,0.1295,0.0123,0.1313,0.1038,-0.0283,-0.0865,-0.0127,0.1089,-0.0983,-0.1255,-0.0586,-0.1604,-0.1952,-0.1724,-0.0382,0.0103,0.0541,0.2564,0.4376,0.5621,0.5225,0.6081,0.6843,0.5608,0.5283,0.5167,0.4648,0.4866,0.4999,0.4087,0.0,0.4525,0.4447,0.0,0.4745,0.4869,0.0,0.0,0.0,0.0,0.0,0.8008,0.8284,0.8331,0.7907,0.895,0.9825,1.03,1.0087,0.9019,0.6856,0.7106,0.7267,0.6986,0.699,0.699,0.699,0.699,0.699,0.699,0.7162,0.7252,0.7264,0.7431,0.7513,0.7447,0.6893,0.6027,0.4849,0.1957,-0.0079,-0.159,-0.3747,-0.4932,-0.5273,-0.5273,-0.5281,-0.53,-0.5354,-0.5379,-0.5376,0.1369,0.1775,0.2101,0.2091,0.2332,0.2602,0.286,0.3149,0.3413,0.3491,0.3622,0.375,0.3798,0.3499,0.3305,0.3248,0.2579,0.2203,0.2289,0.0,0.0,0.2179,0.182,0.1824,0.2256,0.1757,0.155,0.1669,0.1373,0.1312,0.1457,0.1401,0.1625,0.208,0.2222,0.1658,0.0672,0.1339,0.0839,-0.0404,0.0125,0.0625,0.0841,-0.1425,-0.1887,-0.1213,-0.0713,-0.115,-0.1571,0.0943,0.1407,0.1345,0.3717,0.5188,0.6058,0.614,0.6398,0.6485,0.5707,0.5315,0.5168,0.5312,0.5042,0.4709,0.4672,0.4381,0.4088,0.4079,0.0,0.0,0.0,0.0,0.0,0.0,0.7158,0.0,0.0,0.0,0.7665,0.0,0.0,0.0,0.8108,0.8393,0.8138,0.713,0.7199,0.7303,0.7296,0.7115,0.699,0.699,0.699,0.7015,0.7068,0.7199,0.7288,0.7337,0.7464,0.7369,0.7138,0.603,0.4381,0.2349,0.0158,-0.1825,-0.3674,-0.4781,-0.5248,-0.5297,-0.5333,-0.5346,-0.5349,-0.5376,-0.5384,-0.5382,0.1396,0.172,0.1954,0.1982,0.2153,0.2409,0.2784,0.32,0.3507,0.3569,0.3742,0.3895,0.4062,0.3539,0.3221,0.3252,0.2566,0.2125,0.2119,0.1838,0.1833,0.2228,0.1939,0.194,0.2271,0.178,0.1574,0.1661,0.1322,0.1213,0.1335,0.1334,0.1631,0.2167,0.234,0.1924,0.1159,0.1203,0.0468,-0.0688,-0.0044,0.0,-0.0433,-0.1621,-0.2049,-0.1847,-0.0601,-0.0967,-0.1586,0.129,0.1717,0.1518,0.3685,0.5026,0.5891,0.61,0.6233,0.6238,0.5783,0.5405,0.5177,0.5542,0.4974,0.4408,0.4803,0.4375,0.3934,0.3984,0.4092,0.0,0.0,0.0,0.0,0.0,0.0,0.7044,0.0,0.6898,0.0,0.0,0.0,0.0,0.0,0.7457,0.7844,0.7414,0.7473,0.7458,0.751,0.7194,0.699,0.699,0.7015,0.706,0.7125,0.7239,0.7329,0.739,0.748,0.7213,0.6666,0.5089,0.2902,0.0315,-0.135,-0.3282,-0.5169,-0.5256,-0.5303,-0.5322,-0.5368,-0.5384,-0.5384,-0.5384,-0.5384,-0.5387,0.1283,0.147,0.167,0.1874,0.2082,0.237,0.2836,0.3182,0.3507,0.3744,0.3838,0.3894,0.3799,0.389,0.3717,0.3136,0.3009,0.28,0.2419,0.1894,0.1808,0.2273,0.2114,0.2047,0.2189,0.1996,0.1692,0.1307,0.1301,0.1331,0.0,0.1271,0.1251,0.138,0.2091,0.1776,0.0721,0.0654,-0.0238,-0.1739,-0.2902,-0.3246,-0.2898,-0.1145,-0.1136,-0.1977,-0.1912,-0.1975,-0.1769,-0.0449,0.0,0.0163,0.1363,0.3096,0.466,0.4139,0.5282,0.6558,0.6025,0.5753,0.5436,0.482,0.4634,0.4421,0.3804,0.3923,0.414,0.4024,0.4368,0.4626,0.4511,0.0,0.0,0.0,0.0,0.0,0.0,0.0,0.0,0.0,0.0,0.0,0.0,0.8556,0.9037,0.0,0.7955,0.7986,0.7514,0.7194,0.699,0.699,0.7076,0.7121,0.7125,0.7297,0.7386,0.739,0.748,0.7056,0.6271,0.3762,0.1576,-0.0239,-0.2714,-0.4372,-0.5289,-0.5292,-0.533,-0.5382,-0.5384,-0.5384,-0.5384,-0.5384,-0.5384,-0.5392,0.1469,0.1436,0.1457,0.1621,0.1697,0.1901,0.236,0.2887,0.3161,0.3076,0.3245,0.3439,0.3665,0.3177,0.3057,0.348,0.27,0.2281,0.2534,0.2009,0.1836,0.2263,0.1933,0.1922,0.231,0.1788,0.1543,0.1623,0.1322,0.1255,0.0,0.0,0.0,0.0,0.0,0.2009,0.0,0.0,0.0,0.0,0.0,-0.1242,-0.1173,-0.18,-0.2035,-0.2004,-0.2004,-0.2018,-0.183,-0.0301,0.0059,0.0236,0.271,0.3749,0.4256,0.5246,0.5757,0.6002,0.6152,0.5886,0.5624,0.5663,0.5136,0.4609,0.4604,0.448,0.4321,0.4045,0.4429,0.4762,0.4539,0.0,0.0,0.0,0.0,0.0,0.0,0.0,0.0,0.0,0.0,0.0,0.0,0.0,0.0,0.0,0.7973,0.0,0.8086,0.7612,0.7348,0.7353,0.7204,0.7154,0.7215,0.7329,0.7419,0.748,0.6963,0.5799,0.4073,0.1879,-0.0236,-0.2234,-0.4025,-0.4974,-0.5297,-0.5338,-0.5365,-0.5384,-0.5384,-0.5384,-0.5384,-0.5384,-0.5412,-0.5452,0.1547,0.1399,0.1373,0.161,0.1666,0.184,0.2376,0.2871,0.3175,0.3048,0.3181,0.3322,0.3456,0.2893,0.2704,0.3268,0.2653,0.2309,0.2488,0.2331,0.2273,0.2246,0.2116,0.2087,0.2127,0.1853,0.166,0.1634,0.1528,0.1491,0.0,0.0,0.0,0.0,0.0,0.2497,0.2229,0.079,-0.0192,0.0,0.0,-0.0977,0.0,-0.1906,-0.2009,-0.2004,-0.2004,-0.2016,-0.1899,-0.0807,-0.0616,-0.0431,0.2068,0.2928,0.3398,0.5108,0.5656,0.576,0.603,0.5877,0.5647,0.5785,0.5273,0.4784,0.4894,0.4853,0.4704,0.4347,0.4665,0.4982,0.4873,0.0,0.0,0.0,0.0,0.0,0.0,0.5156,0.0,0.0,0.0,0.0,0.0,0.0,0.0,0.0,0.0,0.0,0.0,0.7742,0.7401,0.7205,0.7187,0.7203,0.7264,0.7378,0.7297,0.7011,0.6573,0.4925,0.2334,0.0549,-0.1507,-0.3775,-0.5123,-0.5763,-0.5829,-0.587,-0.5888,-0.5888,-0.572,-0.5732,-0.5921,-0.5586,-0.5469,-0.5542,0.156,0.1439,0.1526,0.1905,0.2003,0.2226,0.2833,0.3172,0.3472,0.3665,0.3518,0.3367,0.3268,0.2957,0.2738,0.2655,0.2921,0.2867,0.239,0.2902,0.2954,0.2227,0.2592,0.2475,0.1659,0.2101,0.2039,0.1343,0.1916,0.0,0.0,0.0,0.0,0.0,0.2743,0.0,0.3262,0.0948,0.014,0.0329,-0.0789,-0.2216,-0.3487,-0.1298,-0.1078,-0.1977,-0.1978,-0.1979,-0.1981,-0.1981,-0.1979,-0.1793,-0.0432,0.0924,0.2284,0.3693,0.4919,0.59,0.5818,0.5729,0.5512,0.5226,0.5138,0.5018,0.4709,0.5004,0.5245,0.4897,0.5032,0.528,0.547,0.0,0.0,0.0,0.0,0.0,0.0,0.0,0.0,0.0,0.0,0.0,0.0,0.0,0.0,0.0,0.0,0.0,0.0,0.7592,0.7211,0.6654,0.7075,0.7235,0.7264,0.7423,0.708,0.6242,0.6237,0.4439,0.1079,-0.0236,-0.2245,-0.471,-0.6003,-0.6656,-0.6727,-0.6727,-0.6727,-0.6643,-0.6305,-0.6434,-0.6754,-0.591,-0.5643,-0.574,0.2538,0.2766,0.2875,0.2925,0.2639,0.2572,0.3186,0.3179,0.3172,0.3464,0.2904,0.2528,0.2698,0.2308,0.2304,0.3002,0.2875,0.2762,0.2912,0.2776,0.2432,0.1862,0.1896,0.1963,0.1954,0.1882,0.1787,0.1734,0.2054,0.0,0.1858,0.0,0.0,0.0,0.0,0.3256,0.3529,0.0788,-0.0518,-0.0665,0.0497,0.017,-0.0886,-0.0059,-0.0719,-0.1979,-0.2,-0.2022,-0.2106,-0.2106,-0.2026,-0.1756,-0.0439,0.0932,0.2279,0.3586,0.4878,0.5925,0.5912,0.5916,0.5827,0.5788,0.5575,0.5382,0.5281,0.5426,0.5492,0.5184,0.5442,0.5601,0.5277,0.5038,0.0,0.0,0.0,0.0,0.0,0.0,0.0,0.5002,0.0,0.0,0.0,0.0,0.0,0.0,0.0,0.0,0.0,0.0,0.6547,0.7238,0.691,0.6927,0.726,0.7239,0.6861,0.6244,0.5639,0.3599,0.0234,-0.1108,-0.313,-0.5607,-0.6331,-0.6656,-0.6727,-0.6727,-0.6727,-0.6727,-0.656,-0.6721,-0.6838,-0.6376,-0.6153,-0.6189,0.3021,0.3267,0.3479,0.3731,0.3287,0.302,0.3362,0.3253,0.3115,0.3067,0.2593,0.2247,0.2225,0.1941,0.1997,0.2532,0.2804,0.2857,0.2732,0.3019,0.2819,0.2014,0.2004,0.2154,0.2467,0.2015,0.1967,0.2208,0.2368,0.0,0.2054,0.0,0.0,0.0,0.0,0.3492,0.3573,0.089,-0.0817,-0.1569,-0.011,-0.057,0.0,-0.0354,-0.1018,-0.2779,-0.2181,-0.2011,-0.2026,-0.2026,-0.2015,-0.1688,0.025,0.1364,0.2339,0.4247,0.5298,0.5929,0.592,0.5924,0.5928,0.5976,0.5904,0.5864,0.5822,0.5856,0.5872,0.5651,0.5769,0.584,0.5747,0.5365,0.0,0.0,0.0,0.0,0.0,0.0,0.0,0.0,0.4871,0.0,0.0,0.0,0.0,0.0,0.0,0.0,0.0,0.0,0.626,0.6792,0.6677,0.67,0.6966,0.6917,0.6443,0.5546,0.4686,0.2398,-0.1167,-0.2399,-0.4295,-0.6746,-0.711,-0.727,-0.7311,-0.7311,-0.7311,-0.7318,-0.7392,-0.7324,-0.7265,-0.7081,-0.6935,-0.6675,0.3307,0.3447,0.38,0.4381,0.3976,0.3583,0.3439,0.3279,0.3097,0.2769,0.2524,0.2265,0.1965,0.1857,0.1856,0.1908,0.2728,0.295,0.2401,0.3368,0.3492,0.2367,0.241,0.2564,0.2833,0.2326,0.2216,0.254,0.2697,0.0,0.0,0.0,0.0,0.0,0.0,0.0,0.0,0.1141,-0.069,-0.2269,-0.1493,-0.2511,-0.4169,-0.1379,-0.1754,-0.3658,-0.2421,-0.1984,-0.1977,-0.1977,-0.1977,-0.1543,0.0924,0.1847,0.2462,0.4926,0.5732,0.5921,0.5933,0.5932,0.5996,0.6021,0.621,0.6317,0.6251,0.6243,0.6251,0.6251,0.6055,0.6048,0.6419,0.5702,0.5017,0.0,0.0,0.0,0.0,0.0,0.0,0.0,0.0,0.0,0.0,0.0,0.0,0.0,0.0,0.0,0.0,0.0,0.0,0.5961,0.6406,0.657,0.6505,0.6538,0.5975,0.4638,0.375,0.1371,-0.2322,-0.3561,-0.542,-0.7665,-0.7991,-0.806,-0.806,-0.806,-0.8068,-0.8097,-0.8268,-0.8126,-0.7861,-0.7944,-0.771,-0.7263,0.3973,0.4432,0.482,0.4798,0.4779,0.4478,0.3684,0.303,0.2764,0.3218,0.2457,0.2079,0.2397,0.2061,0.1993,0.2416,0.2622,0.268,0.2536,0.2991,0.3025,0.2394,0.2352,0.2367,0.2381,0.198,0.1893,0.2127,0.2449,0.0,0.0,0.0,0.0,0.0,0.0,0.0,0.0436,0.1199,0.0201,-0.1863,-0.1465,-0.1614,-0.2179,-0.2131,-0.2611,-0.3132,-0.2367,-0.2018,-0.1977,-0.1977,-0.1977,-0.1729,-0.0123,0.1108,0.2278,0.3815,0.5049,0.5933,0.5948,0.5976,0.6025,0.6235,0.6349,0.6447,0.6504,0.6578,0.6631,0.6631,0.6533,0.639,0.6258,0.5704,0.52,0.5028,0.4483,0.4276,0.4748,0.0,0.0,0.0,0.0,0.4453,0.0,0.0,0.0,0.0,0.0,0.0,0.0,0.0,0.0,0.0,0.6134,0.6011,0.0,0.6353,0.6016,0.4879,0.3812,0.1923,-0.0634,-0.3017,-0.5113,-0.6931,-0.777,-0.806,-0.806,-0.806,-0.8105,-0.8183,-0.8293,-0.8304,-0.8393,-0.8486,-0.8429,-0.825,0.5113,0.4936,0.4836,0.4968,0.4182,0.355,0.3512,0.263,0.2092,0.2584,0.2219,0.2,0.2214,0.1994,0.194,0.2218,0.2487,0.2541,0.2273,0.262,0.2686,0.218,0.2089,0.2226,0.2636,0.2041,0.2017,0.2639,0.2599,0.2588,0.0,0.0,0.0,0.0,0.0,0.1667,0.0,-0.0227,-0.1221,-0.244,-0.2791,-0.3121,-0.3334,-0.3186,-0.3482,-0.3804,-0.2709,-0.243,-0.2525,-0.2129,-0.1989,-0.1667,0.037,0.1478,0.2401,0.437,0.5389,0.5936,0.598,0.6057,0.621,0.6296,0.646,0.6607,0.6651,0.6729,0.679,0.679,0.6721,0.6572,0.6185,0.6027,0.5647,0.4848,0.4827,0.4793,0.455,0.0,0.4624,0.0,0.0,0.0,0.0,0.0,0.0,0.0,0.0,0.0,0.0,0.0,0.0,0.0,0.0,0.0,0.6145,0.0,0.5109,0.346,0.2432,0.0309,-0.2818,-0.4588,-0.6114,-0.7361,-0.7857,-0.806,-0.806,-0.806,-0.8142,-0.8272,-0.8317,-0.8419,-0.855,-0.8591,-0.8607,-0.8518,0.5024,0.4301,0.3737,0.3895,0.2799,0.2082,0.2481,0.1775,0.141,0.1834,0.1943,0.1959,0.191,0.1926,0.193,0.2023,0.2326,0.2438,0.2178,0.2503,0.2512,0.2192,0.2002,0.2268,0.2847,0.2164,0.2208,0.2993,0.2698,0.2611,0.2775,0.0,0.0,0.0,0.0,0.0898,0.0116,-0.1787,-0.2921,-0.3526,-0.4093,-0.4636,-0.5009,-0.4005,-0.4034,-0.4426,-0.3126,-0.2795,-0.2847,-0.1917,-0.1576,-0.1121,0.1243,0.2237,0.2921,0.5288,0.6023,0.6021,0.6041,0.6227,0.6349,0.637,0.6566,0.6754,0.6754,0.6819,0.6956,0.6956,0.6815,0.6634,0.6271,0.6253,0.586,0.4732,0.4967,0.5037,0.4375,0.0,0.0,0.0,0.0,0.0,0.2852,0.0,0.0,0.0,0.0,0.0,0.0,0.0,0.0,0.0,0.0,0.5562,0.623,0.0,0.4223,0.2131,0.1059,-0.1394,-0.5034,-0.6082,-0.7117,-0.7966,-0.8032,-0.806,-0.8064,-0.8085,-0.8187,-0.8338,-0.8354,-0.8464,-0.8607,-0.8607,-0.8607,-0.8518,0.1793,0.1399,0.0915,0.0148,0.0598,0.0724,-0.0116,0.0291,0.0989,0.18,0.1956,0.1974,0.1969,0.1971,0.2108,0.2443,0.223,0.2346,0.3038,0.277,0.2764,0.3073,0.2654,0.2469,0.2456,0.2096,0.2047,0.2277,0.2387,0.26,0.2972,0.3114,0.2547,0.137,0.1178,-0.0253,-0.2545,-0.2596,-0.3559,-0.5022,-0.4404,-0.4689,-0.5419,-0.4245,-0.4021,-0.4225,-0.3086,-0.2661,-0.2368,-0.0721,-0.013,0.0128,0.1603,0.2949,0.4293,0.577,0.6161,0.6186,0.6268,0.6366,0.6527,0.6545,0.6705,0.6914,0.6914,0.6913,0.6978,0.6978,0.6905,0.6844,0.6613,0.596,0.5305,0.5092,0.4404,0.4047,0.4475,0.0,0.4127,0.3755,0.0,0.0,0.0,0.2524,0.0,0.0,0.0,0.0,0.0,0.0,0.0,0.5431,0.5498,0.5384,0.5052,0.5248,0.4374,0.2417,0.0611,-0.1628,-0.4217,-0.5833,-0.7146,-0.8052,-0.806,-0.806,-0.8068,-0.815,-0.8244,-0.8342,-0.8428,-0.8522,-0.8607,-0.8607,-0.8607,-0.8607,0.2129,0.1035,0.0187,0.0099,-0.0607,-0.1052,-0.0798,-0.0825,-0.072,-0.0181,0.0554,0.1063,0.1063,0.1626,0.2044,0.2175,0.2126,0.2198,0.2526,0.2407,0.2389,0.2515,0.2331,0.2187,0.2141,0.2001,0.2015,0.2221,0.23,0.2491,0.2732,0.1948,0.0785,-0.0676,-0.134,-0.2276,-0.3395,-0.3999,-0.4654,-0.5091,-0.3747,-0.3458,-0.3663,-0.2068,-0.1747,-0.1947,-0.1277,-0.0938,-0.0599,0.0333,0.0394,0.0451,0.2639,0.3732,0.4441,0.5793,0.6219,0.6284,0.6374,0.6468,0.6558,0.6647,0.6762,0.6923,0.6923,0.6925,0.699,0.699,0.6917,0.676,0.62,0.591,0.5474,0.4633,0.4413,0.4267,0.4198,0.0,0.0,0.3358,0.0,0.0,0.0,0.0,0.0,0.0,0.0,0.0,0.0,0.0,0.0,0.5079,0.0,0.5363,0.5189,0.398,0.2286,0.0158,-0.1633,-0.3784,-0.6394,-0.704,-0.76,-0.806,-0.806,-0.806,-0.8068,-0.8162,-0.8252,-0.8342,-0.8436,-0.8526,-0.8607,-0.8607,-0.8607,-0.8607,0.13,0.0052,-0.1014,-0.1098,-0.2041,-0.2476,-0.163,-0.2018,-0.2207,-0.1749,-0.0928,-0.0378,-0.0189,0.0506,0.101,0.1058,0.1017,0.1021,0.1186,0.1033,0.111,0.1666,0.1091,0.1213,0.2016,0.1551,0.1397,0.1538,0.1638,0.1598,0.1381,0.0454,-0.0855,-0.2404,-0.3045,-0.3485,-0.3754,-0.4437,-0.4476,-0.4037,-0.2679,-0.2172,-0.2109,-0.0669,-0.0269,-0.047,0.0,0.0269,0.0537,0.1544,0.1525,0.137,0.3521,0.4497,0.5086,0.6,0.6308,0.6382,0.65,0.6582,0.666,0.6774,0.6847,0.6964,0.6964,0.6945,0.6918,0.67,0.6577,0.632,0.5532,0.5347,0.5026,0.406,0.4083,0.4057,0.367,0.3706,0.0,0.3022,0.3192,0.3134,0.2509,0.2541,0.0,0.0,0.0,0.0,0.0,0.0,0.0,0.0,0.0,0.0,0.5276,0.3095,0.0817,-0.1426,-0.3299,-0.5493,-0.7893,-0.788,-0.7946,-0.806,-0.806,-0.806,-0.8072,-0.8191,-0.8277,-0.8346,-0.8464,-0.855,-0.8607,-0.8607,-0.8607,-0.8607,-0.1793,-0.2464,-0.3261,-0.4594,-0.4116,-0.3331,-0.2945,-0.3226,-0.3123,-0.223,-0.235,-0.2333,-0.1637,-0.1531,-0.1328,-0.1087,-0.1569,-0.1559,-0.0921,-0.1566,-0.1169,0.0631,-0.1049,-0.0734,0.2042,0.0649,-0.0064,0.0,0.024,-0.0283,-0.1426,-0.1272,-0.1989,-0.3451,-0.3359,-0.3514,-0.3761,-0.3241,-0.2552,-0.1705,-0.1237,-0.1186,-0.145,-0.0735,-0.047,-0.0403,0.0269,0.0269,0.0403,0.2888,0.3492,0.3289,0.4029,0.5305,0.6451,0.6518,0.6518,0.656,0.6676,0.6725,0.6766,0.6941,0.6986,0.6986,0.6986,0.699,0.6773,0.5974,0.5825,0.5607,0.488,0.408,0.3537,0.3527,0.3311,0.3119,0.2992,0.3183,0.3204,0.293,0.2546,0.249,0.2932,0.2325,0.0,0.0,0.0,0.0,0.0,0.4457,0.4747,0.5492,0.5435,0.524,0.4901,0.2791,0.0727,-0.133,-0.3836,-0.595,-0.7807,-0.7978,-0.806,-0.806,-0.806,-0.806,-0.8076,-0.8256,-0.8334,-0.8354,-0.8534,-0.8607,-0.8607,-0.8607,-0.8607,-0.8607,-0.0836,-0.1933,-0.2974,-0.3065,-0.3858,-0.4471,-0.459,-0.48,-0.4745,-0.4162,-0.4082,-0.4031,-0.3766,-0.2433,-0.1639,-0.174,-0.074,-0.0491,-0.1528,-0.0691,-0.0447,-0.1023,-0.0513,0.0254,0.1178,0.0685,0.0372,0.0427,-0.074,-0.1955,-0.3186,-0.3119,-0.3921,-0.5432,-0.5324,-0.5432,-0.5562,-0.4313,-0.3539,-0.2965,-0.0798,0.0134,0.0401,0.1543,0.2017,0.2017,0.2018,0.2287,0.2756,0.3763,0.4367,0.4839,0.558,0.6116,0.6522,0.6522,0.6522,0.656,0.6676,0.6725,0.677,0.6945,0.699,0.699,0.699,0.699,0.6773,0.5974,0.5825,0.5389,0.4083,0.3646,0.3437,0.3242,0.285,0.2666,0.3041,0.3146,0.3136,0.3105,0.3302,0.3305,0.3164,0.2819,0.0,0.0,0.0,0.0,0.0,0.408,0.4165,0.3784,0.4381,0.4392,0.3652,0.0794,-0.111,-0.2193,-0.5248,-0.7065,-0.7807,-0.7983,-0.806,-0.806,-0.806,-0.806,-0.8076,-0.826,-0.8334,-0.8354,-0.8538,-0.8607,-0.8607,-0.8607,-0.8607,-0.8607,-0.0963,-0.1779,-0.2689,-0.2785,-0.3743,-0.4539,-0.4667,-0.5204,-0.5283,-0.4434,-0.4704,-0.5017,-0.5109,-0.3964,-0.3209,-0.3355,-0.2248,-0.2106,-0.3449,-0.2482,-0.2171,-0.2725,-0.2262,-0.147,-0.0314,-0.0945,-0.1256,-0.1182,-0.2846,-0.411,-0.4865,-0.4847,-0.5382,-0.6317,-0.6292,-0.6082,-0.5647,-0.4711,-0.3924,-0.3069,-0.0678,0.0407,0.0812,0.2426,0.3038,0.2984,0.2918,0.3131,0.3484,0.3961,0.4575,0.5188,0.5941,0.6349,0.6541,0.6543,0.6547,0.6537,0.6688,0.6749,0.6811,0.6954,0.699,0.699,0.699,0.6555,0.5974,0.5465,0.5174,0.4517,0.3281,0.3063,0.2965,0.2822,0.2511,0.2386,0.2749,0.2995,0.3078,0.285,0.3273,0.3447,0.2852,0.2779,0.275,0.0,0.0,0.0,0.0,0.3661,0.3738,0.343,0.4043,0.3701,0.228,-0.0371,-0.2248,-0.3447,-0.6247,-0.7689,-0.7807,-0.7983,-0.806,-0.806,-0.806,-0.806,-0.8076,-0.826,-0.8334,-0.8354,-0.8538,-0.8607,-0.8607,-0.8607,-0.8607,-0.8607,-0.189,-0.1969,-0.2406,-0.3564,-0.3879,-0.3849,-0.3675,-0.4787,-0.5091,-0.3591,-0.4494,-0.5499,-0.5837,-0.5782,-0.5701,-0.5443,-0.5368,-0.5612,-0.6231,-0.6162,-0.5505,-0.4398,-0.5583,-0.5012,-0.2268,-0.3562,-0.4267,-0.4341,-0.5664,-0.6325,-0.6317,-0.6325,-0.6325,-0.6263,-0.6415,-0.5714,-0.4375,-0.456,-0.3771,-0.2373,-0.0897,-0.0275,-0.0069,0.1831,0.2519,0.2547,0.3027,0.3051,0.2873,0.3575,0.4135,0.4552,0.5321,0.6093,0.6623,0.6513,0.6529,0.6619,0.6705,0.679,0.6947,0.6966,0.699,0.699,0.6918,0.5825,0.4738,0.4665,0.401,0.3281,0.2478,0.2333,0.2333,0.2333,0.2333,0.2331,0.2327,0.2845,0.2993,0.2381,0.2821,0.2958,0.2352,0.2263,0.2558,0.3175,0.0,0.0,0.0,0.0,0.3447,0.408,0.4102,0.3022,0.082,-0.0894,-0.288,-0.5179,-0.6996,-0.7807,-0.7807,-0.7983,-0.806,-0.806,-0.806,-0.8064,-0.8085,-0.826,-0.8338,-0.8362,-0.8538,-0.8607,-0.8607,-0.8607,-0.8607,-0.8607,-0.0735,-0.1304,-0.2144,-0.2506,-0.3429,-0.4377,-0.5277,-0.5807,-0.5919,-0.5253,-0.5544,-0.5693,-0.551,-0.5499,-0.5559,-0.5778,-0.4714,-0.4693,-0.6142,-0.509,-0.4766,-0.5691,-0.4817,-0.3941,-0.3206,-0.3546,-0.4438,-0.5788,-0.6253,-0.6386,-0.6317,-0.639,-0.6285,-0.6019,-0.6376,-0.5982,-0.5117,-0.4649,-0.4131,-0.3448,-0.2292,-0.188,-0.1671,-0.0069,0.0556,0.0697,0.2024,0.2378,0.2456,0.3225,0.3505,0.3853,0.5181,0.574,0.5931,0.6453,0.6623,0.67,0.6721,0.679,0.6947,0.6966,0.699,0.6845,0.6188,0.5825,0.5171,0.401,0.3646,0.3281,0.2478,0.2333,0.2333,0.2333,0.2333,0.2461,0.291,0.3068,0.3275,0.3576,0.332,0.3115,0.3026,0.2667,0.2442,0.2617,0.2721,0.2793,0.263,0.2629,0.2719,0.2938,0.2949,0.2025,0.0157,-0.1569,-0.3937,-0.7073,-0.7653,-0.7864,-0.7807,-0.7983,-0.806,-0.806,-0.806,-0.8101,-0.8174,-0.8289,-0.8375,-0.8452,-0.8562,-0.8607,-0.8607,-0.8607,-0.8607,-0.8607,-0.1103,-0.1798,-0.2583,-0.298,-0.3905,-0.494,-0.597,-0.6255,-0.6267,-0.6113,-0.6156,-0.6116,-0.5915,-0.5915,-0.625,-0.7045,-0.5584,-0.5076,-0.5973,-0.5412,-0.5367,-0.6101,-0.5395,-0.4962,-0.4923,-0.4926,-0.5295,-0.6113,-0.636,-0.6293,-0.5918,-0.6297,-0.6183,-0.5714,-0.6159,-0.6107,-0.5708,-0.5404,-0.5238,-0.5172,-0.3942,-0.3458,-0.3315,-0.1753,-0.1124,-0.0918,0.0636,0.1207,0.1357,0.2497,0.307,0.3569,0.4351,0.492,0.5263,0.5544,0.6211,0.6856,0.6896,0.6653,0.6471,0.6478,0.6192,0.5898,0.5825,0.4953,0.408,0.3573,0.3209,0.2844,0.2405,0.2333,0.2333,0.2333,0.2526,0.2851,0.3161,0.3377,0.3614,0.37,0.3381,0.3107,0.2882,0.263,0.2394,0.247,0.2708,0.2781,0.2483,0.2731,0.2807,0.2633,0.1758,0.056,-0.1207,-0.3699,-0.587,-0.7725,-0.7868,-0.7909,-0.7864,-0.7999,-0.806,-0.806,-0.806,-0.8113,-0.8207,-0.8297,-0.8387,-0.8481,-0.857,-0.8607,-0.8607,-0.8607,-0.8607,-0.8607,-0.1971,-0.2531,-0.3222,-0.3962,-0.4671,-0.5358,-0.6161,-0.6329,-0.6366,-0.651,-0.6522,-0.6522,-0.6522,-0.6522,-0.7049,-0.8507,-0.7206,-0.648,-0.6665,-0.7111,-0.7099,-0.6465,-0.6812,-0.6876,-0.659,-0.6513,-0.6262,-0.5979,-0.6262,-0.6132,-0.5513,-0.6116,-0.5982,-0.5315,-0.5798,-0.5971,-0.5913,-0.6145,-0.6429,-0.6713,-0.5438,-0.5009,-0.486,-0.3321,-0.2764,-0.2505,-0.0931,-0.0289,-0.0073,0.1459,0.241,0.307,0.3429,0.3937,0.4511,0.4541,0.5578,0.6731,0.6868,0.6452,0.5998,0.5846,0.5247,0.4883,0.5465,0.4007,0.2624,0.3209,0.2771,0.2333,0.2333,0.2333,0.2323,0.2296,0.283,0.3211,0.3241,0.3614,0.3757,0.3285,0.31,0.2881,0.2413,0.2428,0.2454,0.251,0.2977,0.3058,0.2633,0.3029,0.2948,0.2249,0.0723,-0.1049,-0.3018,-0.6201,-0.784,-0.784,-0.7929,-0.7966,-0.7958,-0.8044,-0.8076,-0.806,-0.806,-0.8121,-0.8223,-0.8301,-0.8395,-0.8501,-0.8579,-0.8607,-0.8607,-0.8607,-0.8607,-0.8607,-0.1975,-0.2531,-0.3222,-0.3962,-0.4712,-0.5422,-0.6169,-0.6382,-0.6506,-0.6518,-0.6522,-0.6522,-0.6522,-0.6522,-0.7049,-0.8507,-0.8554,-0.9034,-1.0145,-1.0517,-1.005,-0.8628,-0.8623,-0.7966,-0.6659,-0.6233,-0.619,-0.6384,-0.619,-0.5983,-0.5845,-0.5912,-0.5577,-0.491,-0.5389,-0.5423,-0.5224,-0.5648,-0.6001,-0.6365,-0.6221,-0.6319,-0.646,-0.4921,-0.4346,-0.4136,-0.2539,-0.1757,-0.133,-0.0073,0.0661,0.1257,0.3,0.3573,0.3798,0.4567,0.4955,0.5247,0.5859,0.5963,0.5998,0.5846,0.5247,0.4738,0.481,0.4083,0.3136,0.2624,0.2405,0.2333,0.2333,0.2333,0.2355,0.2397,0.2864,0.3217,0.3247,0.3343,0.3279,0.3223,0.2816,0.2523,0.242,0.2447,0.2477,0.2511,0.258,0.2591,0.2637,0.2706,0.2005,0.0493,0.0164,-0.1569,-0.4924,-0.7016,-0.8019,-0.8023,-0.8113,-0.8117,-0.8044,-0.8138,-0.8134,-0.806,-0.806,-0.8158,-0.8313,-0.833,-0.8436,-0.8587,-0.8603,-0.8607,-0.8607,-0.8607,-0.8607,-0.8607,-0.1977,-0.2777,-0.3603,-0.4068,-0.5003,-0.5904,-0.637,-0.6494,-0.6522,-0.6522,-0.6522,-0.6522,-0.6522,-0.6522,-0.7383,-0.9564,-1.0011,-1.1173,-1.3366,-1.2293,-1.1096,-1.0113,-1.0244,-0.9938,-0.9125,-0.8163,-0.7589,-0.7547,-0.6773,-0.6088,-0.5498,-0.5841,-0.5498,-0.4675,-0.5263,-0.5345,-0.5074,-0.5739,-0.6026,-0.6066,-0.654,-0.6727,-0.6689,-0.613,-0.5849,-0.5443,-0.3896,-0.3115,-0.2621,-0.149,-0.097,-0.0749,0.0,0.0223,0.0446,0.1781,0.3446,0.4837,0.4699,0.5026,0.5286,0.4774,0.4386,0.4092,0.4092,0.3497,0.2902,0.3049,0.2679,0.253,0.2975,0.2679,0.2354,0.2413,0.2845,0.3252,0.3269,0.3289,0.3222,0.3222,0.2725,0.2414,0.2446,0.2461,0.2481,0.2512,0.2529,0.2146,0.1198,0.1126,0.0325,-0.1402,-0.2407,-0.4174,-0.6797,-0.7688,-0.8109,-0.8064,-0.8154,-0.815,-0.8064,-0.8105,-0.8101,-0.8064,-0.8113,-0.8211,-0.8338,-0.8387,-0.8489,-0.8607,-0.8607,-0.8607,-0.8607,-0.8607,-0.8607,-0.8607,-0.2224,-0.3268,-0.4167,-0.4424,-0.5411,-0.6243,-0.6494,-0.6522,-0.6522,-0.6522,-0.6522,-0.6522,-0.6522,-0.6786,-0.7979,-1.0485,-1.1333,-1.2793,-1.5344,-1.3649,-1.2293,-1.1722,-1.1507,-1.1371,-1.1324,-1.0077,-0.9371,-0.9134,-0.7785,-0.6741,-0.588,-0.5953,-0.5534,-0.4762,-0.5274,-0.543,-0.5379,-0.5951,-0.6163,-0.6148,-0.6605,-0.6639,-0.6522,-0.6701,-0.6577,-0.6259,-0.5066,-0.4434,-0.3949,-0.2876,-0.25,-0.2428,-0.2571,-0.2568,-0.2336,-0.1046,0.1437,0.3765,0.3491,0.3971,0.4455,0.3795,0.3482,0.3406,0.3782,0.3103,0.265,0.3557,0.3028,0.2574,0.3255,0.2876,0.241,0.2442,0.2932,0.3268,0.3158,0.3256,0.3216,0.3088,0.2702,0.2443,0.2467,0.2476,0.2489,0.2512,0.2144,0.136,0.0,-0.0486,-0.1473,-0.3218,-0.4672,-0.6289,-0.8032,-0.8121,-0.813,-0.8064,-0.8154,-0.8162,-0.8093,-0.8093,-0.8081,-0.8068,-0.8158,-0.8248,-0.8342,-0.8432,-0.8526,-0.8607,-0.8607,-0.8607,-0.8607,-0.8607,-0.8607,-0.8607,-0.2901,-0.3943,-0.4912,-0.5063,-0.5733,-0.6243,-0.6494,-0.6522,-0.6522,-0.6522,-0.6522,-0.6522,-0.6522,-0.7646,-0.9033,-1.0558,-1.2111,-1.3629,-1.5119,-1.5267,-1.4795,-1.3721,-1.2292,-1.1495,-1.1482,-1.099,-1.0855,-1.1062,-0.9321,-0.8409,-0.8238,-0.6438,-0.5604,-0.5534,-0.5325,-0.5679,-0.6398,-0.6114,-0.6371,-0.6977,-0.6383,-0.6298,-0.6463,-0.6162,-0.604,-0.6046,-0.5892,-0.5635,-0.5222,-0.4401,-0.396,-0.3529,-0.2806,-0.2568,-0.2567,-0.249,-0.1066,0.0691,0.2127,0.3131,0.3765,0.3643,0.3028,0.2876,0.4386,0.3482,0.265,0.3557,0.3028,0.2424,0.25,0.2424,0.2443,0.2477,0.2972,0.3156,0.2661,0.2972,0.309,0.2561,0.2446,0.2466,0.2469,0.2495,0.2512,0.2514,0.1032,0.008,-0.0081,-0.1639,-0.3299,-0.4956,-0.5257,-0.6183,-0.7863,-0.8027,-0.8068,-0.8064,-0.8154,-0.8195,-0.8187,-0.8187,-0.8142,-0.8068,-0.8158,-0.8248,-0.8342,-0.8432,-0.8526,-0.8607,-0.8607,-0.8607,-0.8607,-0.8607,-0.8607,-0.8607,-0.3022,-0.41,-0.5028,-0.5198,-0.5774,-0.6308,-0.6502,-0.6522,-0.6522,-0.6522,-0.6522,-0.6522,-0.6522,-0.7779,-0.9166,-1.0551,-1.2163,-1.3679,-1.51,-1.5441,-1.5425,-1.4943,-1.4501,-1.3763,-1.2689,-1.1671,-1.0773,-1.0016,-0.8383,-0.7491,-0.717,-0.6173,-0.5743,-0.5743,-0.5677,-0.6308,-0.7292,-0.6947,-0.7014,-0.7205,-0.6661,-0.6211,-0.5922,-0.5984,-0.5856,-0.5663,-0.5663,-0.5476,-0.5217,-0.5423,-0.5429,-0.5367,-0.5572,-0.564,-0.5408,-0.4403,-0.293,-0.1463,-0.085,0.1087,0.2961,0.2948,0.2712,0.2635,0.3252,0.2867,0.2712,0.3562,0.3099,0.2635,0.3175,0.279,0.2458,0.2463,0.2642,0.2733,0.2533,0.2644,0.2684,0.2477,0.2489,0.2497,0.2497,0.1498,0.0873,0.0873,-0.0726,-0.2204,-0.3364,-0.5026,-0.6193,-0.6859,-0.6884,-0.7218,-0.7934,-0.8019,-0.806,-0.8064,-0.8154,-0.817,-0.8113,-0.8113,-0.8125,-0.815,-0.8244,-0.8334,-0.8428,-0.8517,-0.8575,-0.8607,-0.8607,-0.8607,-0.8607,-0.8607,-0.8607,-0.8607,-0.3576,-0.4552,-0.5382,-0.5525,-0.5931,-0.6345,-0.6506,-0.6522,-0.6522,-0.6522,-0.6522,-0.6522,-0.6522,-0.8179,-0.963,-1.0624,-1.2515,-1.4068,-1.5073,-1.4934,-1.4869,-1.4932,-1.506,-1.4406,-1.2804,-1.1874,-1.0895,-0.9942,-0.8462,-0.7566,-0.7276,-0.641,-0.5974,-0.5977,-0.6128,-0.6619,-0.7459,-0.731,-0.7233,-0.7148,-0.6637,-0.6042,-0.5544,-0.5673,-0.5541,-0.5346,-0.5346,-0.522,-0.51,-0.6037,-0.6275,-0.6431,-0.7213,-0.7525,-0.7291,-0.6111,-0.4595,-0.3333,-0.3283,-0.1254,0.102,0.157,0.212,0.2592,0.2828,0.2671,0.2749,0.3611,0.3142,0.2671,0.3299,0.2906,0.2514,0.2514,0.2514,0.2514,0.2514,0.2514,0.2514,0.2514,0.2522,0.2291,0.1737,0.0638,-0.0321,-0.0883,-0.2532,-0.4298,-0.6142,-0.7286,-0.7934,-0.7934,-0.7905,-0.7905,-0.7934,-0.8019,-0.8048,-0.8023,-0.8113,-0.8121,-0.8064,-0.8093,-0.8138,-0.8203,-0.8326,-0.8415,-0.8481,-0.857,-0.8607,-0.8607,-0.8607,-0.8607,-0.8607,-0.8607,-0.8607,-0.8607,-0.4926,-0.5489,-0.6017,-0.6166,-0.6255,-0.6349,-0.6506,-0.6522,-0.6522,-0.6522,-0.6522,-0.6522,-0.6522,-0.9039,-1.0683,-1.0683,-1.3267,-1.4866,-1.4866,-1.3785,-1.3157,-1.3344,-1.3352,-1.2804,-1.1495,-1.1502,-1.1507,-1.1586,-1.0006,-0.9291,-0.9219,-0.7276,-0.6413,-0.6417,-0.6492,-0.6574,-0.6728,-0.7109,-0.7085,-0.6777,-0.6319,-0.5858,-0.5479,-0.5153,-0.5019,-0.5022,-0.5022,-0.5022,-0.51,-0.6037,-0.6275,-0.6431,-0.7213,-0.7525,-0.7525,-0.7525,-0.6346,-0.5014,-0.5014,-0.376,-0.2115,-0.047,0.1256,0.2671,0.3532,0.3063,0.2749,0.3611,0.3063,0.2514,0.2514,0.2515,0.2515,0.2514,0.2515,0.2515,0.2514,0.2514,0.2514,0.2515,0.2541,0.1919,0.008,-0.0081,-0.0894,-0.268,-0.4431,-0.6225,-0.7972,-0.7978,-0.7934,-0.7934,-0.7848,-0.7844,-0.7934,-0.8019,-0.8019,-0.7938,-0.8023,-0.806,-0.8064,-0.8158,-0.8199,-0.8211,-0.8391,-0.8473,-0.8481,-0.857,-0.8607,-0.8607,-0.8607,-0.8607,-0.8607,-0.8607,-0.8607,-0.8607,-0.4994,-0.5638,-0.617,-0.6259,-0.6353,-0.6423,-0.6518,-0.6522,-0.6522,-0.6522,-0.6522,-0.6522,-0.6522,-0.8893,-1.0575,-1.0677,-1.223,-1.2873,-1.2003,-1.2578,-1.209,-1.0166,-1.1152,-1.1111,-0.9549,-0.9654,-0.9275,-0.8311,-0.7891,-0.7711,-0.7638,-0.6773,-0.6555,-0.6777,-0.6566,-0.7207,-0.8276,-0.7606,-0.7427,-0.7519,-0.6463,-0.566,-0.5091,-0.4954,-0.4986,-0.5022,-0.5022,-0.5022,-0.51,-0.6037,-0.6275,-0.6431,-0.7213,-0.7525,-0.7525,-0.7525,-0.7131,-0.674,-0.674,-0.5561,-0.3838,-0.2194,-0.141,-0.0627,0.0784,0.0941,0.1177,0.2591,0.2671,0.2514,0.2514,0.2532,0.254,0.2518,0.2532,0.2538,0.2518,0.2514,0.2522,0.2544,0.2555,0.1924,0.0081,-0.1225,-0.271,-0.452,-0.6311,-0.7508,-0.7974,-0.795,-0.7905,-0.7844,-0.7876,-0.7909,-0.7934,-0.7962,-0.7991,-0.8023,-0.8052,-0.8097,-0.8158,-0.8187,-0.8268,-0.8391,-0.8448,-0.8509,-0.857,-0.8595,-0.8607,-0.8607,-0.8607,-0.8607,-0.8607,-0.8607,-0.8607,-0.8607,-0.5405,-0.5866,-0.621,-0.63,-0.6394,-0.6522,-0.6522,-0.6522,-0.6522,-0.6522,-0.6522,-0.6522,-0.6522,-0.8338,-0.9655,-0.9802,-1.1495,-1.203,-1.0809,-1.1569,-1.1049,-0.8821,-0.9192,-0.897,-0.8001,-0.8133,-0.7794,-0.6909,-0.6962,-0.699,-0.699,-0.6773,-0.67,-0.6777,-0.6717,-0.7195,-0.8007,-0.748,-0.7302,-0.7323,-0.6544,-0.5902,-0.5361,-0.5388,-0.5266,-0.5223,-0.5248,-0.5257,-0.5414,-0.604,-0.6509,-0.69,-0.7369,-0.7525,-0.7525,-0.7525,-0.7525,-0.7525,-0.7525,-0.6762,-0.5833,-0.4706,-0.3538,-0.2288,-0.1263,-0.103,-0.0795,0.0159,0.0398,0.0637,0.1354,0.1522,0.1767,0.2393,0.2555,0.2553,0.2534,0.2522,0.2288,0.1596,0.1525,0.0566,-0.196,-0.3137,-0.4477,-0.6282,-0.7399,-0.7991,-0.7938,-0.7901,-0.7889,-0.7901,-0.7925,-0.795,-0.7987,-0.7987,-0.8011,-0.806,-0.8097,-0.8146,-0.8199,-0.8272,-0.8366,-0.8473,-0.8509,-0.8558,-0.8607,-0.8607,-0.8607,-0.8607,-0.8607,-0.8607,-0.8607,-0.8607,-0.8607,-0.8607,-0.5984,-0.6133,-0.6223,-0.6313,-0.6398,-0.6522,-0.6522,-0.6522,-0.6522,-0.6522,-0.6522,-0.6522,-0.6522,-0.7615,-0.8394,-0.8388,-1.0933,-1.1923,-1.0432,-1.0645,-1.0128,-0.8581,-0.7594,-0.6985,-0.6923,-0.6931,-0.6909,-0.699,-0.699,-0.699,-0.699,-0.699,-0.6773,-0.649,-0.6929,-0.6891,-0.6592,-0.6891,-0.6861,-0.6552,-0.6474,-0.6266,-0.5968,-0.6042,-0.5842,-0.547,-0.5618,-0.5724,-0.573,-0.6196,-0.69,-0.7525,-0.7525,-0.7525,-0.7525,-0.7525,-0.7533,-0.7537,-0.7537,-0.7603,-0.7652,-0.7562,-0.5308,-0.304,-0.2874,-0.2898,-0.3004,-0.2842,-0.2761,-0.2274,-0.065,-0.0325,0.0244,0.187,0.2098,0.2085,0.2083,0.2063,0.1424,-0.016,-0.0323,-0.1634,-0.5041,-0.5502,-0.626,-0.7777,-0.7934,-0.7934,-0.7925,-0.786,-0.7893,-0.8048,-0.7983,-0.7983,-0.806,-0.8068,-0.8076,-0.8076,-0.8158,-0.8207,-0.8228,-0.8395,-0.8477,-0.8489,-0.857,-0.8607,-0.8607,-0.8607,-0.8607,-0.8607,-0.8607,-0.8607,-0.8607,-0.8607,-0.8607,-0.8607,-0.6137,-0.6227,-0.6317,-0.6411,-0.6506,-0.6522,-0.6522,-0.6522,-0.6522,-0.6522,-0.6522,-0.6522,-0.6522,-0.7619,-0.8334,-0.8388,-1.0051,-1.0107,-0.7631,-0.9644,-0.9832,-0.7424,-0.8019,-0.7902,-0.6923,-0.6925,-0.697,-0.699,-0.699,-0.699,-0.699,-0.699,-0.6918,-0.6845,-0.7011,-0.6946,-0.6873,-0.6658,-0.6524,-0.6389,-0.6078,-0.5716,-0.5446,-0.5813,-0.55,-0.5024,-0.5394,-0.5606,-0.5808,-0.6513,-0.7056,-0.7525,-0.7525,-0.7525,-0.7525,-0.7525,-0.7574,-0.7631,-0.7631,-0.7701,-0.7746,-0.7656,-0.719,-0.6367,-0.4966,-0.467,-0.4383,-0.3085,-0.2761,-0.268,-0.2274,-0.2207,-0.205,-0.1707,-0.155,-0.1552,-0.162,-0.1615,-0.1781,-0.2127,-0.2135,-0.2974,-0.5179,-0.6573,-0.7537,-0.7855,-0.7934,-0.7905,-0.7831,-0.7942,-0.7991,-0.7962,-0.8007,-0.8044,-0.806,-0.8134,-0.817,-0.817,-0.8187,-0.8272,-0.8415,-0.8452,-0.8509,-0.8579,-0.8599,-0.8607,-0.8607,-0.8607,-0.8607,-0.8607,-0.8607,-0.8607,-0.8607,-0.8607,-0.8607,-0.8607,-0.6161,-0.6255,-0.6345,-0.6506,-0.6522,-0.6522,-0.6522,-0.6522,-0.6522,-0.6522,-0.6522,-0.6522,-0.6522,-0.6985,-0.7284,-0.7343,-0.8691,-0.8678,-0.6652,-0.8649,-0.8947,-0.6864,-0.7418,-0.751,-0.679,-0.688,-0.6925,-0.6925,-0.697,-0.699,-0.699,-0.699,-0.699,-0.699,-0.699,-0.699,-0.6986,-0.6729,-0.6637,-0.6634,-0.6162,-0.5862,-0.5662,-0.5846,-0.5615,-0.5295,-0.5501,-0.5748,-0.604,-0.6669,-0.7138,-0.7525,-0.7525,-0.7525,-0.7533,-0.7578,-0.7595,-0.7607,-0.7652,-0.7697,-0.7713,-0.7619,-0.7766,-0.7651,-0.6626,-0.6496,-0.6315,-0.5522,-0.5259,-0.5002,-0.4203,-0.3976,-0.3736,-0.289,-0.2723,-0.2717,-0.2784,-0.2769,-0.3098,-0.3874,-0.3962,-0.4726,-0.654,-0.752,-0.7978,-0.7938,-0.7934,-0.7913,-0.7864,-0.795,-0.7999,-0.7995,-0.804,-0.8085,-0.8125,-0.8174,-0.8244,-0.833,-0.833,-0.8379,-0.8473,-0.8517,-0.8562,-0.8607,-0.8607,-0.8607,-0.8607,-0.8607,-0.8607,-0.8607,-0.8607,-0.8607,-0.8607,-0.8607,-0.8607,-0.8607,-0.6186,-0.6276,-0.6366,-0.6506,-0.6522,-0.6522,-0.6522,-0.6522,-0.6522,-0.6522,-0.6522,-0.6514,-0.6498,-0.628,-0.6186,-0.6202,-0.731,-0.7601,-0.6602,-0.7892,-0.8088,-0.6679,-0.6863,-0.6892,-0.67,-0.6786,-0.691,-0.6923,-0.6945,-0.699,-0.699,-0.699,-0.699,-0.699,-0.699,-0.699,-0.6982,-0.6749,-0.678,-0.6847,-0.6337,-0.6155,-0.6159,-0.6037,-0.5881,-0.5763,-0.561,-0.5807,-0.6257,-0.674,-0.7127,-0.7427,-0.7443,-0.7525,-0.7542,-0.7615,-0.7595,-0.7566,-0.764,-0.7672,-0.7664,-0.757,-0.7729,-0.7889,-0.7795,-0.7868,-0.7974,-0.8027,-0.7995,-0.7478,-0.6115,-0.5873,-0.5371,-0.386,-0.3662,-0.364,-0.364,-0.3695,-0.4261,-0.571,-0.5881,-0.6483,-0.7972,-0.8048,-0.8011,-0.7942,-0.7934,-0.7934,-0.7934,-0.795,-0.7991,-0.806,-0.8076,-0.8121,-0.8199,-0.8232,-0.8321,-0.8473,-0.8489,-0.8493,-0.8497,-0.8575,-0.8607,-0.8607,-0.8607,-0.8607,-0.8607,-0.8607,-0.8607,-0.8607,-0.8607,-0.8607,-0.8607,-0.8607,-0.8607,-0.8607,-0.628,-0.6374,-0.6506,-0.6518,-0.6522,-0.6522,-0.6522,-0.6522,-0.6522,-0.6522,-0.6522,-0.6423,-0.6345,-0.6243,-0.621,-0.6292,-0.6568,-0.6728,-0.6566,-0.7937,-0.8123,-0.6774,-0.7781,-0.78,-0.6607,-0.6696,-0.6778,-0.6923,-0.6945,-0.699,-0.699,-0.699,-0.699,-0.699,-0.699,-0.699,-0.6982,-0.6177,-0.6282,-0.6843,-0.5989,-0.5844,-0.6142,-0.6241,-0.6016,-0.5685,-0.5463,-0.5581,-0.5803,-0.6644,-0.6933,-0.6961,-0.7345,-0.7525,-0.7529,-0.7542,-0.7591,-0.7648,-0.766,-0.7721,-0.7758,-0.7668,-0.7733,-0.7795,-0.7701,-0.7868,-0.8027,-0.7966,-0.8003,-0.7964,-0.7805,-0.7725,-0.7642,-0.7387,-0.7379,-0.7372,-0.7372,-0.7361,-0.7444,-0.7706,-0.771,-0.7797,-0.806,-0.7995,-0.7946,-0.7938,-0.7934,-0.7934,-0.7934,-0.8003,-0.8052,-0.806,-0.8138,-0.8187,-0.8199,-0.8354,-0.8448,-0.8473,-0.855,-0.8591,-0.8591,-0.8603,-0.8607,-0.8607,-0.8607,-0.8607,-0.8607,-0.8607,-0.8607,-0.8607,-0.8607,-0.8607,-0.8607,-0.8607,-0.8607,-0.8607,-0.63,-0.639,-0.6522,-0.6522,-0.6522,-0.6451,-0.6183,-0.6183,-0.6116,-0.5915,-0.5919,-0.5904,-0.6062,-0.6177,-0.6272,-0.6313,-0.6353,-0.6415,-0.6509,-0.7116,-0.7134,-0.6297,-0.7012,-0.7084,-0.6313,-0.6655,-0.6815,-0.6923,-0.6945,-0.699,-0.699,-0.699,-0.699,-0.699,-0.699,-0.6962,-0.6909,-0.6465,-0.6473,-0.6696,-0.6058,-0.5758,-0.578,-0.5894,-0.582,-0.5672,-0.5748,-0.567,-0.5686,-0.6342,-0.6722,-0.6933,-0.7357,-0.7525,-0.7537,-0.7586,-0.7595,-0.7599,-0.7648,-0.7656,-0.7635,-0.7595,-0.7656,-0.7701,-0.7607,-0.7758,-0.7905,-0.7868,-0.7889,-0.7929,-0.7983,-0.8032,-0.806,-0.806,-0.806,-0.806,-0.806,-0.806,-0.806,-0.806,-0.806,-0.806,-0.806,-0.8027,-0.8007,-0.8007,-0.8007,-0.8007,-0.8007,-0.8089,-0.8138,-0.8138,-0.8228,-0.8297,-0.835,-0.8432,-0.8497,-0.855,-0.8591,-0.8607,-0.8607,-0.8607,-0.8607,-0.8607,-0.8607,-0.8607,-0.8607,-0.8607,-0.8607,-0.8607,-0.8607,-0.8607,-0.8607,-0.8607,-0.8607,-0.8607]}]]